[[{"header":{"parameterUnit":"m.s-1","parameterCategory":1,"la1":31.0,"la2":29.5877,"lo1":-88.7671,"lo2":-86.6584,"dy":0.0162,"dx":0.0185,"nx":115,"ny":88,"refTime":"2025-05-24T12:00:00:Z","depth":0,"parameterNumber":2,"parameterNumberName":"U-component_of_WINDS"},"data":[0.0,0.0,0.0,0.0,0.0,0.0,0.0,0.0,0.0,0.0,0.0,0.0,0.0,0.0,0.0,0.0,0.0,0.0,0.0,0.0,0.0,0.0,0.0,0.0,0.0,0.0,0.0,0.0,0.0,0.0,0.0,0.0,0.0,0.0,0.0,0.0,0.0,0.0,0.0,0.0,0.0,0.0,0.0,0.0,0.0,0.0,0.0,0.0,0.0,0.0,0.0,0.0,0.0,0.0,0.0,0.0,0.0,0.0,0.0,0.0,0.0,0.0,0.0,0.0,0.0,0.0,0.0,0.0,0.0,0.0,0.0,0.0,0.0,0.0,0.0,0.0,0.0,0.0,0.0,0.0,0.0,0.0,0.0,0.0,0.0,0.0,0.0,0.0,0.0,0.0,0.0,0.0,0.0,0.0,0.0,0.0,0.0,0.0,0.0,0.0,0.0,0.0,0.0,0.0,0.0,0.0,0.0,0.0,0.0,0.0,0.0,0.0,0.0,0.0,0.0,0.0,0.0,0.0,0.0,0.0,0.0,0.0,0.0,0.0,0.0,0.0,0.0,0.0,0.0,0.0,0.0,0.0,0.0,0.0,0.0,0.0,0.0,0.0,0.0,0.0,0.0,0.0,0.0,0.0,0.0,0.0,0.0,0.0,0.0,0.0,0.0,0.0,0.0,0.0,0.0,0.0,0.0,0.0,0.0,0.0,0.0,0.0,0.0,0.0,0.0,0.0,0.0,0.0,0.0,0.0,0.0,0.0,0.0,0.0,0.0,0.0,0.0,0.0,0.0,0.0,0.0,0.0,0.0,0.0,0.0,0.0,0.0,0.0,0.0,0.0,0.0,0.0,0.0,0.0,0.0,0.0,0.0,0.0,0.0,0.0,0.0,0.0,0.0,0.0,0.0,0.0,0.0,0.0,0.0,0.0,0.0,0.0,0.0,0.0,0.0,0.0,0.0,0.0,0.0,0.0,0.0,0.0,0.0,0.0,0.0,0.0,0.0,0.0,0.0,0.0,0.0,0.0,0.0,0.0,0.0,0.0,0.0,0.0,0.0,0.0,0.0,0.0,0.0,0.0,0.0,0.0,0.0,0.0,0.0,0.0,0.0,0.0,0.0,0.0,0.0,0.0,0.0,0.0,0.0,0.0,0.0,0.0,0.0,0.0,0.0,0.0,0.0,0.0,0.0,0.0,0.0,0.0,0.0,0.0,0.0,0.0,0.0,0.0,0.0,0.0,0.0,0.0,0.0,0.0,0.0,0.0,0.0,0.0,0.0,0.0,0.0,0.0,0.0,0.0,0.0,0.0,0.0,0.0,0.0,0.0,0.0,0.0,0.0,0.0,0.0,0.0,0.0,0.0,0.0,0.0,0.0,0.0,0.0,0.0,0.0,0.0,0.0,0.0,0.0,0.0,0.0,0.0,0.0,0.0,0.0,0.0,0.0,0.0,0.0,0.0,0.0,0.0,0.0,0.0,0.0,0.0,0.0,0.0,0.0,0.0,0.0,0.0,0.0,0.0,0.0,0.0,0.0,0.0,0.0,0.0,0.0,0.0,0.0,0.0,0.0,0.0,0.0,0.0,0.0,0.0,0.0,0.0,0.0,0.0,0.0,0.0,0.0,0.0,0.0,0.0,0.0,0.0,0.0,0.0,0.0,0.0,0.0,0.0,0.0,0.0,0.0,0.0,0.0,0.0,0.0,0.0,0.0,0.0,0.0,0.0,0.0,0.0,0.0,0.0,0.0,0.0,0.0,0.0,0.0,0.0,0.0,0.0,0.0,0.0,0.0,0.0,0.0,0.0,0.0,0.0,0.0,0.0,0.0,0.0,0.0,0.0,0.0,0.0,0.0,0.0,0.0,0.0,0.0,0.0,0.0,0.0,0.0,0.0,0.0,0.0,0.0,0.0,0.0,0.0,0.0,0.0,0.0,0.0,0.0,0.0,0.0,0.0,0.0,0.0,0.0,0.0,0.0,0.0,0.0,0.0,0.0,0.0,0.0,0.0,0.0,0.0,0.0,0.0,0.0,0.0,0.0,0.0,0.0,0.0,0.0,0.0,0.0,0.0,0.0,0.0,0.0,0.0,0.0,0.0,0.0,0.0,0.0,0.0,0.0,0.0,0.0,0.0,0.0,0.0,0.0,0.0,0.0,0.0,0.0,0.0,0.0,0.0,0.0,0.0,0.0,0.0,0.0,0.0,0.0,0.0,0.0,0.0,0.0,0.0,0.0,0.0,0.0,0.0,0.0,0.0,0.0,0.0,0.0,0.0,0.0,0.0,0.0,0.0,0.0,0.0,0.0,0.0,0.0,0.0,0.0,0.0,0.0,0.0,0.0,0.0,0.0,0.0,0.0,0.0,0.0,0.0,0.0,0.0,0.0,0.0,0.0,0.0,0.0,0.0,0.0,0.0,0.0,0.0,0.0,0.0,0.0,0.0,0.0,0.0,0.0,0.0,0.0,0.0,0.0,0.0,0.0,0.0,0.0,0.0,0.0,0.0,0.0,0.0,0.0,0.0,0.0,0.0,0.0,0.0,0.0,0.0,0.0,0.0,0.0,0.0,0.0,0.0,0.0,0.0,0.0,0.0,0.0,0.0,0.0,0.0,0.0,0.0,0.0,0.0,0.0,0.0,0.0,0.0,0.0,0.0,0.0,0.0,0.0,0.0,0.0,0.0,0.0,0.0,0.0,0.0,0.0,0.0,0.0,0.0,0.0,0.0,0.0,0.0,0.0,0.0,0.0,0.0,0.0,0.0,0.0,0.0,0.0,0.0,0.0,0.0,0.0,0.0,0.0,0.0,0.0,0.0,0.0,0.0,0.0,0.0,0.0,0.0,0.0,0.0,0.0,0.0,0.0,0.0,0.0,0.0,0.0,0.0,0.0,0.0,0.0,0.0,0.0,0.0,0.0,0.0,0.0,0.0,0.0,0.0,0.0,0.0,0.0,0.0,0.0,0.0,0.0,0.0,0.0,0.0,0.0,0.0,0.0,0.0,0.0,0.0,0.0,0.0,0.0,0.0,0.0,0.0,0.0,0.0,0.0,0.0,0.0,0.0,0.0,0.0,0.0,0.0,0.0,0.0,0.0,0.0,0.0,0.0,0.0,0.0,0.0,0.0,0.0,0.0,0.0,0.0,0.0,0.0,0.0,0.0,0.0,0.0,0.0,0.0,0.0,0.0,0.0,0.0,0.0,0.0,0.0,0.0,0.0,0.0,0.0,0.0,0.0,0.0,0.0,0.0,0.0,0.0,0.0,0.0,0.0,0.0,0.0,0.0,0.0,0.0,0.0,0.0,0.0,0.0,0.0,0.0,0.0,0.0,0.0,0.0,0.0,0.0,0.0,0.0,0.0,0.0,0.0,0.0,0.0,0.0,0.0,0.0,0.0,0.0,0.0,0.0,0.0,0.0,0.0,0.0,0.0,0.0,0.0,0.0,0.0,0.0,0.0,0.0,0.0,0.0,0.0,0.0,0.0,0.0,0.0,0.0,0.0,0.0,0.0,0.0,0.0,0.0,0.0,0.0,0.0,0.0,0.0,0.0,0.0,0.0,0.0,0.0,0.0,0.0,0.0,0.0,0.0,0.0,0.0,0.0,0.0,0.0,0.0,0.0,0.0,0.0,0.0,0.0,0.0,0.0,0.0,0.0,0.0,0.0,0.0,0.0,0.0,0.0,0.0,0.0,0.0,0.0,0.0,0.0,0.0,0.0,0.0,0.0,0.0,0.0,0.0,0.0,0.0,0.0,0.0,0.0,0.0,0.0,0.0,0.0,0.0,0.0,0.0,0.0,0.0,0.0,0.0,0.0,0.0,0.0,0.0,0.0,0.0,0.0,0.0,0.0,0.0,0.0,0.0,0.0,0.0,0.0,0.0,0.0,0.0,0.0,0.0,0.0,0.0,0.0,0.0,0.0,0.0,0.0,0.0,0.0,0.0,0.0,0.0,0.0,0.0,0.0,0.0,0.0,0.0,0.0,0.0,0.0,0.0,0.0,0.0,0.0,0.0,0.0,0.0,0.0,0.0,0.0,0.0,0.0,0.0,0.0,0.0,0.0,0.0,0.0,0.0,0.0,0.0,0.0,0.0,0.0,0.0,0.0,0.0,0.0,0.0,0.0,0.0,0.0,0.0,0.0,0.0,0.0,0.0,0.0,0.0,0.0,0.0,0.0,0.0,0.0,0.0,0.0,0.0,0.0,0.0,0.0,0.0,0.0,0.0,0.0,0.0,0.0,0.0,0.0,0.0,0.0,0.0,0.0,0.0,0.0,-0.908,0.0,0.0,0.0,0.0,0.0,0.0,0.0,0.0,0.0,0.0,0.0,0.0,0.0,0.0,0.0,0.0,0.0,0.0,0.0,0.0,0.0,0.0,0.0,0.0,0.0,0.0,0.0,0.0,0.0,0.0,0.0,0.0,0.0,0.0,0.0,0.0,0.0,0.0,0.0,0.0,0.0,0.0,0.0,0.0,0.0,0.0,0.0,0.0,0.0,0.0,0.0,0.0,0.0,0.0,0.0,0.0,0.0,0.0,0.0,0.0,0.0,0.0,0.0,0.0,0.0,0.0,0.0,0.0,0.0,0.0,0.0,0.0,0.0,0.0,0.0,0.0,0.0,0.0,0.0,0.0,0.0,0.0,0.0,0.0,0.0,0.0,0.0,0.0,0.0,0.0,0.0,0.0,0.0,0.0,0.0,0.0,0.0,0.0,0.0,0.0,0.0,0.0,0.0,0.0,0.0,0.0,0.0,0.0,0.0,0.0,-0.9596,-0.9769,-0.9938,-0.9919,-0.9692,0.0,0.0,0.0,0.0,0.0,0.0,0.0,0.0,0.0,0.0,0.0,0.0,0.0,0.0,0.0,0.0,0.0,0.0,0.0,0.0,0.0,0.0,0.0,0.0,0.0,0.0,0.0,0.0,0.0,0.0,0.0,0.0,0.0,0.0,0.0,0.0,0.0,0.0,0.0,0.0,0.0,0.0,0.0,0.0,0.0,0.0,0.0,0.0,0.0,0.0,0.0,0.0,0.0,0.0,0.0,0.0,0.0,0.0,0.0,0.0,0.0,0.0,0.0,0.0,0.0,0.0,0.0,0.0,0.0,0.0,0.0,0.0,0.0,0.0,0.0,0.0,0.0,0.0,0.0,0.0,0.0,0.0,0.0,0.0,0.0,0.0,0.0,0.0,0.0,0.0,0.0,0.0,0.0,0.0,0.0,0.0,0.0,0.0,0.0,0.0,0.0,0.0,0.0,0.0,0.0,0.0,0.0,0.0,0.0,0.0,0.0,0.0,-1.0644,-1.0551,-1.0064,0.0,0.0,0.0,0.0,0.0,0.0,0.0,0.0,0.0,0.0,0.0,0.0,0.0,0.0,0.0,0.0,0.0,0.0,0.0,0.0,0.0,0.0,0.0,0.0,0.0,0.0,0.0,0.0,0.0,0.0,0.0,0.0,0.0,0.0,0.0,0.0,0.0,0.0,0.0,0.0,0.0,0.0,0.0,0.0,0.0,0.0,0.0,0.0,0.0,0.0,0.0,0.0,0.0,0.0,0.0,0.0,0.0,0.0,0.0,0.0,0.0,0.0,0.0,0.0,0.0,0.0,0.0,0.0,0.0,0.0,0.0,0.0,0.0,0.0,0.0,0.0,0.0,0.0,0.0,0.0,0.0,0.0,0.0,0.0,0.0,0.0,0.0,0.0,0.0,0.0,0.0,0.0,0.0,0.0,0.0,0.0,0.0,0.0,0.0,0.0,0.0,0.0,0.0,0.0,0.0,0.0,0.0,0.0,0.0,0.0,-1.0186,-1.0312,-1.0523,0.0,-1.0013,0.0,0.0,0.0,0.0,0.0,0.0,0.0,0.0,0.0,0.0,0.0,0.0,0.0,0.0,0.0,0.0,0.0,0.0,0.0,0.0,0.0,0.0,0.0,0.0,0.0,0.0,0.0,0.0,0.0,0.0,0.0,0.0,0.0,0.0,0.0,0.0,0.0,0.0,0.0,0.0,0.0,0.0,0.0,0.0,0.0,0.0,0.0,0.0,0.0,0.0,0.0,0.0,0.0,0.0,0.0,0.0,0.0,0.0,0.0,0.0,0.0,0.0,0.0,0.0,0.0,0.0,0.0,0.0,0.0,0.0,0.0,0.0,0.0,0.0,0.0,0.0,0.0,0.0,0.0,0.0,0.0,0.0,0.0,0.0,0.0,0.0,0.0,0.0,0.0,0.0,0.0,0.0,0.0,0.0,0.0,0.0,0.0,0.0,0.0,0.0,0.0,0.0,0.0,0.0,0.0,0.0,0.0,0.0,0.0,0.0,-1.0199,-1.065,-1.0886,-1.0651,0.0,0.0,0.0,0.0,0.0,0.0,0.0,0.0,0.0,0.0,0.0,0.0,0.0,0.0,0.0,0.0,0.0,0.0,0.0,0.0,0.0,0.0,0.0,0.0,0.0,0.0,0.0,0.0,0.0,0.0,0.0,0.0,0.0,0.0,0.0,0.0,0.0,0.0,0.0,0.0,0.0,0.0,0.0,0.0,0.0,0.0,0.0,0.0,0.0,0.0,0.0,0.0,0.0,0.0,0.0,0.0,0.0,0.0,0.0,0.0,0.0,0.0,0.0,0.0,0.0,0.0,0.0,0.0,0.0,0.0,0.0,0.0,0.0,0.0,0.0,0.0,0.0,0.0,0.0,0.0,0.0,0.0,0.0,0.0,0.0,0.0,0.0,0.0,0.0,0.0,0.0,0.0,0.0,0.0,0.0,0.0,0.0,0.0,0.0,0.0,0.0,0.0,0.0,0.0,0.0,0.0,0.0,0.0,0.0,0.0,-0.9841,0.0,-1.0647,-1.0886,-1.0648,-0.9957,0.0,0.0,0.0,0.0,0.0,0.0,0.0,0.0,0.0,0.0,0.0,0.0,0.0,0.0,0.0,0.0,0.0,0.0,0.0,0.0,0.0,0.0,0.0,0.0,0.0,0.0,0.0,0.0,0.0,0.0,0.0,0.0,0.0,0.0,0.0,0.0,0.0,0.0,0.0,0.0,0.0,0.0,0.0,0.0,0.0,0.0,0.0,0.0,0.0,0.0,0.0,0.0,0.0,0.0,0.0,0.0,0.0,0.0,0.0,0.0,0.0,0.0,0.0,0.0,0.0,0.0,0.0,0.0,0.0,0.0,0.0,0.0,0.0,0.0,0.0,0.0,0.0,0.0,0.0,0.0,0.0,0.0,0.0,0.0,0.0,0.0,0.0,0.0,0.0,0.0,0.0,0.0,0.0,0.0,0.0,0.0,0.0,0.0,0.0,0.0,0.0,0.0,0.0,0.0,0.0,0.0,0.0,0.0,0.0,-0.9762,-0.9918,-1.0136,-1.0225,-1.0275,0.0,0.0,0.0,0.0,0.0,0.0,0.0,0.0,0.0,0.0,0.0,0.0,0.0,0.0,0.0,0.0,0.0,0.0,0.0,0.0,0.0,0.0,0.0,0.0,0.0,0.0,0.0,0.0,0.0,0.0,0.0,0.0,0.0,0.0,0.0,0.0,0.0,0.0,0.0,0.0,0.0,0.0,0.0,0.0,0.0,0.0,0.0,0.0,0.0,0.0,0.0,0.0,0.0,0.0,0.0,0.0,0.0,0.0,0.0,0.0,0.0,0.0,0.0,0.0,0.0,0.0,0.0,0.0,0.0,0.0,0.0,0.0,0.0,0.0,0.0,0.0,0.0,0.0,0.0,0.0,0.0,0.0,0.0,0.0,0.0,0.0,0.0,0.0,0.0,0.0,0.0,0.0,0.0,0.0,0.0,0.0,0.0,0.0,0.0,0.0,0.0,0.0,0.0,0.0,0.0,0.0,0.0,0.0,0.0,-0.9656,-1.0041,-1.0135,-0.9943,-1.0244,-1.0336,0.0,0.0,0.0,0.0,0.0,0.0,0.0,0.0,0.0,0.0,0.0,0.0,0.0,0.0,0.0,0.0,0.0,0.0,0.0,0.0,0.0,0.0,0.0,0.0,0.0,0.0,0.0,0.0,0.0,0.0,0.0,0.0,0.0,0.0,0.0,0.0,0.0,0.0,0.0,0.0,0.0,0.0,0.0,0.0,0.0,0.0,0.0,0.0,0.0,0.0,0.0,0.0,0.0,0.0,0.0,0.0,0.0,0.0,0.0,0.0,0.0,0.0,0.0,0.0,0.0,0.0,0.0,0.0,0.0,0.0,0.0,0.0,0.0,0.0,0.0,0.0,0.0,0.0,0.0,0.0,0.0,0.0,0.0,0.0,0.0,0.0,0.0,0.0,0.0,0.0,0.0,0.0,0.0,0.0,0.0,0.0,0.0,0.0,0.0,0.0,0.0,0.0,0.0,0.0,0.0,0.0,0.0,0.0,0.0,-0.9577,0.0,-1.0052,0.0,-1.0095,-1.0188,0.0,0.0,0.0,0.0,0.0,0.0,0.0,0.0,0.0,0.0,0.0,0.0,0.0,0.0,0.0,0.0,0.0,0.0,0.0,0.0,0.0,0.0,0.0,0.0,0.0,0.0,0.0,0.0,0.0,0.0,0.0,0.0,0.0,0.0,0.0,0.0,0.0,0.0,0.0,0.0,0.0,0.0,0.0,0.0,0.0,0.0,0.0,0.0,0.0,0.0,0.0,0.0,0.0,0.0,0.0,0.0,0.0,0.0,0.0,0.0,0.0,0.0,0.0,0.0,0.0,0.0,0.0,0.0,0.0,0.0,0.0,0.0,0.0,0.0,0.0,0.0,0.0,0.0,0.0,0.0,0.0,0.0,0.0,0.0,0.0,0.0,0.0,0.0,0.0,0.0,0.0,0.0,0.0,0.0,0.0,0.0,0.0,0.0,0.0,0.0,0.0,0.0,0.0,0.0,0.0,0.0,0.0,0.0,-0.9521,-0.9522,-0.9613,-0.9676,-0.9616,-0.9707,-0.9722,0.0,0.0,0.0,0.0,0.0,0.0,0.0,0.0,0.0,0.0,0.0,0.0,0.0,0.0,0.0,0.0,0.0,0.0,0.0,0.0,0.0,0.0,0.0,0.0,0.0,0.0,0.0,0.0,0.0,0.0,0.0,0.0,0.0,0.0,0.0,0.0,0.0,0.0,0.0,0.0,0.0,0.0,0.0,0.0,0.0,0.0,0.0,0.0,0.0,0.0,0.0,0.0,0.0,0.0,0.0,0.0,0.0,0.0,0.0,0.0,0.0,0.0,0.0,0.0,0.0,0.0,0.0,0.0,0.0,0.0,0.0,0.0,0.0,0.0,0.0,0.0,0.0,0.0,0.0,0.0,0.0,0.0,0.0,0.0,0.0,0.0,0.0,0.0,0.0,0.0,0.0,0.0,0.0,0.0,0.0,0.0,0.0,0.0,0.0,0.0,0.0,0.0,0.0,0.0,0.0,0.0,0.0,0.0,0.0,-1.0051,-1.0428,-1.0466,-1.0105,-1.0107,-0.9953,0.0,0.0,0.0,0.0,0.0,0.0,0.0,0.0,0.0,0.0,0.0,0.0,0.0,0.0,0.0,0.0,0.0,0.0,0.0,0.0,0.0,0.0,0.0,0.0,0.0,0.0,0.0,0.0,0.0,0.0,0.0,0.0,0.0,0.0,0.0,0.0,0.0,0.0,0.0,0.0,0.0,0.0,0.0,0.0,0.0,0.0,0.0,0.0,0.0,0.0,0.0,0.0,0.0,0.0,0.0,0.0,0.0,0.0,0.0,0.0,0.0,0.0,0.0,0.0,0.0,0.0,0.0,0.0,0.0,0.0,0.0,0.0,0.0,0.0,0.0,0.0,0.0,0.0,0.0,0.0,0.0,0.0,0.0,0.0,0.0,0.0,0.0,0.0,0.0,0.0,0.0,0.0,0.0,0.0,0.0,0.0,0.0,0.0,0.0,0.0,0.0,0.0,0.0,0.0,0.0,0.0,0.0,0.0,0.0,-1.1186,-1.1123,-1.0942,-1.0591,-1.0399,-1.0163,-0.9841,0.0,0.0,0.0,0.0,0.0,0.0,0.0,0.0,0.0,0.0,0.0,0.0,0.0,0.0,0.0,0.0,0.0,0.0,0.0,0.0,0.0,0.0,0.0,0.0,0.0,0.0,0.0,0.0,0.0,0.0,0.0,0.0,0.0,0.0,0.0,0.0,0.0,0.0,0.0,0.0,0.0,0.0,0.0,0.0,0.0,0.0,0.0,0.0,0.0,0.0,0.0,0.0,0.0,0.0,0.0,0.0,0.0,0.0,0.0,0.0,0.0,0.0,0.0,0.0,0.0,0.0,0.0,0.0,0.0,0.0,0.0,0.0,0.0,0.0,0.0,0.0,0.0,0.0,0.0,0.0,0.0,0.0,0.0,0.0,0.0,0.0,0.0,0.0,0.0,0.0,0.0,0.0,0.0,0.0,0.0,0.0,0.0,0.0,0.0,0.0,0.0,0.0,0.0,0.0,0.0,0.0,0.0,0.0,-1.268,-1.1724,-1.1247,-1.1198,-1.0702,-1.0351,0.0,0.0,0.0,0.0,0.0,0.0,0.0,0.0,0.0,0.0,0.0,0.0,0.0,0.0,0.0,0.0,0.0,0.0,0.0,0.0,0.0,0.0,0.0,0.0,0.0,0.0,0.0,0.0,0.0,0.0,0.0,0.0,0.0,0.0,0.0,0.0,0.0,0.0,0.0,0.0,0.0,0.0,0.0,0.0,0.0,0.0,0.0,0.0,0.0,0.0,0.0,0.0,0.0,0.0,0.0,0.0,0.0,0.0,0.0,0.0,0.0,0.0,0.0,0.0,0.0,0.0,0.0,0.0,0.0,0.0,0.0,0.0,0.0,0.0,0.0,0.0,0.0,0.0,0.0,0.0,0.0,0.0,0.0,0.0,0.0,0.0,0.0,0.0,0.0,0.0,0.0,0.0,0.0,0.0,0.0,0.0,0.0,0.0,0.0,0.0,0.0,0.0,0.0,0.0,0.0,0.0,0.0,0.0,0.0,-1.2656,-1.2818,-1.268,-1.2282,-1.1764,-1.1111,0.0,0.0,0.0,0.0,0.0,0.0,0.0,0.0,0.0,0.0,0.0,0.0,0.0,0.0,0.0,0.0,0.0,0.0,0.0,0.0,0.0,0.0,0.0,0.0,0.0,0.0,0.0,0.0,0.0,0.0,0.0,0.0,0.0,0.0,0.0,0.0,0.0,0.0,0.0,0.0,0.0,0.0,0.0,0.0,0.0,0.0,0.0,0.0,0.0,0.0,0.0,0.0,0.0,0.0,0.0,0.0,0.0,0.0,0.0,0.0,0.0,0.0,0.0,0.0,0.0,0.0,0.0,0.0,0.0,0.0,0.0,0.0,0.0,0.0,0.0,0.0,0.0,0.0,0.0,0.0,0.0,0.0,0.0,0.0,0.0,0.0,0.0,0.0,0.0,0.0,0.0,0.0,0.0,0.0,0.0,0.0,0.0,0.0,0.0,0.0,0.0,0.0,0.0,0.0,0.0,0.0,0.0,0.0,-1.2607,-1.336,-1.3674,-1.3775,-1.3684,-1.2752,-1.1724,0.0,0.0,0.0,0.0,0.0,0.0,0.0,0.0,0.0,0.0,0.0,0.0,0.0,0.0,0.0,0.0,0.0,0.0,0.0,0.0,0.0,0.0,0.0,0.0,0.0,0.0,0.0,0.0,0.0,0.0,0.0,0.0,0.0,0.0,0.0,0.0,0.0,0.0,0.0,0.0,0.0,0.0,0.0,0.0,0.0,0.0,0.0,0.0,0.0,0.0,0.0,0.0,0.0,0.0,0.0,0.0,0.0,0.0,0.0,0.0,0.0,0.0,0.0,0.0,0.0,0.0,0.0,0.0,0.0,0.0,0.0,0.0,0.0,0.0,0.0,0.0,0.0,0.0,0.0,0.0,0.0,0.0,0.0,0.0,0.0,0.0,0.0,0.0,0.0,0.0,0.0,0.0,0.0,0.0,0.0,0.0,0.0,0.0,0.0,0.0,0.0,0.0,0.0,0.0,0.0,0.0,0.0,0.0,-1.3276,-1.4253,-1.4349,-1.4582,-1.4941,-1.3564,-1.2306,0.0,0.0,0.0,0.0,0.0,0.0,0.0,0.0,0.0,0.0,0.0,0.0,0.0,0.0,0.0,0.0,0.0,0.0,0.0,0.0,0.0,0.0,0.0,0.0,0.0,0.0,0.0,0.0,0.0,0.0,0.0,0.0,0.0,0.0,0.0,0.0,0.0,0.0,0.0,0.0,0.0,0.0,0.0,0.0,0.0,0.0,0.0,0.0,0.0,0.0,0.0,0.0,0.0,0.0,0.0,0.0,0.0,0.0,0.0,0.0,0.0,0.0,0.0,0.0,0.0,0.0,0.0,0.0,0.0,0.0,0.0,0.0,0.0,0.0,0.0,0.0,0.0,0.0,0.0,0.0,0.0,0.0,0.0,0.0,0.0,0.0,0.0,0.0,0.0,0.0,0.0,0.0,0.0,0.0,0.0,0.0,0.0,0.0,0.0,0.0,0.0,0.0,0.0,0.0,0.0,0.0,0.0,0.0,-1.3638,-1.4277,-1.4658,-1.4893,-1.4989,-1.3912,-1.2968,0.0,0.0,0.0,0.0,0.0,0.0,0.0,0.0,0.0,0.0,0.0,0.0,0.0,0.0,0.0,0.0,0.0,0.0,0.0,0.0,0.0,0.0,0.0,0.0,0.0,0.0,0.0,0.0,0.0,0.0,0.0,0.0,0.0,0.0,0.0,0.0,0.0,0.0,0.0,0.0,0.0,0.0,0.0,0.0,0.0,0.0,0.0,0.0,-0.7437,0.0,0.0,0.0,0.0,0.0,0.0,0.0,0.0,0.0,0.0,0.0,0.0,0.0,0.0,0.0,0.0,0.0,0.0,0.0,0.0,0.0,0.0,0.0,0.0,0.0,0.0,0.0,0.0,0.0,0.0,0.0,0.0,0.0,0.0,0.0,0.0,0.0,0.0,0.0,0.0,0.0,0.0,0.0,0.0,0.0,0.0,0.0,0.0,0.0,0.0,0.0,0.0,0.0,0.0,0.0,0.0,0.0,0.0,0.0,-1.4132,-1.4622,-1.513,-1.5372,-1.5336,-1.4333,-1.3392,0.0,0.0,0.0,0.0,0.0,0.0,0.0,0.0,0.0,0.0,0.0,0.0,0.0,0.0,0.0,0.0,0.0,0.0,0.0,0.0,0.0,0.0,0.0,0.0,0.0,0.0,0.0,0.0,0.0,0.0,0.0,0.0,0.0,0.0,0.0,0.0,0.0,0.0,0.0,0.0,0.0,0.0,0.0,0.0,0.0,0.0,0.0,0.0,0.0,0.0,0.0,0.0,0.0,0.0,0.0,0.0,0.0,0.0,0.0,0.0,0.0,0.0,0.0,0.0,0.0,0.0,0.0,0.0,0.0,0.0,0.0,0.0,0.0,0.0,0.0,0.0,0.0,0.0,0.0,0.0,0.0,0.0,0.0,0.0,0.0,0.0,0.0,0.0,0.0,0.0,0.0,0.0,0.0,0.0,0.0,0.0,0.0,0.0,0.0,0.0,0.0,0.0,0.0,0.0,0.0,0.0,0.0,-1.371,-1.4486,-1.4881,-1.548,-1.5756,-1.565,-1.4633,-1.3591,-1.2597,0.0,0.0,0.0,0.0,0.0,0.0,0.0,0.0,0.0,0.0,0.0,0.0,0.0,0.0,0.0,0.0,0.0,0.0,0.0,0.0,0.0,0.0,0.0,0.0,0.0,0.0,0.0,0.0,0.0,0.0,0.0,0.0,0.0,0.0,0.0,0.0,0.0,0.0,-0.6154,-0.7126,0.0,0.0,0.0,0.0,0.0,0.0,0.0,0.0,-0.8149,0.0,0.0,0.0,0.0,0.0,0.0,0.0,0.0,0.0,0.0,0.0,0.0,0.0,0.0,0.0,0.0,0.0,0.0,0.0,0.0,0.0,0.0,0.0,0.0,0.0,0.0,0.0,0.0,0.0,0.0,0.0,0.0,0.0,0.0,0.0,0.0,0.0,0.0,0.0,0.0,0.0,0.0,0.0,0.0,0.0,0.0,0.0,0.0,0.0,0.0,0.0,0.0,0.0,0.0,0.0,0.0,-1.2029,-1.3529,-1.4337,-1.4434,-1.5246,-1.5501,-1.5038,-1.434,-1.3607,-1.2899,0.0,0.0,0.0,0.0,0.0,0.0,0.0,0.0,0.0,0.0,0.0,0.0,0.0,0.0,0.0,0.0,0.0,0.0,0.0,0.0,0.0,0.0,0.0,0.0,0.0,0.0,0.0,0.0,0.0,0.0,0.0,0.0,0.0,0.0,0.0,0.0,0.0,0.0,0.0,-0.791,-0.8428,0.0,0.0,0.0,0.0,0.0,0.0,0.0,0.0,-0.8652,0.0,0.0,0.0,0.0,0.0,0.0,0.0,0.0,0.0,0.0,0.0,0.0,0.0,0.0,0.0,0.0,0.0,0.0,0.0,0.0,0.0,0.0,0.0,0.0,0.0,0.0,0.0,0.0,0.0,0.0,0.0,0.0,0.0,0.0,0.0,0.0,0.0,0.0,0.0,0.0,0.0,0.0,0.0,0.0,0.0,0.0,0.0,0.0,0.0,0.0,0.0,0.0,0.0,0.0,0.0,-1.3107,-1.3903,-1.4534,-1.5025,-1.5475,-1.5421,-1.4801,-1.4178,-1.3563,0.0,0.0,0.0,0.0,0.0,0.0,0.0,0.0,0.0,0.0,0.0,0.0,0.0,0.0,0.0,0.0,0.0,0.0,0.0,0.0,0.0,0.0,0.0,0.0,0.0,0.0,0.0,0.0,0.0,0.0,0.0,0.0,0.0,0.0,0.0,0.0,0.0,0.0,0.0,0.0,-0.8607,-0.9102,-0.9279,0.0,0.0,0.0,0.0,0.0,0.0,-0.915,-0.8945,0.0,0.0,0.0,0.0,0.0,0.0,0.0,0.0,0.0,0.0,0.0,0.0,0.0,0.0,0.0,0.0,0.0,0.0,0.0,0.0,0.0,0.0,0.0,0.0,0.0,0.0,0.0,0.0,0.0,0.0,0.0,0.0,0.0,0.0,0.0,0.0,0.0,0.0,0.0,0.0,0.0,0.0,0.0,0.0,0.0,0.0,0.0,0.0,0.0,0.0,0.0,0.0,0.0,0.0,0.0,-1.4016,-1.4241,-1.4698,-1.5513,-1.5611,-1.5296,-1.4542,-1.4029,-1.3468,0.0,0.0,0.0,0.0,0.0,0.0,0.0,0.0,0.0,0.0,0.0,0.0,0.0,0.0,0.0,0.0,0.0,0.0,0.0,0.0,0.0,0.0,0.0,0.0,0.0,0.0,0.0,0.0,0.0,0.0,0.0,0.0,0.0,0.0,0.0,0.0,0.0,0.0,0.0,0.0,0.0,-0.9776,-0.9864,-1.0264,0.0,0.0,0.0,0.0,-1.0001,-0.9668,0.0,0.0,0.0,0.0,0.0,0.0,0.0,0.0,0.0,0.0,0.0,0.0,0.0,0.0,0.0,0.0,0.0,0.0,0.0,0.0,0.0,0.0,0.0,0.0,0.0,0.0,0.0,0.0,0.0,0.0,0.0,0.0,0.0,0.0,0.0,0.0,0.0,0.0,0.0,0.0,0.0,0.0,0.0,0.0,0.0,0.0,0.0,0.0,0.0,0.0,0.0,0.0,0.0,0.0,0.0,0.0,-1.3385,-1.3997,-1.4517,-1.4991,-1.5355,-1.501,-1.3936,-1.3709,-1.3165,0.0,0.0,0.0,0.0,0.0,0.0,0.0,0.0,0.0,0.0,0.0,0.0,0.0,0.0,0.0,0.0,0.0,0.0,0.0,0.0,0.0,0.0,0.0,0.0,0.0,0.0,0.0,0.0,0.0,0.0,0.0,0.0,0.0,0.0,0.0,0.0,0.0,0.0,0.0,0.0,0.0,-1.0352,-1.0693,-1.1154,-1.1449,0.0,0.0,0.0,-1.1359,-1.0977,0.0,0.0,0.0,0.0,0.0,0.0,0.0,0.0,0.0,0.0,0.0,0.0,0.0,0.0,0.0,0.0,0.0,0.0,0.0,0.0,0.0,0.0,0.0,0.0,0.0,0.0,0.0,0.0,0.0,0.0,0.0,0.0,0.0,0.0,0.0,0.0,0.0,0.0,0.0,0.0,0.0,0.0,0.0,0.0,0.0,0.0,0.0,0.0,0.0,0.0,0.0,0.0,0.0,0.0,0.0,-1.2065,-1.36,-1.4215,-1.4728,-1.5117,-1.5308,-1.4952,-1.4052,-1.3712,-1.32,0.0,0.0,0.0,0.0,0.0,0.0,0.0,0.0,0.0,0.0,0.0,0.0,0.0,0.0,0.0,0.0,0.0,0.0,0.0,0.0,0.0,0.0,0.0,0.0,0.0,0.0,0.0,0.0,0.0,0.0,0.0,0.0,0.0,0.0,0.0,0.0,0.0,0.0,0.0,0.0,0.0,0.0,-1.1232,-1.1467,0.0,0.0,0.0,-1.1596,-1.1596,0.0,0.0,0.0,0.0,0.0,0.0,0.0,0.0,0.0,0.0,0.0,0.0,0.0,0.0,0.0,0.0,0.0,0.0,0.0,0.0,0.0,0.0,0.0,0.0,0.0,0.0,0.0,0.0,0.0,0.0,0.0,0.0,0.0,0.0,0.0,0.0,0.0,0.0,0.0,0.0,0.0,0.0,0.0,0.0,0.0,0.0,0.0,0.0,0.0,0.0,0.0,0.0,0.0,0.0,0.0,0.0,0.0,-1.3845,-1.4425,-1.4886,-1.5289,-1.5267,-1.4912,-1.4211,-1.3733,0.0,0.0,0.0,0.0,0.0,0.0,0.0,0.0,0.0,0.0,0.0,0.0,0.0,0.0,0.0,0.0,0.0,0.0,0.0,0.0,0.0,0.0,0.0,0.0,0.0,0.0,0.0,-0.5801,0.0,0.0,0.0,0.0,0.0,0.0,0.0,0.0,0.0,0.0,0.0,0.0,0.0,0.0,-1.123,-1.1682,-1.1839,-1.1939,0.0,0.0,-1.1939,-1.193,-1.1523,-1.118,0.0,0.0,0.0,0.0,0.0,0.0,0.0,0.0,0.0,0.0,0.0,0.0,0.0,0.0,0.0,0.0,0.0,0.0,0.0,0.0,0.0,0.0,0.0,0.0,0.0,0.0,0.0,0.0,0.0,0.0,0.0,0.0,0.0,0.0,0.0,0.0,0.0,0.0,0.0,0.0,0.0,0.0,0.0,0.0,0.0,0.0,0.0,0.0,0.0,0.0,0.0,0.0,0.0,0.0,0.0,-1.3761,-1.4392,-1.4898,-1.5289,-1.5187,-1.4834,-1.4222,-1.3618,-1.3123,0.0,0.0,0.0,0.0,0.0,0.0,0.0,0.0,0.0,0.0,0.0,0.0,0.0,0.0,0.0,0.0,0.0,0.0,0.0,0.0,0.0,0.0,0.0,0.0,0.0,0.0,0.0,0.0,0.0,0.0,0.0,0.0,0.0,0.0,0.0,0.0,0.0,0.0,0.0,0.0,0.0,-1.1702,-1.2106,-1.2529,-1.2817,0.0,0.0,-1.2817,-1.2817,-1.2398,-1.1979,-1.1604,0.0,0.0,0.0,0.0,0.0,0.0,0.0,0.0,0.0,0.0,0.0,0.0,0.0,0.0,0.0,0.0,0.0,0.0,0.0,0.0,0.0,0.0,0.0,0.0,0.0,0.0,0.0,0.0,0.0,0.0,0.0,0.0,0.0,0.0,0.0,0.0,0.0,0.0,0.0,0.0,0.0,0.0,0.0,0.0,0.0,0.0,0.0,0.0,0.0,0.0,0.0,0.0,0.0,-1.267,-1.3543,-1.4354,-1.4835,-1.4971,-1.4937,-1.4767,-1.4462,-1.3626,-1.3114,0.0,0.0,0.0,0.0,0.0,0.0,0.0,0.0,0.0,0.0,0.0,0.0,0.0,0.0,0.0,0.0,0.0,0.0,0.0,0.0,0.0,0.0,0.0,0.0,0.0,0.0,0.0,0.0,-0.666,-0.6904,-0.708,0.0,0.0,0.0,0.0,0.0,0.0,0.0,0.0,0.0,0.0,-1.2106,-1.2568,-1.2773,0.0,0.0,-1.2915,-1.2915,-1.2915,-1.252,-1.2145,-1.1992,-1.1611,0.0,0.0,0.0,0.0,0.0,0.0,0.0,0.0,0.0,0.0,0.0,0.0,0.0,0.0,0.0,0.0,0.0,0.0,0.0,0.0,0.0,0.0,0.0,0.0,0.0,0.0,0.0,0.0,0.0,0.0,0.0,0.0,0.0,0.0,0.0,0.0,0.0,0.0,0.0,0.0,0.0,0.0,0.0,0.0,0.0,0.0,0.0,0.0,0.0,0.0,0.0,0.0,-1.2921,-1.341,-1.4317,-1.4799,-1.4799,-1.4753,-1.4707,-1.4593,-1.374,-1.3233,0.0,0.0,0.0,0.0,0.0,0.0,0.0,0.0,0.0,0.0,0.0,0.0,0.0,0.0,0.0,0.0,0.0,0.0,0.0,0.0,0.0,0.0,0.0,0.0,0.0,0.0,0.0,0.0,-0.7086,-0.7223,-0.7119,0.0,0.0,0.0,0.0,0.0,0.0,0.0,0.0,0.0,0.0,-1.2369,-1.2846,-1.2915,-1.2915,-1.2915,-1.2915,-1.2915,-1.2915,-1.2617,-1.2369,-1.2233,0.0,0.0,0.0,0.0,0.0,0.0,0.0,0.0,0.0,0.0,0.0,0.0,0.0,0.0,0.0,0.0,0.0,0.0,0.0,0.0,0.0,0.0,0.0,0.0,0.0,0.0,0.0,0.0,0.0,0.0,0.0,0.0,0.0,0.0,0.0,0.0,0.0,0.0,0.0,0.0,0.0,0.0,0.0,0.0,0.0,0.0,0.0,0.0,0.0,0.0,0.0,0.0,0.0,0.0,-1.3422,-1.4317,-1.4811,-1.4799,-1.4673,-1.4604,-1.4569,-1.4015,-1.351,-1.3077,0.0,0.0,0.0,0.0,0.0,0.0,0.0,0.0,0.0,0.0,0.0,0.0,0.0,0.0,0.0,0.0,0.0,0.0,0.0,0.0,0.0,0.0,0.0,0.0,0.0,0.0,-0.7647,-0.7676,-0.7544,0.0,0.0,0.0,0.0,0.0,0.0,0.0,0.0,0.0,0.0,-1.2203,-1.2369,-1.2846,-1.2915,-1.2915,-1.2925,-1.2925,-1.2915,-1.2925,-1.2891,-1.2725,0.0,0.0,0.0,0.0,0.0,0.0,0.0,0.0,0.0,0.0,0.0,0.0,0.0,0.0,0.0,0.0,0.0,0.0,0.0,0.0,0.0,0.0,0.0,0.0,0.0,0.0,0.0,-1.2096,-1.2074,0.0,0.0,0.0,0.0,0.0,0.0,0.0,0.0,0.0,0.0,0.0,-1.3758,-1.3758,0.0,0.0,0.0,0.0,0.0,0.0,0.0,0.0,0.0,0.0,0.0,0.0,-1.3107,-1.3299,-1.4127,-1.4523,-1.4534,-1.45,-1.4477,-1.4454,-1.3959,-1.3246,-1.2268,0.0,0.0,0.0,0.0,0.0,0.0,0.0,0.0,0.0,0.0,0.0,0.0,0.0,0.0,0.0,0.0,0.0,0.0,0.0,0.0,0.0,0.0,0.0,0.0,0.0,-0.7695,0.0,0.0,0.0,0.0,0.0,0.0,0.0,0.0,0.0,0.0,0.0,-1.1882,-1.2164,-1.2457,-1.2725,-1.2886,-1.2915,-1.3003,0.0,0.0,0.0,0.0,0.0,0.0,0.0,0.0,0.0,0.0,0.0,0.0,0.0,0.0,-1.1667,-1.1131,-1.0866,-1.0723,-1.0883,0.0,0.0,0.0,0.0,0.0,0.0,0.0,0.0,0.0,0.0,0.0,0.0,0.0,0.0,0.0,0.0,-1.3548,0.0,0.0,0.0,0.0,0.0,0.0,0.0,0.0,-1.4389,-1.4739,-1.5076,-1.4907,-1.4907,0.0,-1.4727,-1.3926,0.0,0.0,0.0,0.0,0.0,0.0,0.0,0.0,-1.3437,-1.3439,-1.4059,-1.4407,-1.4407,-1.4407,-1.4407,-1.4396,-1.3936,-1.3334,-1.2505,-1.1864,-1.1344,0.0,0.0,0.0,0.0,0.0,0.0,0.0,0.0,0.0,0.0,0.0,0.0,0.0,0.0,0.0,0.0,0.0,0.0,0.0,0.0,0.0,0.0,0.0,-0.7944,0.0,0.0,0.0,0.0,0.0,0.0,0.0,0.0,0.0,-1.1144,-1.1777,-1.2262,-1.2418,-1.2695,-1.2915,-1.2915,0.0,0.0,0.0,0.0,0.0,0.0,0.0,-1.4175,-1.3925,-1.406,-1.4204,-1.4114,-1.4114,-1.399,-1.3665,0.0,0.0,-1.1682,-1.1305,-1.1205,-1.149,-1.1536,-1.1559,-1.1601,-1.1613,-1.1662,0.0,0.0,0.0,0.0,0.0,0.0,0.0,0.0,-1.5923,-1.585,0.0,-1.5335,0.0,0.0,0.0,0.0,0.0,0.0,0.0,0.0,-1.5109,-1.5624,-1.6535,-1.609,-1.6126,-1.6547,-1.5586,-1.5075,-1.4919,-1.3852,0.0,0.0,0.0,0.0,0.0,0.0,-1.3927,-1.3839,-1.4201,-1.443,-1.443,-1.4407,-1.443,-1.4419,-1.3959,-1.3729,-1.3773,-1.2968,-1.2342,-1.1933,-1.1531,0.0,0.0,0.0,0.0,0.0,0.0,0.0,0.0,0.0,0.0,0.0,0.0,0.0,0.0,0.0,0.0,0.0,0.0,0.0,0.0,-0.8154,0.0,0.0,0.0,0.0,0.0,0.0,0.0,0.0,0.0,0.0,-1.1726,-1.2015,-1.2412,-1.2866,0.0,0.0,0.0,0.0,-1.3724,-1.3769,-1.4262,-1.4629,-1.4629,-1.4649,-1.4659,-1.4639,0.0,0.0,-1.418,-1.4153,-1.4163,-1.4133,-1.3899,-1.3438,-1.2535,-1.1959,-1.181,-1.2523,-1.2652,-1.2836,-1.3185,-1.3121,-1.3176,-1.8228,0.0,0.0,0.0,0.0,-1.7013,-1.7074,-1.7087,-1.7246,-1.7222,-1.7062,-1.6612,0.0,0.0,0.0,0.0,0.0,0.0,-1.6233,-1.6715,-1.6715,-1.6942,-1.7315,-1.7157,-1.7205,-1.7434,-1.7058,-1.6843,-1.6783,-1.5917,-1.4771,-1.34,0.0,0.0,0.0,0.0,-1.4123,-1.4125,-1.4496,-1.4684,-1.4707,-1.4684,-1.4684,-1.4696,-1.4183,-1.3971,-1.4069,-1.3523,-1.3018,-1.2636,-1.2146,0.0,0.0,0.0,0.0,0.0,0.0,0.0,0.0,0.0,0.0,0.0,0.0,0.0,0.0,0.0,0.0,0.0,0.0,0.0,-0.8613,-0.8842,-0.908,0.0,0.0,0.0,0.0,0.0,0.0,0.0,0.0,0.0,-1.2766,-1.2845,-1.3007,0.0,0.0,-1.359,-1.3915,-1.4116,-1.4347,-1.4733,0.0,0.0,0.0,-1.5622,-1.5679,-1.5308,-1.5282,-1.5305,-1.5267,-1.5144,-1.4913,-1.4658,-1.4452,-1.4104,-1.3448,-1.304,-1.2891,-1.3093,-1.3148,-1.3176,-1.3259,-1.3296,-1.3305,-1.9986,-1.9064,-1.8496,-1.8263,-1.8287,-1.8519,-1.8579,-1.8604,-1.8823,-1.8677,-1.8251,-1.7885,-1.7472,-1.7047,-1.6383,0.0,0.0,0.0,-1.7087,-1.7387,-1.746,-1.7642,-1.791,-1.7812,-1.7909,-1.8178,-1.792,-1.775,-1.7666,-1.7146,-1.6312,-1.5163,0.0,0.0,-1.3925,-1.4266,-1.4461,-1.444,-1.4676,-1.4799,-1.4799,-1.4799,-1.4799,-1.4799,-1.4474,-1.4373,-1.4472,-1.4017,-1.3591,-1.3199,-1.2693,-1.1865,0.0,0.0,0.0,0.0,0.0,0.0,0.0,0.0,0.0,0.0,0.0,-0.8223,0.0,0.0,0.0,0.0,-0.8579,-0.8931,-0.9358,-0.9609,0.0,0.0,0.0,0.0,0.0,0.0,0.0,-1.2324,-1.2761,-1.3222,-1.3616,-1.377,-1.3907,-1.4118,-1.4148,-1.4248,-1.4519,0.0,-1.5046,-1.5417,-1.5832,-1.615,-1.6299,-1.6465,-1.6419,-1.5917,-1.5855,-1.5807,-1.5701,-1.5546,-1.5322,-1.5107,-1.4925,-1.4734,-1.4363,-1.4035,-1.3792,-1.3589,-1.3562,-1.358,-1.3727,-1.3782,-1.3772,-2.126,-2.1117,-1.9825,-1.9257,-1.9221,-1.9703,-1.9896,-1.9944,-2.0422,-2.0113,-1.9185,-1.9112,-1.8496,-1.7508,-1.752,0.0,0.0,-1.7544,-1.758,-1.7556,-1.7691,-1.8019,-1.8496,-1.8288,-1.8447,-1.8946,-1.8422,-1.8113,-1.797,-1.7775,-1.7557,-1.7277,-1.6091,-1.5173,-1.4636,-1.4903,-1.5028,-1.4946,-1.4912,-1.4867,-1.4822,-1.4822,-1.4834,-1.4822,-1.4822,-1.4846,-1.4903,-1.4495,-1.4083,-1.3673,-1.321,-1.2279,-1.0837,0.0,0.0,0.0,0.0,0.0,0.0,0.0,0.0,0.0,0.0,0.0,0.0,0.0,0.0,0.0,-0.9443,0.0,-1.015,-1.0527,0.0,0.0,0.0,-1.2209,-1.225,-1.2805,-1.312,-1.2983,0.0,0.0,0.0,0.0,-1.5085,-1.5011,-1.4938,-1.4901,-1.4932,-1.5392,-1.5814,-1.5934,-1.6565,-1.7095,-1.7157,-1.7095,-1.6842,-1.6475,-1.6278,-1.6038,-1.5759,-1.5575,-1.5449,-1.5459,-1.5361,-1.5282,-1.5282,-1.5056,-1.4697,-1.4237,-1.4012,-1.4085,-1.4423,-1.4524,-1.4533,-2.2494,-2.2314,-2.1955,-2.1349,-2.0615,-2.0725,-2.0786,-2.0799,-2.0921,-2.0835,-2.0566,-2.0122,-1.9328,-1.8338,-1.8741,-1.8704,-1.835,-1.8753,-1.8937,-1.8924,-1.9078,-1.9306,-1.9623,-1.9661,-1.9837,-2.0127,-1.9837,-1.9611,-1.9472,-1.8834,-1.8425,-1.8227,-1.7484,-1.6812,-1.6252,-1.6308,-1.6293,-1.6145,-1.5816,-1.5428,-1.5051,-1.5017,-1.5028,-1.5028,-1.5017,-1.5017,-1.5051,-1.4948,-1.4662,-1.4234,-1.3707,-1.2923,-1.1796,-1.1354,0.0,0.0,0.0,0.0,0.0,0.0,0.0,0.0,0.0,-0.967,-0.9476,0.0,-0.9768,0.0,-1.071,-1.1292,-1.1706,-1.1934,0.0,0.0,-1.2997,-1.3309,-1.3662,-1.4226,-1.4551,-1.4419,-1.4867,-1.5304,-1.56,-1.5898,-1.6246,-1.6617,-1.6104,-1.5727,-1.598,-1.6227,-1.6385,-1.6497,-1.689,-1.7267,-1.7423,-1.734,-1.7099,-1.6761,-1.6477,-1.622,-1.5914,-1.573,-1.5713,-1.589,-1.5918,-1.5984,-1.6121,-1.6136,-1.5964,-1.5666,-1.4963,-1.4478,-1.4864,-1.4964,-1.5047,-2.3851,-2.3527,-2.3484,-2.2995,-2.2176,-2.1939,-2.1851,-2.1897,-2.1897,-2.1791,-2.1604,-2.1017,-2.0461,-1.9966,-2.02,-2.0163,-1.9915,-2.02,-2.0337,-2.0325,-2.0288,-2.0345,-2.0488,-2.0475,-2.0535,-2.0671,-2.0548,-2.0397,-2.0232,-1.9687,-1.9359,-1.922,-1.8834,-1.8411,-1.7958,-1.7343,-1.691,-1.6687,-1.6384,-1.5956,-1.5487,-1.5441,-1.5372,-1.5199,-1.5187,-1.521,-1.5255,-1.5289,-1.5056,-1.4568,-1.4255,-1.3619,-1.2565,-1.223,-1.1814,0.0,0.0,0.0,0.0,0.0,0.0,0.0,0.0,0.0,0.0,0.0,-1.1353,0.0,-1.2003,0.0,-1.2979,-1.2979,-1.3127,-1.3596,-1.3742,-1.4017,-1.4551,-1.4954,-1.5255,-1.54,-1.5807,-1.6173,-1.6396,-1.6683,-1.7033,-1.7429,-1.7027,-1.6758,-1.6866,-1.6948,-1.7022,-1.7117,-1.7368,-1.7562,-1.759,-1.7723,-1.7641,-1.7223,-1.7103,-1.6974,-1.6557,-1.6377,-1.6296,-1.6339,-1.6357,-1.6404,-1.6544,-1.6538,-1.6465,-1.6281,-1.5757,-1.5374,-1.5488,-1.5503,-1.5577,-2.5119,-2.4687,-2.4687,-2.4373,-2.3846,-2.324,-2.2983,-2.3,-2.3,-2.2747,-2.2342,-2.1867,-2.167,-2.1675,-2.1622,-2.1582,-2.161,-2.161,-2.161,-2.1612,-2.1386,-2.1301,-2.1341,-2.1116,-2.0989,-2.1038,-2.0934,-2.0795,-2.0648,-2.041,-2.022,-2.008,-1.9952,-1.9759,-1.9462,-1.8249,-1.7396,-1.6917,-1.6815,-1.651,-1.6063,-1.6051,-1.5845,-1.544,-1.5417,-1.5438,-1.5491,-1.5491,-1.5279,-1.4834,-1.474,-1.4252,-1.3275,-1.3171,-1.2907,0.0,-1.1912,0.0,0.0,0.0,0.0,0.0,0.0,0.0,0.0,-1.3044,-1.3333,-1.3323,-1.3295,-1.3474,-1.405,-1.3894,-1.3955,-1.4412,-1.4466,-1.4688,-1.52,-1.5457,-1.5731,-1.6187,-1.6639,-1.694,-1.6951,-1.7295,-1.7606,-1.7739,-1.7744,-1.775,-1.7751,-1.7606,-1.7534,-1.7684,-1.7867,-1.7991,-1.8019,-1.8243,-1.8286,-1.7766,-1.7761,-1.7843,-1.7306,-1.7088,-1.6981,-1.685,-1.6816,-1.6814,-1.6843,-1.6786,-1.6722,-1.6761,-1.6584,-1.6376,-1.6186,-1.6113,-1.6057,-2.5839,-2.5654,-2.5623,-2.5589,-2.5427,-2.4819,-2.4142,-2.3467,-2.3467,-2.3191,-2.2697,-2.261,-2.2388,-2.2115,-2.2061,-2.213,-2.2252,-2.2226,-2.2212,-2.2239,-2.2297,-2.2472,-2.271,-2.2249,-2.2117,-2.2217,-2.1605,-2.118,-2.0909,-2.0759,-2.061,-2.0485,-2.0459,-2.0308,0.0,0.0,0.0,0.0,-1.7592,-1.7357,-1.6913,-1.6854,-1.6643,-1.6127,-1.6115,0.0,-1.5514,-1.5491,-1.5444,-1.5338,-1.4928,0.0,0.0,0.0,0.0,0.0,0.0,0.0,0.0,0.0,0.0,0.0,-1.4222,-1.3964,-1.3524,-1.3893,-1.4127,-1.4042,-1.4338,-1.4721,-1.5157,-1.5155,-1.532,-1.5838,-1.5955,-1.6038,-1.614,-1.6641,-1.7011,-1.6983,-1.7386,-1.7664,-1.7555,-1.7688,-1.7881,-1.8036,-1.8177,-1.8487,-1.8948,-1.8271,-1.7656,-1.7601,-1.8182,-1.8634,-1.8883,-1.8996,-1.8825,-1.8266,-1.8075,-1.8007,-1.7584,-1.7324,-1.7266,-1.7375,-1.7354,-1.7373,-1.7676,-1.774,-1.7648,-1.772,-1.7677,-1.7456,-1.6883,-1.6708,-1.6803,-2.6887,0.0,-2.6546,-2.6387,0.0,0.0,-2.5362,-2.4883,-2.4233,-2.3858,-2.3696,-2.3683,-2.3583,-2.3392,-2.3392,-2.342,-2.349,-2.349,-2.3503,-2.349,-2.3391,-2.342,-2.3568,-2.3167,-2.2871,-2.2619,-2.2207,-2.1746,-2.1315,-2.108,-2.097,-2.0896,-2.086,-2.0673,-2.0397,-2.008,-1.9402,-1.8408,-1.8277,-1.7951,-1.7468,-1.7433,-1.7093,-1.6385,0.0,0.0,0.0,0.0,0.0,0.0,0.0,0.0,0.0,0.0,0.0,-1.4747,-1.449,-1.4455,-1.4712,-1.449,-1.4594,-1.5144,-1.5448,-1.5321,-1.4654,-1.5065,-1.5289,-1.521,-1.5591,-1.5922,-1.6112,-1.6024,-1.6065,-1.6302,-1.6361,-1.6452,-1.6763,-1.7091,-1.7443,-1.7748,-1.7978,-1.8139,-1.8139,-1.8182,-1.8379,-1.8693,-1.8818,-1.9104,-1.9594,-1.9088,-1.857,-1.8669,-1.8994,-1.928,-1.9324,-1.9456,-1.9377,-1.8946,-1.8858,-1.8712,-1.836,-1.8134,-1.7999,-1.7959,-1.7876,-1.7908,-1.7973,-1.8008,-1.8008,-1.8008,-1.8008,-1.7891,-1.7499,-1.7384,-1.734,-2.787,-2.7447,-2.7447,-2.718,-2.6707,-2.6587,-2.648,-2.635,0.0,0.0,0.0,-2.4673,-2.4649,-2.4677,-2.4706,-2.4734,-2.4763,-2.4763,-2.4763,-2.475,-2.4461,-2.4368,-2.4368,-2.4047,-2.361,-2.3086,-2.2864,-2.2446,-2.1794,-2.1513,-2.1347,-2.1242,-2.1144,-2.0934,-2.061,-2.0105,-1.9604,-1.9133,-1.8842,-1.8493,-1.8026,-1.8003,-1.7546,-1.661,-1.6574,-1.6347,-1.5816,-1.5814,-1.5814,-1.5814,-1.5814,-1.577,-1.5703,-1.5715,-1.5659,-1.5546,-1.5134,-1.5134,-1.5641,-1.5276,-1.532,-1.5942,-1.6453,-1.6441,-1.5758,-1.6173,-1.6456,-1.6385,-1.6664,-1.687,-1.6937,-1.6724,-1.6607,-1.6687,-1.6658,-1.6851,-1.7341,-1.7425,-1.7714,-1.8286,-1.8503,-1.8604,-1.8709,-1.883,-1.905,-1.945,-1.9568,-1.9797,-2.0204,-1.9898,-1.9603,-1.9919,-2.0047,-1.9975,-1.9844,-1.9988,-1.9948,-1.9592,-1.9587,-1.9561,-1.9241,-1.8975,-1.8741,-1.8432,-1.8371,-1.8269,-1.811,-1.8076,-1.8042,-1.8008,-1.8008,-1.8008,-1.8008,-1.7852,-1.7706,-2.8468,-2.84,-2.8387,-2.8346,-2.8224,-2.7737,-2.7284,-2.6876,-2.5751,-2.5266,-2.5282,-2.492,-2.4835,-2.4948,-2.5061,-2.5202,-2.5383,-2.5383,-2.5383,0.0,-2.5315,-2.5356,-2.5466,-2.4922,-2.4588,-2.4462,-2.3792,-2.3098,-2.249,-2.2233,-2.1876,-2.1429,-2.1337,-2.1142,-2.0759,-2.0245,-1.9875,-1.9669,-1.9328,-1.9028,-1.8852,-1.8826,-1.8322,-1.7339,-1.7255,-1.6811,-1.584,-1.5826,-1.5814,-1.5814,-1.5814,-1.5792,-1.5792,-1.5816,-1.5758,-1.577,-1.5676,-1.5867,-1.6405,-1.6381,-1.656,-1.7111,-1.7243,-1.7051,-1.6512,-1.6931,-1.7207,-1.7073,-1.7033,-1.7108,-1.7415,-1.7355,-1.7427,-1.7764,-1.7828,-1.7928,-1.8209,-1.8209,-1.8325,-1.8603,-1.8983,-1.9265,-1.9317,-1.9663,-2.0008,-2.0196,-2.0337,-2.0521,-2.0949,-2.0576,-2.0305,-2.064,-2.074,-2.0806,-2.0807,-2.0974,-2.0692,-2.0106,-1.9998,-1.9846,-1.9396,-1.9164,-1.8975,-1.8774,-1.8583,-1.8448,-1.8269,-1.8236,-1.8178,-1.8076,-1.8042,-1.8042,-1.8042,-1.8018,-1.7959,-2.8587,-2.8587,-2.8587,-2.8587,-2.8573,-2.8384,-2.8251,-2.8106,-2.7288,-2.6748,-2.638,-2.5881,-2.5694,-2.5738,-2.5479,-2.5397,-2.5508,-2.5508,-2.5508,-2.5508,-2.5564,-2.5619,-2.5674,-2.549,-2.5209,-2.4901,-2.4476,-2.3887,-2.3167,-2.2684,-2.2283,-2.1884,-2.1488,-2.1118,-2.0795,-2.0485,-2.0195,-1.9901,-1.9512,-1.9249,-1.9105,-1.9117,-1.8678,-1.7869,-1.7845,-1.7496,-1.6703,-1.6667,-1.6667,-1.6667,-1.6667,-1.6667,-1.6667,-1.6679,-1.6679,-1.6667,-1.6667,-1.6775,-1.7015,-1.7027,-1.7135,-1.7375,-1.7688,-1.7736,-1.7508,-1.77,-1.7795,-1.7656,-1.7843,-1.8012,-1.8143,-1.8087,-1.8154,-1.8348,-1.8371,-1.8526,-1.8877,-1.8936,-1.9124,-1.9511,-1.9788,-1.9954,-2.0022,-2.0265,-2.0597,-2.0971,-2.1354,-2.1758,-2.2061,-2.1801,-2.1494,-2.1448,-2.1445,-2.1393,-2.1333,-2.1253,-2.1031,-2.0603,-2.0302,-2.0031,-1.9726,-1.9495,-1.9175,-1.9008,-1.8808,-1.8607,-1.8438,-1.8414,-1.8381,-1.8313,-1.8279,-1.8279,-1.8289,-1.8379,-1.8444,-2.8716,-2.8716,-2.8716,-2.8716,-2.8716,-2.8826,-2.8972,-2.9121,-2.865,-2.821,-2.7772,-2.7005,-2.6574,-2.6394,-2.598,-2.573,-2.5592,-2.5605,-2.5592,-2.5605,-2.5688,-2.5729,-2.5757,-2.5839,-2.5667,-2.5233,-2.5071,-2.4577,-2.3823,-2.324,-2.2729,-2.2278,-2.1574,-2.1093,-2.0883,-2.0709,-2.0447,-2.0131,-1.9759,-1.9459,-1.9302,-1.9223,-1.8889,-1.8304,-1.8205,-1.7953,-1.7435,-1.7387,-1.7387,-1.7387,-1.7387,-1.7387,-1.7387,-1.7387,-1.7387,-1.7387,-1.7387,-1.7447,-1.7592,-1.7712,-1.7772,-1.7772,-1.8145,-1.8374,-1.8386,-1.8386,-1.8334,-1.8291,-1.8563,-1.8735,-1.8667,-1.8731,-1.8775,-1.8775,-1.8893,-1.9152,-1.9561,-1.9632,-1.9819,-2.0354,-2.055,-2.0691,-2.0803,-2.0928,-2.1269,-2.1818,-2.2371,-2.2696,-2.2708,-2.2708,-2.2494,-2.2235,-2.2049,-2.187,-2.1588,-2.1411,-2.1233,-2.1031,-2.0603,-2.0302,-2.0074,-1.9726,-1.944,-1.9274,-1.9042,-1.8875,-1.8684,-1.8583,-1.8549,-1.8482,-1.8448,-1.8522,-1.8662,-1.8924,-1.9007,-2.9049,-2.9067,-2.9035,-2.9035,-2.9035,-2.9067,-2.9194,-2.9352,-2.9282,-2.9334,-2.9159,-2.7991,-2.7123,-2.665,-2.6637,-2.6357,-2.5895,-2.588,-2.5839,-2.588,-2.5866,-2.5866,-2.5852,-2.5893,-2.5865,-2.5795,-2.5672,-2.5201,-2.454,-2.4242,-2.3522,-2.2359,-2.1574,-2.1218,-2.1144,-2.0797,-2.0585,-2.0548,-2.0156,-1.9798,-1.9565,-1.9328,-1.8929,-1.8408,-1.8256,-1.7953,-1.7483,-1.7387,-1.7399,-1.7387,-1.7423,-1.7411,-1.7411,-1.7411,-1.7411,-1.7423,-1.7411,-1.7616,-1.8097,-1.8578,-1.8806,-1.8843,-1.8869,-1.8903,-1.8915,-1.8915,-1.8927,-1.891,-1.8866,-1.8872,-1.8795,-1.9116,-1.9356,-1.9368,-1.971,-2.0104,-2.0272,-2.0313,-2.0377,-2.0569,-2.105,-2.1349,-2.1517,-2.1867,-2.2274,-2.2463,-2.2622,-2.2769,-2.2739,-2.2739,-2.2708,-2.2586,-2.2482,-2.2192,-2.1925,-2.1749,-2.1529,-2.1221,-2.0967,-2.0635,-2.0313,-2.0074,-1.9901,-1.9594,-1.9374,-1.9175,-1.9031,-1.8908,-1.8751,-1.8829,-1.8748,-1.871,-1.9083,-1.9505,-1.9659,-2.9113,-2.9113,-2.9113,-2.9162,-2.9257,-2.9289,-2.9352,-2.9523,-2.9509,-2.954,-2.9543,-2.8993,-2.8402,-2.7786,-2.7129,-2.6666,-2.6413,-2.6062,-2.5893,-2.5893,-2.5893,-2.5893,-2.5893,-2.5893,-2.5893,-2.5893,-2.5839,-2.5617,-2.5203,-2.4613,-2.3862,-2.3004,-2.2251,-2.1814,-2.1688,-2.1217,-2.0909,-2.08,-2.0485,-2.022,-1.9939,-1.9617,-1.927,-1.8919,-1.8804,-1.868,-1.8374,-1.835,-1.8338,-1.835,-1.835,-1.835,-1.8338,-1.835,-1.835,-1.835,-1.8338,-1.8434,-1.865,-1.8879,-1.9013,-1.9013,-1.9013,-1.9146,-1.9459,-1.9495,-1.9576,-1.9853,-1.9617,-1.9386,-1.9434,-1.9821,-2.0115,-2.0115,-2.0323,-2.0591,-2.0955,-2.0991,-2.1116,-2.15,-2.1819,-2.2001,-2.2116,-2.2439,-2.2726,-2.2818,-2.2891,-2.2939,-2.2939,-2.2927,-2.2909,-2.283,-2.2726,-2.2512,-2.2185,-2.1937,-2.1706,-2.1411,-2.119,-2.0924,-2.0667,-2.0269,-2.0031,-1.9922,-1.9725,-1.9538,-1.9407,-1.9372,-1.9293,-1.9388,-1.9744,-1.9902,-2.0257,-2.0374,-2.0394,-2.9226,-2.9226,-2.9226,-2.932,-2.9446,-2.9446,-2.9509,-2.9571,-2.9602,-2.9602,-2.9602,-2.9602,-2.9364,-2.883,-2.7804,-2.7256,-2.7003,-2.6427,-2.6146,-2.6118,-2.5978,-2.5893,-2.5893,-2.5893,-2.5893,-2.5893,-2.5893,-2.5825,-2.5605,-2.4818,-2.4161,-2.3668,-2.299,-2.2549,-2.2369,-2.1914,-2.1521,-2.1201,-2.0972,-2.0641,-2.0207,-1.9862,-1.9577,-1.9275,-1.9223,-1.9143,-1.9025,-1.9013,-1.9013,-1.9013,-1.9013,-1.9013,-1.9013,-1.9013,-1.9013,-1.9013,-1.9013,-1.9013,-1.9013,-1.9013,-1.9059,-1.9218,-1.923,-1.9432,-1.9889,-2.0009,-2.0177,-2.049,-2.0382,-2.0201,-2.0069,-2.0514,-2.0803,-2.0832,-2.0928,-2.1229,-2.156,-2.1632,-2.1753,-2.2175,-2.2267,-2.2451,-2.2531,-2.2757,-2.2927,-2.2957,-2.3017,-2.3095,-2.3095,-2.3108,-2.306,-2.2957,-2.2939,-2.2739,-2.234,-2.2123,-2.1851,-2.162,-2.1411,-2.1265,-2.1074,-2.0635,-2.0334,-2.0324,-2.0074,-2.0017,-2.0102,-2.0058,-2.0085,-2.0445,-2.0755,-2.0982,-2.11,-2.1192,-2.1339,-2.9571,-2.9571,-2.9571,-2.9571,-2.9602,-2.9585,-2.9571,-2.9602,-2.9602,-2.9602,-2.9602,-2.9602,-2.9588,-2.949,-2.8816,-2.8312,-2.7735,-2.7074,-2.675,-2.6666,-2.6174,-2.5907,-2.5893,-2.5893,-2.5893,-2.5893,-2.5893,-2.5839,-2.566,-2.4981,-2.4502,-2.4272,-2.3697,-2.3357,-2.3161,-2.2934,-2.2548,-2.1887,-2.1628,-2.1095,-2.0361,-2.0118,-1.9847,-1.947,-1.9275,-1.9143,-1.9025,-1.9013,-1.9013,-1.9013,-1.9013,-1.9013,-1.9013,-1.9013,-1.9013,-1.9013,-1.9013,-1.9025,-1.9049,-1.9062,-1.9227,-1.9688,-1.9784,-2.0013,-2.0502,-2.0545,-2.0605,-2.0658,-2.1079,-2.1091,-2.0754,-2.1091,-2.1368,-2.1392,-2.1789,-2.2041,-2.2113,-2.2077,-2.2199,-2.2359,-2.242,-2.2561,-2.2818,-2.2987,-2.3078,-2.3078,-2.3095,-2.3095,-2.3095,-2.3095,-2.3095,-2.309,-2.2982,-2.28,-2.2494,-2.2278,-2.2092,-2.1894,-2.1706,-2.1607,-2.134,-2.1094,-2.0937,-2.0868,-2.0919,-2.094,-2.0938,-2.0987,-2.1099,-2.1306,-2.1561,-2.1748,-2.1849,-2.2089,-2.2167,-2.9668,-2.9602,-2.9602,-2.9602,-2.9602,-2.9602,-2.9602,-2.9602,-2.9602,-2.9602,-2.9602,-2.9602,-2.9602,-2.9602,-2.9378,-2.8942,-2.8338,-2.7706,-2.72,-2.6835,-2.6568,-2.6273,-2.5907,-2.5893,-2.5893,-2.5893,-2.5893,-2.5866,-2.5797,-2.5465,-2.5258,-2.5079,-2.4394,-2.3958,-2.381,-2.3391,-2.2896,-2.2511,-2.2366,-2.1982,-2.1323,-2.1229,-2.0862,-2.0149,-1.9605,-1.921,-1.9013,-1.9013,-1.9013,-1.9013,-1.9013,-1.9013,-1.9013,-1.9013,-1.9013,-1.9013,-1.9013,-1.9143,-1.9471,-1.9507,-1.9748,-2.0242,-2.031,-2.0538,-2.0995,-2.1139,-2.126,-2.156,-2.1765,-2.1789,-2.1728,-2.1813,-2.1909,-2.1933,-2.2065,-2.2197,-2.2197,-2.2197,-2.2247,-2.2389,-2.2574,-2.2818,-2.2957,-2.3078,-2.3095,-2.3095,-2.3108,-2.312,-2.3108,-2.3108,-2.317,-2.3183,-2.3391,-2.3536,-2.3263,-2.2665,-2.2278,-2.2092,-2.1972,-2.2052,-2.192,-2.1747,-2.1621,-2.1841,-2.1891,-2.1879,-2.1899,-2.2051,-2.2141,-2.2226,-2.2473,-2.244,-2.2555,-2.2669,-2.2558,-2.9792,-2.9682,-2.9651,-2.962,-2.9602,-2.9602,-2.9602,-2.9602,-2.9602,-2.9602,-2.9602,-2.9602,-2.9602,-2.9602,-2.9602,-2.9406,-2.8942,-2.8352,-2.7734,-2.713,-2.6905,-2.6483,-2.5978,-2.5893,-2.5893,-2.5893,-2.5893,-2.5893,-2.5893,-2.5811,-2.5729,-2.5632,-2.5052,-2.4696,-2.4518,-2.4082,-2.3636,-2.3259,-2.3138,-2.2761,-2.2155,-2.1966,-2.1581,-2.0871,-2.0242,-1.9619,-1.9103,-1.9025,-1.9013,-1.9013,-1.9013,-1.9071,-1.9215,-1.9239,-1.9324,-1.948,-1.9528,-1.966,-1.9985,-2.0061,-2.0302,-2.0808,-2.0875,-2.1091,-2.1584,-2.1668,-2.1849,-2.2101,-2.2197,-2.2197,-2.2197,-2.2185,-2.2197,-2.2197,-2.2197,-2.2197,-2.2197,-2.2197,-2.2321,-2.2494,-2.2787,-2.2987,-2.3078,-2.3095,-2.3095,-2.3108,-2.3233,-2.3371,-2.3384,-2.3559,-2.3647,-2.3672,-2.3998,-2.4167,-2.4034,-2.3633,-2.3225,-2.301,-2.2794,-2.2747,-2.2639,-2.2507,-2.2483,-2.2774,-2.2868,-2.2856,-2.2957,-2.31,-2.3189,-2.3232,-2.3162,-2.3106,-2.311,-2.308,-2.3001,-2.9974,-2.9808,-2.9808,-2.9744,-2.9634,-2.9602,-2.9602,-2.9602,-2.9602,-2.9602,-2.9602,-2.9602,-2.9602,-2.9602,-2.9602,-2.9588,-2.9434,-2.8942,-2.8366,-2.7776,-2.7214,-2.661,-2.6006,-2.5992,-2.595,-2.5893,-2.5893,-2.5893,-2.5893,-2.5893,-2.5811,-2.5729,-2.5632,-2.5398,-2.5203,-2.501,-2.4653,-2.4025,-2.378,-2.3306,-2.2493,-2.2218,-2.1901,-2.1534,-2.1135,-2.0444,-1.9342,-1.9175,-1.917,-1.9107,-1.9134,-1.9275,-1.9748,-1.982,-2.0009,-2.0394,-2.055,-2.0574,-2.061,-2.0627,-2.0856,-2.1296,-2.1416,-2.1596,-2.1981,-2.2101,-2.2137,-2.2173,-2.2197,-2.2197,-2.2197,-2.2197,-2.2197,-2.2197,-2.2197,-2.2197,-2.2197,-2.2228,-2.234,-2.2647,-2.2909,-2.309,-2.312,-2.3208,-2.3258,-2.3396,-2.3672,-2.3991,-2.4029,-2.4274,-2.4662,-2.47,-2.4713,-2.4763,-2.4736,-2.4671,-2.4378,-2.4124,-2.3855,-2.3688,-2.3553,-2.3394,-2.3411,-2.3626,-2.3711,-2.3735,-2.3826,-2.3938,-2.3876,-2.3847,-2.3776,-2.3714,-2.3677,-2.3604,-2.353,-3.008,-3.0005,-3.0005,-2.9898,-2.973,-2.973,-2.9682,-2.9602,-2.9602,-2.9602,-2.9602,-2.9602,-2.9602,-2.9602,-2.9602,-2.9602,-2.9588,-2.9378,-2.8984,-2.848,-2.8183,-2.7509,-2.668,-2.6512,-2.6301,-2.595,-2.5893,-2.5893,-2.5893,-2.5893,-2.5852,-2.5839,-2.5757,-2.5605,-2.5397,-2.5258,-2.4939,-2.4578,-2.4396,-2.4076,-2.3576,-2.3235,-2.2824,-2.2293,-2.1914,-2.1338,-2.0517,-2.0221,-2.0121,-2.0081,-2.0117,-2.0189,-2.031,-2.0362,-2.0446,-2.0574,-2.0581,-2.0786,-2.1103,-2.1163,-2.138,-2.1813,-2.1945,-2.2005,-2.2161,-2.2197,-2.2197,-2.2197,-2.2197,-2.2197,-2.2197,-2.2197,-2.2209,-2.2197,-2.2197,-2.2197,-2.2228,-2.2426,-2.2567,-2.2678,-2.2939,-2.3271,-2.3627,-2.374,-2.3822,-2.4123,-2.4399,-2.4556,-2.4575,-2.4738,-2.4775,-2.48,-2.5046,-2.5372,-2.5352,-2.5432,-2.539,-2.5052,-2.4734,-2.4527,-2.4377,-2.4314,-2.4344,-2.4361,-2.4483,-2.4531,-2.4636,-2.461,-2.449,-2.4454,-2.4418,-2.4309,-2.4225,-2.4116,-2.4007,-3.0385,-3.0294,-3.0294,-3.0158,-2.9929,-2.9915,-2.9882,-2.9789,-2.9682,-2.9682,-2.9651,-2.9634,-2.9602,-2.9602,-2.9665,-2.9682,-2.9682,-2.9758,-2.9591,-2.9179,-2.879,-2.8127,-2.7214,-2.6891,-2.6497,-2.5992,-2.5893,-2.5893,-2.5893,-2.5893,-2.5893,-2.5893,-2.5811,-2.5716,-2.5564,-2.5383,-2.5188,-2.4962,-2.475,-2.4563,-2.4287,-2.3966,-2.3533,-2.3009,-2.2665,-2.2213,-2.167,-2.1411,-2.1041,-2.0694,-2.061,-2.0694,-2.0875,-2.0899,-2.0971,-2.1163,-2.1194,-2.138,-2.1656,-2.1704,-2.1825,-2.2125,-2.2197,-2.2185,-2.2197,-2.2197,-2.2197,-2.2197,-2.2197,-2.2197,-2.2197,-2.2197,-2.227,-2.2474,-2.2306,-2.224,-2.2321,-2.2708,-2.3016,-2.317,-2.348,-2.3898,-2.4192,-2.4318,-2.4431,-2.4738,-2.4951,-2.5109,-2.5126,-2.5322,-2.5347,-2.5448,-2.5711,-2.5912,-2.5984,-2.6126,-2.6343,-2.5993,-2.5562,-2.5354,-2.5186,-2.5142,-2.5123,-2.5045,-2.5109,-2.4991,-2.5052,-2.4945,-2.4838,-2.4885,-2.4885,-2.4682,-2.4502,-2.4502,-2.4418,-3.091,-3.0642,-3.0642,-3.0446,-3.0142,-3.0142,-3.0111,-3.005,-2.9884,-2.9822,-2.9792,-2.9727,-2.9665,-2.9665,-2.9775,-2.9822,-2.9853,-2.9974,-3.0036,-2.9789,-2.9268,-2.854,-2.792,-2.7229,-2.6623,-2.6159,-2.6004,-2.5893,-2.5893,-2.5893,-2.5893,-2.5893,-2.5893,-2.5839,-2.5688,-2.5564,-2.5397,-2.5174,-2.492,-2.4763,-2.4563,-2.4258,-2.3923,-2.3577,-2.3267,-2.293,-2.2609,-2.2329,-2.1771,-2.0897,-2.0827,-2.1055,-2.1356,-2.1452,-2.1668,-2.2017,-2.2161,-2.2101,-2.2161,-2.2101,-2.2137,-2.2173,-2.2197,-2.2197,-2.2197,-2.2197,-2.2197,-2.2197,-2.227,-2.2294,-2.2294,-2.239,-2.2594,-2.2903,-2.2746,-2.2525,-2.2559,-2.313,-2.3552,-2.3821,-2.4341,-2.48,-2.482,-2.4825,-2.4876,-2.5096,-2.541,-2.5598,-2.5711,-2.5937,-2.6348,-2.6399,-2.6285,-2.6273,-2.6248,-2.6285,-2.6452,-2.6355,-2.603,-2.5906,-2.5736,-2.5691,-2.5646,-2.5592,-2.5535,-2.5465,-2.543,-2.53,-2.523,-2.5265,-2.5135,-2.4933,-2.4825,-2.4849,-2.4742,-3.1146,-3.0984,-3.0955,-3.0776,-3.0492,-3.0462,-3.031,-3.0111,-3.0036,-3.0036,-3.0005,-2.9988,-2.9958,-2.9988,-3.0005,-3.0036,-3.0036,-3.0066,-3.008,-3.0066,-2.9907,-2.9405,-2.868,-2.7698,-2.7058,-2.6734,-2.6311,-2.6002,-2.5921,-2.5921,-2.5921,-2.5893,-2.5893,-2.5839,-2.5702,-2.5661,-2.5481,-2.523,-2.5033,-2.4892,-2.4692,-2.4332,-2.4083,-2.3953,-2.3539,-2.3241,-2.2969,-2.2604,-2.2255,-2.1855,-2.1777,-2.1825,-2.1933,-2.1957,-2.2017,-2.2137,-2.2197,-2.2197,-2.2197,-2.2197,-2.2197,-2.2197,-2.2197,-2.2197,-2.2197,-2.2197,-2.2197,-2.227,-2.251,-2.2806,-2.2835,-2.3144,-2.3433,-2.3541,-2.3457,-2.3413,-2.3519,-2.3871,-2.4144,-2.4355,-2.4641,-2.5013,-2.5297,-2.541,-2.5536,-2.5896,-2.6084,-2.621,-2.6223,-2.626,-2.6487,-2.6487,-2.6424,-2.6449,-2.6461,-2.6461,-2.6487,-2.6487,-2.6355,-2.6274,-2.6079,-2.5953,-2.5861,-2.5793,-2.5793,-2.5723,-2.5758,-2.5735,-2.57,-2.5583,-2.5477,-2.5312,-2.5265,-2.5218,-2.5087,-3.1496,-3.1351,-3.1278,-3.1131,-3.0896,-3.0866,-3.0642,-3.0401,-3.0325,-3.0249,-3.0189,-3.0111,-3.008,-3.008,-3.0158,-3.0189,-3.0189,-3.028,-3.0325,-3.0325,-3.0296,-2.986,-2.917,-2.834,-2.7783,-2.7171,-2.6802,-2.6393,-2.6059,-2.5975,-2.5948,-2.5921,-2.5893,-2.5866,-2.5784,-2.5729,-2.5619,-2.5425,-2.5188,-2.5005,-2.4863,-2.4505,-2.4258,-2.4083,-2.37,-2.336,-2.303,-2.2696,-2.2432,-2.2235,-2.2185,-2.2197,-2.2197,-2.2197,-2.2197,-2.2197,-2.2197,-2.2197,-2.2197,-2.2197,-2.2197,-2.2197,-2.2197,-2.2197,-2.2258,-2.2366,-2.2522,-2.2626,-2.3015,-2.33,-2.34,-2.3785,-2.4083,-2.421,-2.4413,-2.442,-2.4176,-2.4493,-2.4793,-2.5033,-2.5306,-2.5598,-2.5937,-2.595,-2.6147,-2.6361,-2.6386,-2.6436,-2.6449,-2.6487,-2.6487,-2.6487,-2.6487,-2.6487,-2.6487,-2.6487,-2.6487,-2.6487,-2.6487,-2.6418,-2.6327,-2.6188,-2.6119,-2.605,-2.605,-2.6015,-2.598,-2.5957,-2.584,-2.577,-2.5758,-2.5723,-2.5641,-2.5535,-2.5394,-3.1925,-3.1726,-3.161,-3.1466,-3.1322,-3.122,-3.0999,-3.0851,-3.0702,-3.0552,-3.0387,-3.0233,-3.0233,-3.0172,-3.031,-3.0312,-3.0357,-3.0477,-3.0552,-3.0552,-3.0509,-3.0172,-2.956,-2.9215,-2.8569,-2.7768,-2.7467,-2.6899,-2.6434,-2.6237,-2.6056,-2.6002,-2.5975,-2.5921,-2.5893,-2.5811,-2.5715,-2.5619,-2.5425,-2.5202,-2.5033,-2.4763,-2.4505,-2.4187,-2.3776,-2.339,-2.303,-2.2769,-2.2586,-2.229,-2.2216,-2.2216,-2.2197,-2.2197,-2.2197,-2.2197,-2.2197,-2.2197,-2.2197,-2.2197,-2.2197,-2.2197,-2.2197,-2.2246,-2.2378,-2.2722,-2.2963,-2.3083,-2.3577,-2.389,-2.4162,-2.4442,-2.4737,-2.4937,-2.5349,-2.522,-2.4841,-2.5078,-2.5531,-2.5711,-2.6185,-2.6424,-2.6487,-2.6487,-2.6487,-2.6424,-2.6487,-2.6487,-2.6487,-2.6487,-2.6487,-2.6487,-2.6487,-2.6487,-2.6487,-2.6487,-2.6487,-2.6487,-2.6487,-2.6452,-2.6452,-2.6361,-2.6374,-2.6305,-2.6258,-2.6188,-2.6119,-2.605,-2.6015,-2.598,-2.6002,-2.5968,-2.5898,-2.5793,-2.5665,-3.2163,-3.1925,-3.1896,-3.1783,-3.1625,-3.1481,-3.1321,-3.1161,-3.1029,-3.0881,-3.0702,-3.0642,-3.0582,-3.0492,-3.0522,-3.0538,-3.0507,-3.0582,-3.0612,-3.0612,-3.0612,-3.0524,-3.0159,-2.9797,-2.9319,-2.8713,-2.7879,-2.7336,-2.6983,-2.6543,-2.626,-2.6206,-2.6098,-2.6056,-2.6029,-2.5921,-2.577,-2.5702,-2.5619,-2.5425,-2.5202,-2.5005,-2.475,-2.4405,-2.3894,-2.3437,-2.3108,-2.2939,-2.2769,-2.2616,-2.2463,-2.234,-2.2216,-2.2197,-2.2197,-2.2197,-2.2197,-2.2197,-2.2197,-2.2197,-2.2209,-2.2234,-2.2282,-2.2366,-2.2818,-2.2975,-2.3252,-2.3577,-2.4095,-2.4562,-2.5038,-2.5395,-2.5514,-2.5632,-2.5834,-2.5975,-2.5847,-2.5928,-2.609,-2.623,-2.6373,-2.6487,-2.6487,-2.6487,-2.6487,-2.6487,-2.6487,-2.6487,-2.6487,-2.6487,-2.6487,-2.6487,-2.6487,-2.6487,-2.6487,-2.6487,-2.6487,-2.6487,-2.6487,-2.6487,-2.6487,-2.6487,-2.643,-2.643,-2.6465,-2.6361,-2.6258,-2.6292,-2.6292,-2.6292,-2.6223,-2.6188,-2.6119,-2.6027,-2.598,-3.2484,-3.229,-3.2234,-3.2079,-3.1923,-3.1781,-3.1625,-3.1423,-3.1351,-3.1146,-3.0984,-3.0925,-3.0895,-3.0836,-3.0732,-3.0702,-3.0672,-3.0642,-3.0612,-3.0612,-3.0612,-3.0612,-3.0583,-3.0234,-2.9885,-2.9464,-2.8857,-2.818,-2.7464,-2.7022,-2.6709,-2.6328,-2.6233,-2.6206,-2.6179,-2.6056,-2.5948,-2.5893,-2.5757,-2.5591,-2.5425,-2.5146,-2.475,-2.4419,-2.4024,-2.3688,-2.3348,-2.3223,-2.303,-2.2878,-2.2726,-2.2525,-2.2309,-2.2216,-2.2197,-2.2197,-2.2197,-2.2197,-2.2197,-2.2209,-2.2318,-2.2534,-2.259,-2.2871,-2.328,-2.3544,-2.3875,-2.4258,-2.4715,-2.5244,-2.5687,-2.5793,-2.5898,-2.605,-2.6131,-2.6248,-2.6305,-2.6339,-2.6374,-2.6465,-2.6474,-2.6487,-2.6487,-2.6487,-2.6487,-2.6487,-2.6487,-2.6487,-2.6487,-2.6487,-2.6487,-2.6487,-2.6487,-2.6487,-2.6487,-2.6487,-2.6487,-2.6487,-2.6487,-2.6487,-2.6487,-2.6487,-2.6487,-2.6499,-2.6499,-2.6499,-2.6418,-2.6487,-2.6487,-2.6418,-2.6361,-2.6374,-2.6339,-2.6258,-2.6258,-3.2816,-3.2621,-3.2523,-3.2385,-3.2262,-3.2107,-3.191,-3.1638,-3.1566,-3.1423,-3.1176,-3.1161,-3.1132,-3.1043,-3.0925,-3.0821,-3.0762,-3.0687,-3.0628,-3.0612,-3.0612,-3.0612,-3.0583,-3.0496,-3.0292,-2.9769,-2.9508,-2.8857,-2.8121,-2.7589,-2.7174,-2.6608,-2.634,-2.6326,-2.6299,-2.6206,-2.6125,-2.6056,-2.5893,-2.5729,-2.5647,-2.5314,-2.4892,-2.4447,-2.4141,-2.3966,-2.3688,-2.3509,-2.333,-2.3138,-2.2987,-2.2775,-2.2543,-2.2371,-2.2278,-2.229,-2.2247,-2.2247,-2.2296,-2.2349,-2.2578,-2.2999,-2.314,-2.3405,-2.3887,-2.4283,-2.4638,-2.4986,-2.5383,-2.5697,-2.5923,-2.6015,-2.6084,-2.6201,-2.6248,-2.6339,-2.643,-2.6487,-2.6499,-2.6499,-2.6487,-2.6487,-2.6487,-2.6487,-2.6487,-2.6487,-2.6487,-2.6487,-2.6487,-2.6487,-2.6487,-2.6487,-2.6487,-2.6487,-2.6487,-2.6487,-2.6487,-2.6487,-2.6487,-2.6487,-2.6487,-2.6487,-2.6487,-2.6487,-2.6487,-2.6487,-2.6487,-2.6487,-2.6487,-2.6487,-2.6487,-2.643,-2.6465,-2.6487,-2.6452,-3.2962,-3.2843,-3.2827,-3.2718,-3.2523,-3.2413,-3.2231,-3.2079,-3.1938,-3.1739,-3.1466,-3.1452,-3.1307,-3.1161,-3.1073,-3.0984,-3.0866,-3.0762,-3.0702,-3.0628,-3.0598,-3.0612,-3.0612,-3.0598,-3.051,-3.0336,-2.9972,-2.9465,-2.8943,-2.8262,-2.7758,-2.737,-2.6827,-2.6543,-2.6531,-2.6338,-2.6233,-2.6165,-2.6029,-2.5921,-2.5729,-2.5564,-2.5258,-2.4791,-2.4403,-2.4141,-2.3966,-2.3717,-2.3509,-2.333,-2.3138,-2.3,-2.288,-2.2727,-2.2665,-2.2567,-2.2493,-2.2499,-2.2492,-2.2737,-2.2879,-2.3128,-2.3518,-2.4056,-2.4514,-2.4871,-2.5208,-2.5593,-2.5869,-2.6097,-2.6131,-2.6258,-2.6349,-2.6418,-2.643,-2.6418,-2.6487,-2.6487,-2.6487,-2.6487,-2.6487,-2.6487,-2.6487,-2.6487,-2.6487,-2.6487,-2.6487,-2.6487,-2.6487,-2.6487,-2.6487,-2.6487,-2.6487,-2.6487,-2.6487,-2.6487,-2.6487,-2.6487,-2.6487,-2.6487,-2.6487,-2.6487,-2.6487,-2.6487,-2.6487,-2.6487,-2.6487,-2.6487,-2.6487,-2.6487,-2.6487,-2.6487,-2.6487,-2.6487,-2.6487,-3.3123,-3.3005,-3.3005,-3.2924,-3.2773,-3.2691,-3.2523,-3.2287,-3.2219,-3.2051,-3.1824,-3.1739,-3.164,-3.1482,-3.1351,-3.1161,-3.0969,-3.0821,-3.0762,-3.0702,-3.0642,-3.0612,-3.0612,-3.0612,-3.0612,-3.0525,-3.0234,-2.99,-2.9581,-2.9044,-2.8493,-2.8087,-2.7482,-2.7136,-2.6982,-2.663,-2.6437,-2.6313,-2.6193,-2.6085,-2.5921,-2.5812,-2.5481,-2.5047,-2.4761,-2.4476,-2.4173,-2.3982,-2.3806,-2.3641,-2.339,-2.3404,-2.3471,-2.3411,-2.317,-2.2887,-2.2886,-2.2971,-2.3056,-2.3408,-2.379,-2.4095,-2.4417,-2.4817,-2.5208,-2.5497,-2.5674,-2.5998,-2.6223,-2.6361,-2.6361,-2.6465,-2.6487,-2.6487,-2.6487,-2.6487,-2.6487,-2.6487,-2.6487,-2.6487,-2.6487,-2.6487,-2.6487,-2.6487,-2.6487,-2.6487,-2.6487,-2.6487,-2.6487,-2.6487,-2.6487,-2.6487,-2.6487,-2.6487,-2.6487,-2.6487,-2.6487,-2.6487,-2.6487,-2.6487,-2.6487,-2.6487,-2.6487,-2.6487,-2.6487,-2.6487,-2.6487,-2.6487,-2.6487,-2.6487,-2.6487,-2.6487,-2.6487,-2.6487,-2.6487,-3.3229,-3.3139,-3.3123,-3.3058,-3.2951,-3.2924,-3.2773,-3.2523,-3.2468,-3.2302,-3.2094,-3.2053,-3.1968,-3.1826,-3.164,-3.1423,-3.1132,-3.0984,-3.0881,-3.0762,-3.0702,-3.0642,-3.0612,-3.0612,-3.0612,-3.0598,-3.0554,-3.0306,-2.9943,-2.9552,-2.929,-2.884,-2.8217,-2.7898,-2.7755,-2.7384,-2.6996,-2.6845,-2.6724,-2.6561,-2.6438,-2.6203,-2.5896,-2.5501,-2.5415,-2.5224,-2.5029,-2.4761,-2.4553,-2.4373,-2.4133,-2.4078,-2.4347,-2.4311,-2.3891,-2.3375,-2.3566,-2.3675,-2.3848,-2.4153,-2.4574,-2.4823,-2.5194,-2.5527,-2.5783,-2.5963,-2.6094,-2.627,-2.6361,-2.6487,-2.6452,-2.6487,-2.6487,-2.6487,-2.6487,-2.6487,-2.6487,-2.6487,-2.6487,-2.6487,-2.6487,-2.6487,-2.6487,-2.6487,-2.6487,-2.6487,-2.6487,-2.6487,-2.6487,-2.6487,-2.6487,-2.6487,-2.6487,-2.6487,-2.6487,-2.6487,-2.6487,-2.6487,-2.6487,-2.6487,-2.6487,-2.6487,-2.6487,-2.6487,-2.6487,-2.6487,-2.6487,-2.6487,-2.6487,-2.6487,-2.6487,-2.6487,-2.6487,-2.6487,-2.6487,-3.3309,-3.3282,-3.3266,-3.3203,-3.3069,-3.3069,-3.2978,-3.2843,-3.2648,-3.248,-3.2358,-3.2219,-3.2122,-3.1968,-3.1798,-3.1568,-3.1366,-3.1205,-3.1058,-3.0851,-3.0791,-3.0702,-3.0612,-3.0612,-3.0612,-3.0612,-3.0612,-3.0583,-3.0322,-2.9885,-2.9653,-2.9392,-2.8927,-2.8565,-2.855,-2.8246,-2.8392,-2.8237,-2.8152,-2.7996,-2.7683,-2.7354,-2.7151,-2.6989,-2.6711,-2.6416,-2.6185,-2.5855,-2.5634,-2.5489,-2.5351,-2.5253,-2.5173,-2.5046,-2.495,-2.4772,-2.463,-2.4486,-2.4528,-2.4839,-2.5093,-2.5373,-2.5688,-2.6042,-2.6164,-2.6292,-2.6383,-2.6452,-2.6487,-2.6487,-2.6487,-2.6487,-2.6487,-2.6487,-2.6487,-2.6487,-2.6487,-2.6487,-2.6487,-2.6487,-2.6487,-2.6487,-2.6487,-2.6487,-2.6487,-2.6487,-2.6487,-2.6487,-2.6487,-2.6487,-2.6487,-2.6487,-2.6487,-2.6487,-2.6487,-2.6487,-2.6487,-2.6487,-2.6487,-2.6487,-2.6487,-2.6487,-2.6487,-2.6487,-2.6487,-2.6487,-2.6487,-2.6487,-2.6487,-2.6487,-2.6487,-2.6487,-2.6487,-2.6487,-2.6487,-3.3372,-3.3293,-3.3293,-3.3266,-3.3229,-3.3229,-3.3123,-3.3032,-3.2908,-3.2784,-3.2648,-3.2496,-3.2302,-3.2094,-3.1898,-3.1727,-3.1583,-3.1424,-3.1205,-3.0984,-3.0851,-3.0732,-3.0642,-3.0612,-3.0612,-3.0612,-3.0612,-3.0612,-3.0481,-3.038,-3.0161,-3.0031,-2.9566,-2.9218,-2.9174,-2.8855,-2.8695,-2.8553,-2.8511,-2.8312,-2.8053,-2.7865,-2.7719,-2.7542,-2.732,-2.7124,-2.6867,-2.6648,-2.6356,-2.6127,-2.5861,-2.5899,-2.5948,-2.5884,-2.5779,-2.6003,-2.587,-2.5598,-2.5311,-2.5644,-2.5797,-2.5896,-2.6177,-2.6324,-2.6396,-2.643,-2.6487,-2.6487,-2.6487,-2.6487,-2.6487,-2.6487,-2.6487,-2.6487,-2.6487,-2.6487,-2.6487,-2.6487,-2.6487,-2.6487,-2.6487,-2.6487,-2.6487,-2.6487,-2.6487,-2.6487,-2.6487,-2.6487,-2.6487,-2.6487,-2.6487,-2.6487,-2.6487,-2.6487,-2.6487,-2.6487,-2.6487,-2.6487,-2.6487,-2.6487,-2.6487,-2.6487,-2.6487,-2.6487,-2.6487,-2.6487,-2.6487,-2.6487,-2.6487,-2.6487,-2.6487,-2.6487,-2.6487,-2.6487,-2.6487,-3.3424,-3.3309,-3.3293,-3.3293,-3.3293,-3.3293,-3.3256,-3.315,-3.3096,-3.3032,-3.2908,-3.2703,-3.2468,-3.2247,-3.2025,-3.1855,-3.1756,-3.1539,-3.1336,-3.1161,-3.0955,-3.0806,-3.0702,-3.0642,-3.0612,-3.0612,-3.0612,-3.0612,-3.0612,-3.0569,-3.0539,-3.0598,-3.0103,-2.9885,-2.974,-2.9523,-2.9319,-2.9319,-2.9146,-2.8943,-2.8739,-2.8564,-2.8372,-2.8196,-2.7989,-2.7795,-2.7492,-2.7301,-2.713,-2.697,-2.6696,-2.6743,-2.6863,-2.6713,-2.6611,-2.67,-2.665,-2.6447,-2.6181,-2.6244,-2.6449,-2.6487,-2.6487,-2.6452,-2.6487,-2.6487,-2.6487,-2.6487,-2.6487,-2.6487,-2.6487,-2.6487,-2.6487,-2.6487,-2.6487,-2.6487,-2.6487,-2.6487,-2.6487,-2.6487,-2.6487,-2.6487,-2.6487,-2.6487,-2.6487,-2.6487,-2.6487,-2.6487,-2.6487,-2.6487,-2.6487,-2.6487,-2.6487,-2.6487,-2.6487,-2.6487,-2.6487,-2.6487,-2.6487,-2.6487,-2.6487,-2.6487,-2.6487,-2.6487,-2.6487,-2.6487,-2.6487,-2.6487,-2.6487,-2.6487,-2.6487,-2.6487,-2.6487,-2.6487,-2.6487,-3.344,-3.3293,-3.3293,-3.3293,-3.3293,-3.3293,-3.3293,-3.3256,-3.315,-3.3096,-3.3016,-3.2757,-3.2551,-3.2385,-3.2191,-3.2025,-3.1784,-3.1784,-3.1539,-3.1292,-3.1117,-3.094,-3.0791,-3.0672,-3.0612,-3.0612,-3.0612,-3.0612,-3.0612,-3.0612,-3.0612,-3.0569,-3.0438,-3.0496,-3.0438,-3.022,-3.0176,-3.0147,-3.0028,-2.9996,-2.983,-2.9693,-2.9511,-2.9461,-2.933,-2.9213,-2.9167,-2.8638,-2.8252,-2.8157,-2.7841,-2.7582,-2.7558,-2.738,-2.7265,-2.7162,-2.7032,-2.6888,-2.6727,-2.6591,-2.6483,-2.6487,-2.6487,-2.6521,-2.6521,-2.6533,-2.6499,-2.6555,-2.6555,-2.6533,-2.6521,-2.6487,-2.6487,-2.6487,-2.6487,-2.6487,-2.6487,-2.6487,-2.6487,-2.6487,-2.6487,-2.6487,-2.6487,-2.6487,-2.6487,-2.6487,-2.6487,-2.6487,-2.6487,-2.6487,-2.6487,-2.6487,-2.6487,-2.6487,-2.6487,-2.6487,-2.6487,-2.6487,-2.6487,-2.6487,-2.6487,-2.6487,-2.6487,-2.6487,-2.6487,-2.6487,-2.6487,-2.6487,-2.6487,-2.6487,-2.6487,-2.6487,-2.6487,-2.6487,-2.6487,-3.3477,-3.3293,-3.3293,-3.3293,-3.3293,-3.3293,-3.3293,-3.3309,-3.3256,-3.3192,-3.3096,-3.2881,-3.2676,-3.2496,-3.2274,-3.2094,-3.1927,-3.1813,-3.1597,-3.1351,-3.1146,-3.0984,-3.0836,-3.0702,-3.0612,-3.0612,-3.0612,-3.0612,-3.0612,-3.0612,-3.0612,-3.0612,-3.0612,-3.0598,-3.0598,-3.0612,-3.0612,-3.0612,-3.0507,-3.0447,-3.0296,-3.019,-2.9993,-2.9777,-2.9747,-2.9557,-2.9355,-2.9212,-2.8972,-2.8748,-2.8522,-2.8314,-2.8072,-2.7855,-2.7623,-2.7469,-2.7315,-2.718,-2.7045,-2.6875,-2.6773,-2.6658,-2.6624,-2.6624,-2.6671,-2.6739,-2.6807,-2.6773,-2.6692,-2.6624,-2.6624,-2.6555,-2.6487,-2.6487,-2.6521,-2.6521,-2.6521,-2.6555,-2.6568,-2.6602,-2.6521,-2.6487,-2.6487,-2.6487,-2.6487,-2.6487,-2.6487,-2.6487,-2.6487,-2.6521,-2.6521,-2.6555,-2.6555,-2.6568,-2.6568,-2.6521,-2.6487,-2.6521,-2.6521,-2.6555,-2.6589,-2.6499,-2.6499,-2.6487,-2.6487,-2.6487,-2.6487,-2.6487,-2.6487,-2.6487,-2.6487,-2.6487,-2.6487,-2.6487,-2.6487,-3.3555,-3.3293,-3.3293,-3.3293,-3.3293,-3.3293,-3.3293,-3.3293,-3.3309,-3.3256,-3.315,-3.3032,-3.2854,-3.2648,-3.2456,-3.2178,-3.2025,-3.1883,-3.1655,-3.1424,-3.119,-3.1043,-3.0851,-3.0717,-3.0612,-3.0612,-3.0612,-3.0612,-3.0612,-3.0612,-3.0612,-3.0612,-3.0612,-3.0612,-3.0612,-3.0612,-3.0612,-3.0612,-3.0612,-3.0538,-3.0417,-3.0312,-3.0221,-2.9976,-2.987,-2.9716,-2.9557,-2.9401,-2.9226,-2.9004,-2.878,-2.8573,-2.8365,-2.8137,-2.7875,-2.7689,-2.7536,-2.7369,-2.7268,-2.7045,-2.6943,-2.6841,-2.6794,-2.6794,-2.6841,-2.6909,-2.6956,-2.6943,-2.6829,-2.6794,-2.6794,-2.6739,-2.6705,-2.6739,-2.6726,-2.6726,-2.6739,-2.6739,-2.6717,-2.6717,-2.6671,-2.6671,-2.6705,-2.6705,-2.6589,-2.6555,-2.6487,-2.6487,-2.6499,-2.6521,-2.6589,-2.6624,-2.6658,-2.6671,-2.6671,-2.6705,-2.6739,-2.6739,-2.6739,-2.6739,-2.6705,-2.6636,-2.6602,-2.6589,-2.6589,-2.6555,-2.6521,-2.6521,-2.6487,-2.6487,-2.6487,-2.6487,-2.6487,-2.6487,-2.6487,-3.3555,-3.3293,-3.3293,-3.3293,-3.3293,-3.3293,-3.3293,-3.3293,-3.3293,-3.3282,-3.3256,-3.3123,-3.2989,-3.2827,-3.2621,-3.2345,-3.2053,-3.1968,-3.1798,-3.1482,-3.1234,-3.1102,-3.0955,-3.0791,-3.0612,-3.0612,-3.0612,-3.0612,-3.0612,-3.0612,-3.0612,-3.0612,-3.0612,-3.0612,-3.0612,-3.0612,-3.0612,-3.0612,-3.0612,-3.0568,-3.0538,-3.0417,-3.0312,-3.016,-2.9993,-2.9853,-2.9699,-2.9557,-2.9401,-2.9257,-2.9004,-2.8812,-2.8619,-2.8398,-2.8216,-2.8112,-2.7901,-2.7789,-2.7723,-2.7281,-2.7113,-2.7011,-2.7011,-2.7011,-2.699,-2.7024,-2.7092,-2.7113,-2.7045,-2.7011,-2.699,-2.699,-2.6956,-2.6922,-2.6909,-2.6875,-2.6875,-2.6888,-2.6854,-2.6854,-2.6922,-2.699,-2.699,-2.6956,-2.6773,-2.6671,-2.6521,-2.6521,-2.6568,-2.6636,-2.6692,-2.6726,-2.6794,-2.6807,-2.6854,-2.6922,-2.6956,-2.6977,-2.6943,-2.6875,-2.6875,-2.6875,-2.6807,-2.6714,-2.6714,-2.6692,-2.6624,-2.6521,-2.6589,-2.6636,-2.6521,-2.6487,-2.6487,-2.6487,-2.6487,-3.3477,-3.3293,-3.3293,-3.3293,-3.3293,-3.3293,-3.3293,-3.3293,-3.3293,-3.3293,-3.3282,-3.3165,-3.3032,-3.2854,-3.2676,-3.2401,-3.2053,-3.1996,-3.1826,-3.1511,-3.122,-3.1146,-3.0984,-3.0806,-3.0612,-3.0612,-3.0612,-3.0612,-3.0612,-3.0612,-3.0612,-3.0612,-3.0612,-3.0612,-3.0612,-3.0612,-3.0612,-3.0612,-3.0612,-3.0598,-3.0598,-3.0493,-3.0433,-3.0326,-3.019,-3.0038,-2.9839,-2.9699,-2.9574,-2.9446,-2.9194,-2.9067,-2.8908,-2.867,-2.8522,-2.8373,-2.8197,-2.8,-2.7967,-2.7782,-2.7562,-2.7382,-2.7248,-2.7248,-2.7214,-2.7268,-2.7302,-2.7315,-2.7281,-2.7248,-2.718,-2.7092,-2.7024,-2.699,-2.699,-2.699,-2.6956,-2.699,-2.6956,-2.6956,-2.7024,-2.7092,-2.7079,-2.7227,-2.7113,-2.7045,-2.6964,-2.6841,-2.6841,-2.6854,-2.6909,-2.6909,-2.6943,-2.6977,-2.7024,-2.7193,-2.7193,-2.718,-2.7079,-2.699,-2.699,-2.7126,-2.7011,-2.6964,-2.6897,-2.6863,-2.6794,-2.6739,-2.682,-2.682,-2.6705,-2.6555,-2.6521,-2.6521,-2.6487,-3.344,-3.3293,-3.3293,-3.3293,-3.3293,-3.3293,-3.3293,-3.3293,-3.3293,-3.3293,-3.3282,-3.3203,-3.3085,-3.2924,-3.2746,-3.2401,-3.2053,-3.1996,-3.1754,-3.1453,-3.122,-3.1073,-3.0925,-3.0762,-3.0642,-3.0612,-3.0612,-3.0612,-3.0612,-3.0612,-3.0612,-3.0612,-3.0612,-3.0612,-3.0612,-3.0612,-3.0612,-3.0612,-3.0612,-3.0612,-3.0612,-3.0568,-3.0538,-3.0447,-3.0326,-3.019,-3.0007,-2.9853,-2.9716,-2.9543,-2.9432,-2.9352,-2.9162,-2.8972,-2.878,-2.8683,-2.8541,-2.8314,-2.8183,-2.8164,-2.7934,-2.7756,-2.7636,-2.7583,-2.7583,-2.7669,-2.7703,-2.7669,-2.7616,-2.7583,-2.7516,-2.7382,-2.7348,-2.7348,-2.7348,-2.7348,-2.7382,-2.7382,-2.7382,-2.7348,-2.7348,-2.7348,-2.7348,-2.7416,-2.7516,-2.7449,-2.7416,-2.7281,-2.7146,-2.7146,-2.7146,-2.7146,-2.7201,-2.7335,-2.7416,-2.7482,-2.7482,-2.7382,-2.7315,-2.7281,-2.7382,-2.7503,-2.7348,-2.718,-2.7146,-2.71,-2.7011,-2.699,-2.7024,-2.699,-2.6841,-2.6739,-2.6589,-2.6555,-2.6555,-3.3424,-3.3309,-3.3293,-3.3293,-3.3293,-3.3293,-3.3293,-3.3293,-3.3293,-3.3293,-3.3309,-3.3282,-3.3123,-3.2924,-3.287,-3.2527,-3.2081,-3.204,-3.1712,-3.1409,-3.1176,-3.1014,-3.0866,-3.0672,-3.0612,-3.0612,-3.0612,-3.0612,-3.0612,-3.0612,-3.0612,-3.0612,-3.0612,-3.0612,-3.0612,-3.0612,-3.0612,-3.0612,-3.0612,-3.0612,-3.0612,-3.0612,-3.0582,-3.0507,-3.0417,-3.0326,-3.016,-3.0038,-2.9884,-2.973,-2.9588,-2.9463,-2.9338,-2.9194,-2.9131,-2.9022,-2.8835,-2.8643,-2.8463,-2.8444,-2.8398,-2.8268,-2.8229,-2.8145,-2.8079,-2.8079,-2.8066,-2.8033,-2.7967,-2.8013,-2.8013,-2.798,-2.7947,-2.7947,-2.7947,-2.7947,-2.798,-2.798,-2.798,-2.7947,-2.7934,-2.7934,-2.798,-2.8013,-2.7947,-2.7947,-2.7914,-2.7769,-2.7616,-2.7449,-2.7482,-2.7482,-2.757,-2.7723,-2.7802,-2.7815,-2.7782,-2.7716,-2.7815,-2.7815,-2.7901,-2.7868,-2.7703,-2.7549,-2.7436,-2.7369,-2.7382,-2.7281,-2.7193,-2.7159,-2.718,-2.6943,-2.6829,-2.676,-2.6726,-3.3319,-3.3293,-3.3293,-3.3293,-3.3293,-3.3309,-3.3293,-3.3293,-3.3293,-3.3293,-3.3293,-3.3293,-3.3123,-3.2912,-3.2885,-3.2499,-3.2193,-3.194,-3.1668,-3.1409,-3.1161,-3.0984,-3.0836,-3.0672,-3.0612,-3.0612,-3.0612,-3.0612,-3.0612,-3.0612,-3.0612,-3.0612,-3.0612,-3.0612,-3.0612,-3.0612,-3.0612,-3.0612,-3.0612,-3.0612,-3.0612,-3.0612,-3.0612,-3.0582,-3.0538,-3.0447,-3.0296,-3.019,-3.0099,-2.996,-2.9806,-2.9699,-2.9668,-2.9432,-2.9257,-2.9099,-2.9022,-2.8958,-2.8908,-2.8862,-2.8862,-2.8862,-2.8812,-2.8651,-2.8554,-2.8457,-2.8425,-2.836,-2.8314,-2.8327,-2.8308,-2.8276,-2.8276,-2.8276,-2.8276,-2.8276,-2.8276,-2.8276,-2.8276,-2.8308,-2.8295,-2.8392,-2.8425,-2.8438,-2.836,-2.8425,-2.8392,-2.8262,-2.8099,-2.7934,-2.7835,-2.7835,-2.7921,-2.8072,-2.8066,-2.8046,-2.8046,-2.8079,-2.821,-2.8243,-2.8177,-2.8099,-2.8,-2.7901,-2.7835,-2.7835,-2.7835,-2.7749,-2.7616,-2.7683,-2.7703,-2.7335,-2.7066,-2.6998,-2.6863,-3.3176,-3.3165,-3.315,-3.315,-3.315,-3.3203,-3.3229,-3.3229,-3.3282,-3.3293,-3.3293,-3.3256,-3.3096,-3.2897,-3.28,-3.2499,-3.204,-3.1968,-3.1726,-3.1263,-3.1161,-3.0955,-3.0762,-3.0642,-3.0612,-3.0612,-3.0612,-3.0612,-3.0612,-3.0612,-3.0612,-3.0612,-3.0612,-3.0612,-3.0612,-3.0612,-3.0612,-3.0612,-3.0612,-3.0612,-3.0612,-3.0612,-3.0612,-3.0612,-3.0612,-3.0507,-3.0417,-3.0387,-3.0266,-3.0158,-2.9976,-2.9929,-2.9898,-2.9758,-2.9665,-2.954,-2.954,-2.9463,-2.9387,-2.9387,-2.9401,-2.9369,-2.9369,-2.9338,-2.9162,-2.9004,-2.883,-2.867,-2.8638,-2.8592,-2.8541,-2.849,-2.849,-2.8522,-2.8522,-2.8522,-2.8522,-2.8522,-2.8522,-2.8522,-2.8587,-2.8702,-2.8734,-2.878,-2.878,-2.878,-2.878,-2.8748,-2.8587,-2.8392,-2.8295,-2.8229,-2.8314,-2.8398,-2.8379,-2.8392,-2.849,-2.8554,-2.8619,-2.8619,-2.849,-2.8425,-2.8379,-2.8327,-2.8276,-2.8229,-2.8183,-2.8151,-2.8085,-2.8131,-2.8066,-2.7802,-2.7469,-2.7268,-2.71,-3.2864,-3.2819,-3.2881,-3.2939,-3.2939,-3.3032,-3.3069,-3.3096,-3.3203,-3.3266,-3.3256,-3.315,-3.3032,-3.2897,-3.2718,-3.2428,-3.2109,-3.2012,-3.1683,-3.1132,-3.1117,-3.0925,-3.0702,-3.0612,-3.0612,-3.0612,-3.0612,-3.0612,-3.0612,-3.0612,-3.0612,-3.0612,-3.0612,-3.0612,-3.0612,-3.0612,-3.0612,-3.0612,-3.0612,-3.0612,-3.0612,-3.0612,-3.0612,-3.0612,-3.0612,-3.0582,-3.0538,-3.0447,-3.0326,-3.0266,-3.0174,-3.0097,-3.005,-3.005,-3.0019,-3.0019,-2.9958,-2.9882,-2.9775,-2.9775,-2.9761,-2.9792,-2.9808,-2.9806,-2.9665,-2.9477,-2.9289,-2.9149,-2.9135,-2.9008,-2.8958,-2.8894,-2.8894,-2.8844,-2.8826,-2.8826,-2.8826,-2.8876,-2.8958,-2.899,-2.9117,-2.918,-2.9289,-2.932,-2.932,-2.9226,-2.9226,-2.9226,-2.9131,-2.894,-2.878,-2.8683,-2.8734,-2.8785,-2.8835,-2.8881,-2.9035,-2.9099,-2.9099,-2.9067,-2.9004,-2.8894,-2.8785,-2.8702,-2.8619,-2.8541,-2.8495,-2.8509,-2.8476,-2.8392,-2.8341,-2.821,-2.7947,-2.7669,-2.7369,-3.1644,-3.2164,-3.2678,-3.2912,-3.2912,-3.2924,-3.2951,-3.2951,-3.2978,-3.3096,-3.3256,-3.315,-3.3032,-3.2827,-3.2648,-3.2373,-3.2081,-3.1983,-3.1626,-3.1293,-3.1117,-3.0925,-3.0672,-3.0612,-3.0612,-3.0612,-3.0612,-3.0612,-3.0612,-3.0612,-3.0612,-3.0612,-3.0612,-3.0612,-3.0612,-3.0612,-3.0612,-3.0612,-3.0612,-3.0612,-3.0612,-3.0612,-3.0612,-3.0612,-3.0612,-3.0612,-3.0582,-3.0582,-3.0538,-3.0522,-3.0326,-3.0219,-3.0111,-3.0111,-3.008,-3.008,-3.0142,-3.0111,-3.008,-3.0066,-3.0066,-3.0036,-3.0036,-3.008,-3.0019,-2.9927,-2.9789,-2.9682,-2.9574,-2.9449,-2.9355,-2.9293,-2.9261,-2.9226,-2.9176,-2.9176,-2.9176,-2.9289,-2.9387,-2.9481,-2.9605,-2.9682,-2.9758,-2.9803,-2.9865,-2.9865,-2.9865,-2.9865,-2.9803,-2.9634,-2.932,-2.9226,-2.9135,-2.9184,-2.9247,-2.9324,-2.9446,-2.9477,-2.9477,-2.9477,-2.9477,-2.9369,-2.9198,-2.9053,-2.894,-2.8958,-2.8958,-2.8926,-2.8908,-2.8748,-2.8651,-2.8541,-2.836,-2.8131,-2.7802,-3.0835,-3.1217,-3.1866,-3.2346,-3.2563,-3.2718,-3.2773,-3.2788,-3.287,-3.2978,-3.3069,-3.2962,-3.2827,-3.273,-3.2578,-3.2345,-3.2053,-3.2012,-3.1683,-3.1336,-3.1117,-3.0925,-3.0762,-3.0642,-3.0612,-3.0612,-3.0612,-3.0612,-3.0612,-3.0612,-3.0612,-3.0612,-3.0612,-3.0612,-3.0612,-3.0612,-3.0612,-3.0612,-3.0612,-3.0612,-3.0612,-3.0612,-3.0612,-3.0612,-3.0612,-3.0612,-3.0612,-3.0612,-3.0612,-3.0612,-3.0477,-3.0417,-3.0371,-3.0341,-3.0355,-3.0341,-3.0341,-3.0325,-3.0325,-3.0325,-3.0325,-3.0325,-3.0325,-3.0371,-3.0371,-3.0249,-3.0142,-3.0005,-2.9913,-2.9789,-2.9789,-2.9727,-2.9727,-2.9679,-2.9679,-2.9679,-2.9679,-2.9727,-2.9775,-2.982,-2.9882,-2.9913,-2.9958,-2.9958,-2.9988,-3.0019,-3.008,-3.0142,-3.0142,-3.0233,-2.9927,-2.9758,-2.9699,-2.9637,-2.9713,-2.9758,-2.9789,-2.9834,-2.9851,-2.9834,-2.9834,-2.9744,-2.9605,-2.9509,-2.9446,-2.9495,-2.9495,-2.9401,-2.9275,-2.9103,-2.9008,-2.8912,-2.8734,-2.8554,-2.8262,-3.0048,-3.0158,-3.0785,-3.1442,-3.205,-3.2317,-3.2446,-3.2578,-3.2746,-3.2816,-3.28,-3.2648,-3.2594,-3.2551,-3.2453,-3.2219,-3.2081,-3.204,-3.1697,-3.1351,-3.119,-3.0984,-3.0821,-3.0702,-3.0642,-3.0612,-3.0612,-3.0612,-3.0612,-3.0612,-3.0612,-3.0612,-3.0612,-3.0612,-3.0612,-3.0612,-3.0612,-3.0612,-3.0612,-3.0598,-3.0598,-3.0612,-3.0612,-3.0612,-3.0612,-3.0612,-3.0612,-3.0612,-3.0612,-3.0612,-3.0598,-3.0612,-3.0628,-3.0612,-3.0672,-3.0672,-3.0672,-3.0672,-3.0672,-3.0642,-3.0672,-3.0657,-3.0672,-3.0672,-3.0642,-3.0582,-3.0446,-3.0385,-3.0264,-3.0142,-3.0142,-3.0111,-3.0111,-3.008,-3.008,-3.008,-3.0097,-3.0097,-3.0127,-3.0172,-3.0203,-3.0203,-3.0233,-3.0233,-3.0233,-3.0203,-3.0203,-3.0233,-3.0294,-3.0446,-3.0416,-3.0325,-3.028,-3.0249,-3.0172,-3.0172,-3.0233,-3.0325,-3.0371,-3.0264,-3.0142,-3.0052,-2.9991,-2.9974,-2.9958,-2.9882,-2.9837,-2.9775,-2.9605,-2.9467,-2.9373,-2.9293,-2.9117,-2.894,-2.8702,-2.8753,-2.9275,-2.9966,-3.0593,-3.1214,-3.1396,-3.1769,-3.2256,-3.2425,-3.2496,-3.2496,-3.2496,-3.2496,-3.2594,-3.2453,-3.2274,-3.2053,-3.2012,-3.1726,-3.1351,-3.1278,-3.1058,-3.0881,-3.0821,-3.0702,-3.0672,-3.0657,-3.0598,-3.0672,-3.0672,-3.0598,-3.0598,-3.0612,-3.0612,-3.0612,-3.0612,-3.0628,-3.0672,-3.0672,-3.0702,-3.0717,-3.0702,-3.0612,-3.0612,-3.0612,-3.0612,-3.0612,-3.0612,-3.0612,-3.0628,-3.0687,-3.0762,-3.0791,-3.0881,-3.091,-3.091,-3.091,-3.0925,-3.0925,-3.0925,-3.091,-3.0925,-3.0925,-3.0925,-3.0925,-3.0925,-3.0836,-3.0806,-3.0687,-3.0462,-3.0401,-3.0371,-3.0341,-3.0219,-3.0203,-3.0264,-3.031,-3.0371,-3.0401,-3.0522,-3.0627,-3.0687,-3.0776,-3.0776,-3.0776,-3.0776,-3.0746,-3.0746,-3.0717,-3.0806,-3.085,-3.0806,-3.0776,-3.0702,-3.0538,-3.0582,-3.0657,-3.0776,-3.0836,-3.0657,-3.0492,-3.0326,-3.0266,-3.0325,-3.0233,-3.0142,-3.0097,-3.0144,-3.0021,-2.9929,-2.9792,-2.9668,-2.9526,-2.932,-2.9053]},{"header":{"parameterUnit":"m.s-1","parameterCategory":1,"la1":31.0,"la2":29.5877,"lo1":-88.7671,"lo2":-86.6584,"dy":0.0162,"dx":0.0185,"nx":115,"ny":88,"refTime":"2025-05-24T12:00:00:Z","depth":0,"parameterNumber":3,"parameterNumberName":"V-component_of_WINDS"},"data":[0.0,0.0,0.0,0.0,0.0,0.0,0.0,0.0,0.0,0.0,0.0,0.0,0.0,0.0,0.0,0.0,0.0,0.0,0.0,0.0,0.0,0.0,0.0,0.0,0.0,0.0,0.0,0.0,0.0,0.0,0.0,0.0,0.0,0.0,0.0,0.0,0.0,0.0,0.0,0.0,0.0,0.0,0.0,0.0,0.0,0.0,0.0,0.0,0.0,0.0,0.0,0.0,0.0,0.0,0.0,0.0,0.0,0.0,0.0,0.0,0.0,0.0,0.0,0.0,0.0,0.0,0.0,0.0,0.0,0.0,0.0,0.0,0.0,0.0,0.0,0.0,0.0,0.0,0.0,0.0,0.0,0.0,0.0,0.0,0.0,0.0,0.0,0.0,0.0,0.0,0.0,0.0,0.0,0.0,0.0,0.0,0.0,0.0,0.0,0.0,0.0,0.0,0.0,0.0,0.0,0.0,0.0,0.0,0.0,0.0,0.0,0.0,0.0,0.0,0.0,0.0,0.0,0.0,0.0,0.0,0.0,0.0,0.0,0.0,0.0,0.0,0.0,0.0,0.0,0.0,0.0,0.0,0.0,0.0,0.0,0.0,0.0,0.0,0.0,0.0,0.0,0.0,0.0,0.0,0.0,0.0,0.0,0.0,0.0,0.0,0.0,0.0,0.0,0.0,0.0,0.0,0.0,0.0,0.0,0.0,0.0,0.0,0.0,0.0,0.0,0.0,0.0,0.0,0.0,0.0,0.0,0.0,0.0,0.0,0.0,0.0,0.0,0.0,0.0,0.0,0.0,0.0,0.0,0.0,0.0,0.0,0.0,0.0,0.0,0.0,0.0,0.0,0.0,0.0,0.0,0.0,0.0,0.0,0.0,0.0,0.0,0.0,0.0,0.0,0.0,0.0,0.0,0.0,0.0,0.0,0.0,0.0,0.0,0.0,0.0,0.0,0.0,0.0,0.0,0.0,0.0,0.0,0.0,0.0,0.0,0.0,0.0,0.0,0.0,0.0,0.0,0.0,0.0,0.0,0.0,0.0,0.0,0.0,0.0,0.0,0.0,0.0,0.0,0.0,0.0,0.0,0.0,0.0,0.0,0.0,0.0,0.0,0.0,0.0,0.0,0.0,0.0,0.0,0.0,0.0,0.0,0.0,0.0,0.0,0.0,0.0,0.0,0.0,0.0,0.0,0.0,0.0,0.0,0.0,0.0,0.0,0.0,0.0,0.0,0.0,0.0,0.0,0.0,0.0,0.0,0.0,0.0,0.0,0.0,0.0,0.0,0.0,0.0,0.0,0.0,0.0,0.0,0.0,0.0,0.0,0.0,0.0,0.0,0.0,0.0,0.0,0.0,0.0,0.0,0.0,0.0,0.0,0.0,0.0,0.0,0.0,0.0,0.0,0.0,0.0,0.0,0.0,0.0,0.0,0.0,0.0,0.0,0.0,0.0,0.0,0.0,0.0,0.0,0.0,0.0,0.0,0.0,0.0,0.0,0.0,0.0,0.0,0.0,0.0,0.0,0.0,0.0,0.0,0.0,0.0,0.0,0.0,0.0,0.0,0.0,0.0,0.0,0.0,0.0,0.0,0.0,0.0,0.0,0.0,0.0,0.0,0.0,0.0,0.0,0.0,0.0,0.0,0.0,0.0,0.0,0.0,0.0,0.0,0.0,0.0,0.0,0.0,0.0,0.0,0.0,0.0,0.0,0.0,0.0,0.0,0.0,0.0,0.0,0.0,0.0,0.0,0.0,0.0,0.0,0.0,0.0,0.0,0.0,0.0,0.0,0.0,0.0,0.0,0.0,0.0,0.0,0.0,0.0,0.0,0.0,0.0,0.0,0.0,0.0,0.0,0.0,0.0,0.0,0.0,0.0,0.0,0.0,0.0,0.0,0.0,0.0,0.0,0.0,0.0,0.0,0.0,0.0,0.0,0.0,0.0,0.0,0.0,0.0,0.0,0.0,0.0,0.0,0.0,0.0,0.0,0.0,0.0,0.0,0.0,0.0,0.0,0.0,0.0,0.0,0.0,0.0,0.0,0.0,0.0,0.0,0.0,0.0,0.0,0.0,0.0,0.0,0.0,0.0,0.0,0.0,0.0,0.0,0.0,0.0,0.0,0.0,0.0,0.0,0.0,0.0,0.0,0.0,0.0,0.0,0.0,0.0,0.0,0.0,0.0,0.0,0.0,0.0,0.0,0.0,0.0,0.0,0.0,0.0,0.0,0.0,0.0,0.0,0.0,0.0,0.0,0.0,0.0,0.0,0.0,0.0,0.0,0.0,0.0,0.0,0.0,0.0,0.0,0.0,0.0,0.0,0.0,0.0,0.0,0.0,0.0,0.0,0.0,0.0,0.0,0.0,0.0,0.0,0.0,0.0,0.0,0.0,0.0,0.0,0.0,0.0,0.0,0.0,0.0,0.0,0.0,0.0,0.0,0.0,0.0,0.0,0.0,0.0,0.0,0.0,0.0,0.0,0.0,0.0,0.0,0.0,0.0,0.0,0.0,0.0,0.0,0.0,0.0,0.0,0.0,0.0,0.0,0.0,0.0,0.0,0.0,0.0,0.0,0.0,0.0,0.0,0.0,0.0,0.0,0.0,0.0,0.0,0.0,0.0,0.0,0.0,0.0,0.0,0.0,0.0,0.0,0.0,0.0,0.0,0.0,0.0,0.0,0.0,0.0,0.0,0.0,0.0,0.0,0.0,0.0,0.0,0.0,0.0,0.0,0.0,0.0,0.0,0.0,0.0,0.0,0.0,0.0,0.0,0.0,0.0,0.0,0.0,0.0,0.0,0.0,0.0,0.0,0.0,0.0,0.0,0.0,0.0,0.0,0.0,0.0,0.0,0.0,0.0,0.0,0.0,0.0,0.0,0.0,0.0,0.0,0.0,0.0,0.0,0.0,0.0,0.0,0.0,0.0,0.0,0.0,0.0,0.0,0.0,0.0,0.0,0.0,0.0,0.0,0.0,0.0,0.0,0.0,0.0,0.0,0.0,0.0,0.0,0.0,0.0,0.0,0.0,0.0,0.0,0.0,0.0,0.0,0.0,0.0,0.0,0.0,0.0,0.0,0.0,0.0,0.0,0.0,0.0,0.0,0.0,0.0,0.0,0.0,0.0,0.0,0.0,0.0,0.0,0.0,0.0,0.0,0.0,0.0,0.0,0.0,0.0,0.0,0.0,0.0,0.0,0.0,0.0,0.0,0.0,0.0,0.0,0.0,0.0,0.0,0.0,0.0,0.0,0.0,0.0,0.0,0.0,0.0,0.0,0.0,0.0,0.0,0.0,0.0,0.0,0.0,0.0,0.0,0.0,0.0,0.0,0.0,0.0,0.0,0.0,0.0,0.0,0.0,0.0,0.0,0.0,0.0,0.0,0.0,0.0,0.0,0.0,0.0,0.0,0.0,0.0,0.0,0.0,0.0,0.0,0.0,0.0,0.0,0.0,0.0,0.0,0.0,0.0,0.0,0.0,0.0,0.0,0.0,0.0,0.0,0.0,0.0,0.0,0.0,0.0,0.0,0.0,0.0,0.0,0.0,0.0,0.0,0.0,0.0,0.0,0.0,0.0,0.0,0.0,0.0,0.0,0.0,0.0,0.0,0.0,0.0,0.0,0.0,0.0,0.0,0.0,0.0,0.0,0.0,0.0,0.0,0.0,0.0,0.0,0.0,0.0,0.0,0.0,0.0,0.0,0.0,0.0,0.0,0.0,0.0,0.0,0.0,0.0,0.0,0.0,0.0,0.0,0.0,0.0,0.0,0.0,0.0,0.0,0.0,0.0,0.0,0.0,0.0,0.0,0.0,0.0,0.0,0.0,0.0,0.0,0.0,0.0,0.0,0.0,0.0,0.0,0.0,0.0,0.0,0.0,0.0,0.0,0.0,0.0,0.0,0.0,0.0,0.0,0.0,0.0,0.0,0.0,0.0,0.0,0.0,0.0,0.0,0.0,0.0,0.0,0.0,0.0,0.0,0.0,0.0,0.0,0.0,0.0,0.0,0.0,0.0,0.0,0.0,0.0,0.0,0.0,0.0,0.0,0.0,0.0,0.0,0.0,0.0,0.0,0.0,0.0,0.0,0.0,0.0,0.0,0.0,0.0,0.0,0.0,0.0,0.0,0.0,0.0,0.0,0.0,0.0,0.0,0.0,0.0,0.0,0.0,0.0,0.0,0.0,0.0,0.0,0.0,0.0,0.0,0.0,0.0,0.0,0.0,0.0,0.0,0.0,0.0,0.0,0.0,0.0,0.0,0.0,0.0,0.0,-0.8845,0.0,0.0,0.0,0.0,0.0,0.0,0.0,0.0,0.0,0.0,0.0,0.0,0.0,0.0,0.0,0.0,0.0,0.0,0.0,0.0,0.0,0.0,0.0,0.0,0.0,0.0,0.0,0.0,0.0,0.0,0.0,0.0,0.0,0.0,0.0,0.0,0.0,0.0,0.0,0.0,0.0,0.0,0.0,0.0,0.0,0.0,0.0,0.0,0.0,0.0,0.0,0.0,0.0,0.0,0.0,0.0,0.0,0.0,0.0,0.0,0.0,0.0,0.0,0.0,0.0,0.0,0.0,0.0,0.0,0.0,0.0,0.0,0.0,0.0,0.0,0.0,0.0,0.0,0.0,0.0,0.0,0.0,0.0,0.0,0.0,0.0,0.0,0.0,0.0,0.0,0.0,0.0,0.0,0.0,0.0,0.0,0.0,0.0,0.0,0.0,0.0,0.0,0.0,0.0,0.0,0.0,0.0,0.0,0.0,0.0,-1.0518,-1.0385,-1.0224,-0.9941,-0.9504,0.0,0.0,0.0,0.0,0.0,0.0,0.0,0.0,0.0,0.0,0.0,0.0,0.0,0.0,0.0,0.0,0.0,0.0,0.0,0.0,0.0,0.0,0.0,0.0,0.0,0.0,0.0,0.0,0.0,0.0,0.0,0.0,0.0,0.0,0.0,0.0,0.0,0.0,0.0,0.0,0.0,0.0,0.0,0.0,0.0,0.0,0.0,0.0,0.0,0.0,0.0,0.0,0.0,0.0,0.0,0.0,0.0,0.0,0.0,0.0,0.0,0.0,0.0,0.0,0.0,0.0,0.0,0.0,0.0,0.0,0.0,0.0,0.0,0.0,0.0,0.0,0.0,0.0,0.0,0.0,0.0,0.0,0.0,0.0,0.0,0.0,0.0,0.0,0.0,0.0,0.0,0.0,0.0,0.0,0.0,0.0,0.0,0.0,0.0,0.0,0.0,0.0,0.0,0.0,0.0,0.0,0.0,0.0,0.0,0.0,0.0,0.0,-1.1143,-1.069,-0.9933,0.0,0.0,0.0,0.0,0.0,0.0,0.0,0.0,0.0,0.0,0.0,0.0,0.0,0.0,0.0,0.0,0.0,0.0,0.0,0.0,0.0,0.0,0.0,0.0,0.0,0.0,0.0,0.0,0.0,0.0,0.0,0.0,0.0,0.0,0.0,0.0,0.0,0.0,0.0,0.0,0.0,0.0,0.0,0.0,0.0,0.0,0.0,0.0,0.0,0.0,0.0,0.0,0.0,0.0,0.0,0.0,0.0,0.0,0.0,0.0,0.0,0.0,0.0,0.0,0.0,0.0,0.0,0.0,0.0,0.0,0.0,0.0,0.0,0.0,0.0,0.0,0.0,0.0,0.0,0.0,0.0,0.0,0.0,0.0,0.0,0.0,0.0,0.0,0.0,0.0,0.0,0.0,0.0,0.0,0.0,0.0,0.0,0.0,0.0,0.0,0.0,0.0,0.0,0.0,0.0,0.0,0.0,0.0,0.0,0.0,-1.1564,-1.1478,-1.1285,0.0,-1.0013,0.0,0.0,0.0,0.0,0.0,0.0,0.0,0.0,0.0,0.0,0.0,0.0,0.0,0.0,0.0,0.0,0.0,0.0,0.0,0.0,0.0,0.0,0.0,0.0,0.0,0.0,0.0,0.0,0.0,0.0,0.0,0.0,0.0,0.0,0.0,0.0,0.0,0.0,0.0,0.0,0.0,0.0,0.0,0.0,0.0,0.0,0.0,0.0,0.0,0.0,0.0,0.0,0.0,0.0,0.0,0.0,0.0,0.0,0.0,0.0,0.0,0.0,0.0,0.0,0.0,0.0,0.0,0.0,0.0,0.0,0.0,0.0,0.0,0.0,0.0,0.0,0.0,0.0,0.0,0.0,0.0,0.0,0.0,0.0,0.0,0.0,0.0,0.0,0.0,0.0,0.0,0.0,0.0,0.0,0.0,0.0,0.0,0.0,0.0,0.0,0.0,0.0,0.0,0.0,0.0,0.0,0.0,0.0,0.0,0.0,-1.1863,-1.2144,-1.1959,-1.1298,0.0,0.0,0.0,0.0,0.0,0.0,0.0,0.0,0.0,0.0,0.0,0.0,0.0,0.0,0.0,0.0,0.0,0.0,0.0,0.0,0.0,0.0,0.0,0.0,0.0,0.0,0.0,0.0,0.0,0.0,0.0,0.0,0.0,0.0,0.0,0.0,0.0,0.0,0.0,0.0,0.0,0.0,0.0,0.0,0.0,0.0,0.0,0.0,0.0,0.0,0.0,0.0,0.0,0.0,0.0,0.0,0.0,0.0,0.0,0.0,0.0,0.0,0.0,0.0,0.0,0.0,0.0,0.0,0.0,0.0,0.0,0.0,0.0,0.0,0.0,0.0,0.0,0.0,0.0,0.0,0.0,0.0,0.0,0.0,0.0,0.0,0.0,0.0,0.0,0.0,0.0,0.0,0.0,0.0,0.0,0.0,0.0,0.0,0.0,0.0,0.0,0.0,0.0,0.0,0.0,0.0,0.0,0.0,0.0,0.0,-1.1859,0.0,-1.2302,-1.217,-1.1621,-1.0584,0.0,0.0,0.0,0.0,0.0,0.0,0.0,0.0,0.0,0.0,0.0,0.0,0.0,0.0,0.0,0.0,0.0,0.0,0.0,0.0,0.0,0.0,0.0,0.0,0.0,0.0,0.0,0.0,0.0,0.0,0.0,0.0,0.0,0.0,0.0,0.0,0.0,0.0,0.0,0.0,0.0,0.0,0.0,0.0,0.0,0.0,0.0,0.0,0.0,0.0,0.0,0.0,0.0,0.0,0.0,0.0,0.0,0.0,0.0,0.0,0.0,0.0,0.0,0.0,0.0,0.0,0.0,0.0,0.0,0.0,0.0,0.0,0.0,0.0,0.0,0.0,0.0,0.0,0.0,0.0,0.0,0.0,0.0,0.0,0.0,0.0,0.0,0.0,0.0,0.0,0.0,0.0,0.0,0.0,0.0,0.0,0.0,0.0,0.0,0.0,0.0,0.0,0.0,0.0,0.0,0.0,0.0,0.0,0.0,-1.1949,-1.182,-1.1685,-1.1634,-1.1563,0.0,0.0,0.0,0.0,0.0,0.0,0.0,0.0,0.0,0.0,0.0,0.0,0.0,0.0,0.0,0.0,0.0,0.0,0.0,0.0,0.0,0.0,0.0,0.0,0.0,0.0,0.0,0.0,0.0,0.0,0.0,0.0,0.0,0.0,0.0,0.0,0.0,0.0,0.0,0.0,0.0,0.0,0.0,0.0,0.0,0.0,0.0,0.0,0.0,0.0,0.0,0.0,0.0,0.0,0.0,0.0,0.0,0.0,0.0,0.0,0.0,0.0,0.0,0.0,0.0,0.0,0.0,0.0,0.0,0.0,0.0,0.0,0.0,0.0,0.0,0.0,0.0,0.0,0.0,0.0,0.0,0.0,0.0,0.0,0.0,0.0,0.0,0.0,0.0,0.0,0.0,0.0,0.0,0.0,0.0,0.0,0.0,0.0,0.0,0.0,0.0,0.0,0.0,0.0,0.0,0.0,0.0,0.0,0.0,-1.2085,-1.2427,-1.235,-1.185,-1.2209,-1.2183,0.0,0.0,0.0,0.0,0.0,0.0,0.0,0.0,0.0,0.0,0.0,0.0,0.0,0.0,0.0,0.0,0.0,0.0,0.0,0.0,0.0,0.0,0.0,0.0,0.0,0.0,0.0,0.0,0.0,0.0,0.0,0.0,0.0,0.0,0.0,0.0,0.0,0.0,0.0,0.0,0.0,0.0,0.0,0.0,0.0,0.0,0.0,0.0,0.0,0.0,0.0,0.0,0.0,0.0,0.0,0.0,0.0,0.0,0.0,0.0,0.0,0.0,0.0,0.0,0.0,0.0,0.0,0.0,0.0,0.0,0.0,0.0,0.0,0.0,0.0,0.0,0.0,0.0,0.0,0.0,0.0,0.0,0.0,0.0,0.0,0.0,0.0,0.0,0.0,0.0,0.0,0.0,0.0,0.0,0.0,0.0,0.0,0.0,0.0,0.0,0.0,0.0,0.0,0.0,0.0,0.0,0.0,0.0,0.0,-1.2148,0.0,-1.2468,0.0,-1.2383,-1.2332,0.0,0.0,0.0,0.0,0.0,0.0,0.0,0.0,0.0,0.0,0.0,0.0,0.0,0.0,0.0,0.0,0.0,0.0,0.0,0.0,0.0,0.0,0.0,0.0,0.0,0.0,0.0,0.0,0.0,0.0,0.0,0.0,0.0,0.0,0.0,0.0,0.0,0.0,0.0,0.0,0.0,0.0,0.0,0.0,0.0,0.0,0.0,0.0,0.0,0.0,0.0,0.0,0.0,0.0,0.0,0.0,0.0,0.0,0.0,0.0,0.0,0.0,0.0,0.0,0.0,0.0,0.0,0.0,0.0,0.0,0.0,0.0,0.0,0.0,0.0,0.0,0.0,0.0,0.0,0.0,0.0,0.0,0.0,0.0,0.0,0.0,0.0,0.0,0.0,0.0,0.0,0.0,0.0,0.0,0.0,0.0,0.0,0.0,0.0,0.0,0.0,0.0,0.0,0.0,0.0,0.0,0.0,0.0,-1.2241,-1.2215,-1.2194,-1.2219,-1.2116,-1.2094,-1.2032,0.0,0.0,0.0,0.0,0.0,0.0,0.0,0.0,0.0,0.0,0.0,0.0,0.0,0.0,0.0,0.0,0.0,0.0,0.0,0.0,0.0,0.0,0.0,0.0,0.0,0.0,0.0,0.0,0.0,0.0,0.0,0.0,0.0,0.0,0.0,0.0,0.0,0.0,0.0,0.0,0.0,0.0,0.0,0.0,0.0,0.0,0.0,0.0,0.0,0.0,0.0,0.0,0.0,0.0,0.0,0.0,0.0,0.0,0.0,0.0,0.0,0.0,0.0,0.0,0.0,0.0,0.0,0.0,0.0,0.0,0.0,0.0,0.0,0.0,0.0,0.0,0.0,0.0,0.0,0.0,0.0,0.0,0.0,0.0,0.0,0.0,0.0,0.0,0.0,0.0,0.0,0.0,0.0,0.0,0.0,0.0,0.0,0.0,0.0,0.0,0.0,0.0,0.0,0.0,0.0,0.0,0.0,0.0,0.0,-1.2893,-1.3317,-1.3336,-1.2875,-1.2849,-1.2597,0.0,0.0,0.0,0.0,0.0,0.0,0.0,0.0,0.0,0.0,0.0,0.0,0.0,0.0,0.0,0.0,0.0,0.0,0.0,0.0,0.0,0.0,0.0,0.0,0.0,0.0,0.0,0.0,0.0,0.0,0.0,0.0,0.0,0.0,0.0,0.0,0.0,0.0,0.0,0.0,0.0,0.0,0.0,0.0,0.0,0.0,0.0,0.0,0.0,0.0,0.0,0.0,0.0,0.0,0.0,0.0,0.0,0.0,0.0,0.0,0.0,0.0,0.0,0.0,0.0,0.0,0.0,0.0,0.0,0.0,0.0,0.0,0.0,0.0,0.0,0.0,0.0,0.0,0.0,0.0,0.0,0.0,0.0,0.0,0.0,0.0,0.0,0.0,0.0,0.0,0.0,0.0,0.0,0.0,0.0,0.0,0.0,0.0,0.0,0.0,0.0,0.0,0.0,0.0,0.0,0.0,0.0,0.0,0.0,-1.4286,-1.4236,-1.4006,-1.3586,-1.334,-1.2979,-1.2511,0.0,0.0,0.0,0.0,0.0,0.0,0.0,0.0,0.0,0.0,0.0,0.0,0.0,0.0,0.0,0.0,0.0,0.0,0.0,0.0,0.0,0.0,0.0,0.0,0.0,0.0,0.0,0.0,0.0,0.0,0.0,0.0,0.0,0.0,0.0,0.0,0.0,0.0,0.0,0.0,0.0,0.0,0.0,0.0,0.0,0.0,0.0,0.0,0.0,0.0,0.0,0.0,0.0,0.0,0.0,0.0,0.0,0.0,0.0,0.0,0.0,0.0,0.0,0.0,0.0,0.0,0.0,0.0,0.0,0.0,0.0,0.0,0.0,0.0,0.0,0.0,0.0,0.0,0.0,0.0,0.0,0.0,0.0,0.0,0.0,0.0,0.0,0.0,0.0,0.0,0.0,0.0,0.0,0.0,0.0,0.0,0.0,0.0,0.0,0.0,0.0,0.0,0.0,0.0,0.0,0.0,0.0,0.0,-1.6193,-1.5006,-1.4363,-1.4301,-1.3698,-1.3278,0.0,0.0,0.0,0.0,0.0,0.0,0.0,0.0,0.0,0.0,0.0,0.0,0.0,0.0,0.0,0.0,0.0,0.0,0.0,0.0,0.0,0.0,0.0,0.0,0.0,0.0,0.0,0.0,0.0,0.0,0.0,0.0,0.0,0.0,0.0,0.0,0.0,0.0,0.0,0.0,0.0,0.0,0.0,0.0,0.0,0.0,0.0,0.0,0.0,0.0,0.0,0.0,0.0,0.0,0.0,0.0,0.0,0.0,0.0,0.0,0.0,0.0,0.0,0.0,0.0,0.0,0.0,0.0,0.0,0.0,0.0,0.0,0.0,0.0,0.0,0.0,0.0,0.0,0.0,0.0,0.0,0.0,0.0,0.0,0.0,0.0,0.0,0.0,0.0,0.0,0.0,0.0,0.0,0.0,0.0,0.0,0.0,0.0,0.0,0.0,0.0,0.0,0.0,0.0,0.0,0.0,0.0,0.0,0.0,-1.6162,-1.6332,-1.6193,-1.5685,-1.5024,-1.4221,0.0,0.0,0.0,0.0,0.0,0.0,0.0,0.0,0.0,0.0,0.0,0.0,0.0,0.0,0.0,0.0,0.0,0.0,0.0,0.0,0.0,0.0,0.0,0.0,0.0,0.0,0.0,0.0,0.0,0.0,0.0,0.0,0.0,0.0,0.0,0.0,0.0,0.0,0.0,0.0,0.0,0.0,0.0,0.0,0.0,0.0,0.0,0.0,0.0,0.0,0.0,0.0,0.0,0.0,0.0,0.0,0.0,0.0,0.0,0.0,0.0,0.0,0.0,0.0,0.0,0.0,0.0,0.0,0.0,0.0,0.0,0.0,0.0,0.0,0.0,0.0,0.0,0.0,0.0,0.0,0.0,0.0,0.0,0.0,0.0,0.0,0.0,0.0,0.0,0.0,0.0,0.0,0.0,0.0,0.0,0.0,0.0,0.0,0.0,0.0,0.0,0.0,0.0,0.0,0.0,0.0,0.0,0.0,-1.61,-1.7024,-1.7423,-1.7592,-1.7515,-1.6285,-1.5006,0.0,0.0,0.0,0.0,0.0,0.0,0.0,0.0,0.0,0.0,0.0,0.0,0.0,0.0,0.0,0.0,0.0,0.0,0.0,0.0,0.0,0.0,0.0,0.0,0.0,0.0,0.0,0.0,0.0,0.0,0.0,0.0,0.0,0.0,0.0,0.0,0.0,0.0,0.0,0.0,0.0,0.0,0.0,0.0,0.0,0.0,0.0,0.0,0.0,0.0,0.0,0.0,0.0,0.0,0.0,0.0,0.0,0.0,0.0,0.0,0.0,0.0,0.0,0.0,0.0,0.0,0.0,0.0,0.0,0.0,0.0,0.0,0.0,0.0,0.0,0.0,0.0,0.0,0.0,0.0,0.0,0.0,0.0,0.0,0.0,0.0,0.0,0.0,0.0,0.0,0.0,0.0,0.0,0.0,0.0,0.0,0.0,0.0,0.0,0.0,0.0,0.0,0.0,0.0,0.0,0.0,0.0,0.0,-1.6916,-1.8161,-1.8284,-1.8622,-1.921,-1.7361,-1.5716,0.0,0.0,0.0,0.0,0.0,0.0,0.0,0.0,0.0,0.0,0.0,0.0,0.0,0.0,0.0,0.0,0.0,0.0,0.0,0.0,0.0,0.0,0.0,0.0,0.0,0.0,0.0,0.0,0.0,0.0,0.0,0.0,0.0,0.0,0.0,0.0,0.0,0.0,0.0,0.0,0.0,0.0,0.0,0.0,0.0,0.0,0.0,0.0,0.0,0.0,0.0,0.0,0.0,0.0,0.0,0.0,0.0,0.0,0.0,0.0,0.0,0.0,0.0,0.0,0.0,0.0,0.0,0.0,0.0,0.0,0.0,0.0,0.0,0.0,0.0,0.0,0.0,0.0,0.0,0.0,0.0,0.0,0.0,0.0,0.0,0.0,0.0,0.0,0.0,0.0,0.0,0.0,0.0,0.0,0.0,0.0,0.0,0.0,0.0,0.0,0.0,0.0,0.0,0.0,0.0,0.0,0.0,0.0,-1.7377,-1.8192,-1.8761,-1.9148,-1.9271,-1.7807,-1.6636,0.0,0.0,0.0,0.0,0.0,0.0,0.0,0.0,0.0,0.0,0.0,0.0,0.0,0.0,0.0,0.0,0.0,0.0,0.0,0.0,0.0,0.0,0.0,0.0,0.0,0.0,0.0,0.0,0.0,0.0,0.0,0.0,0.0,0.0,0.0,0.0,0.0,0.0,0.0,0.0,0.0,0.0,0.0,0.0,0.0,0.0,0.0,0.0,-1.2914,0.0,0.0,0.0,0.0,0.0,0.0,0.0,0.0,0.0,0.0,0.0,0.0,0.0,0.0,0.0,0.0,0.0,0.0,0.0,0.0,0.0,0.0,0.0,0.0,0.0,0.0,0.0,0.0,0.0,0.0,0.0,0.0,0.0,0.0,0.0,0.0,0.0,0.0,0.0,0.0,0.0,0.0,0.0,0.0,0.0,0.0,0.0,0.0,0.0,0.0,0.0,0.0,0.0,0.0,0.0,0.0,0.0,0.0,0.0,-1.8007,-1.8715,-1.9409,-1.9765,-1.9718,-1.847,-1.7296,0.0,0.0,0.0,0.0,0.0,0.0,0.0,0.0,0.0,0.0,0.0,0.0,0.0,0.0,0.0,0.0,0.0,0.0,0.0,0.0,0.0,0.0,0.0,0.0,0.0,0.0,0.0,0.0,0.0,0.0,0.0,0.0,0.0,0.0,0.0,0.0,0.0,0.0,0.0,0.0,0.0,0.0,0.0,0.0,0.0,0.0,0.0,0.0,0.0,0.0,0.0,0.0,0.0,0.0,0.0,0.0,0.0,0.0,0.0,0.0,0.0,0.0,0.0,0.0,0.0,0.0,0.0,0.0,0.0,0.0,0.0,0.0,0.0,0.0,0.0,0.0,0.0,0.0,0.0,0.0,0.0,0.0,0.0,0.0,0.0,0.0,0.0,0.0,0.0,0.0,0.0,0.0,0.0,0.0,0.0,0.0,0.0,0.0,0.0,0.0,0.0,0.0,0.0,0.0,0.0,0.0,0.0,-1.7469,-1.8499,-1.9132,-1.9903,-2.0258,-2.0167,-1.9028,-1.7833,-1.6528,0.0,0.0,0.0,0.0,0.0,0.0,0.0,0.0,0.0,0.0,0.0,0.0,0.0,0.0,0.0,0.0,0.0,0.0,0.0,0.0,0.0,0.0,0.0,0.0,0.0,0.0,0.0,0.0,0.0,0.0,0.0,0.0,0.0,0.0,0.0,0.0,0.0,0.0,-1.0474,-1.2281,0.0,0.0,0.0,0.0,0.0,0.0,0.0,0.0,-1.4149,0.0,0.0,0.0,0.0,0.0,0.0,0.0,0.0,0.0,0.0,0.0,0.0,0.0,0.0,0.0,0.0,0.0,0.0,0.0,0.0,0.0,0.0,0.0,0.0,0.0,0.0,0.0,0.0,0.0,0.0,0.0,0.0,0.0,0.0,0.0,0.0,0.0,0.0,0.0,0.0,0.0,0.0,0.0,0.0,0.0,0.0,0.0,0.0,0.0,0.0,0.0,0.0,0.0,0.0,0.0,0.0,-1.5362,-1.7239,-1.8268,-1.8391,-1.969,-2.011,-1.9554,-1.8858,-1.8139,-1.7352,0.0,0.0,0.0,0.0,0.0,0.0,0.0,0.0,0.0,0.0,0.0,0.0,0.0,0.0,0.0,0.0,0.0,0.0,0.0,0.0,0.0,0.0,0.0,0.0,0.0,0.0,0.0,0.0,0.0,0.0,0.0,0.0,0.0,0.0,0.0,0.0,0.0,0.0,0.0,-1.3701,-1.4597,0.0,0.0,0.0,0.0,0.0,0.0,0.0,0.0,-1.4986,0.0,0.0,0.0,0.0,0.0,0.0,0.0,0.0,0.0,0.0,0.0,0.0,0.0,0.0,0.0,0.0,0.0,0.0,0.0,0.0,0.0,0.0,0.0,0.0,0.0,0.0,0.0,0.0,0.0,0.0,0.0,0.0,0.0,0.0,0.0,0.0,0.0,0.0,0.0,0.0,0.0,0.0,0.0,0.0,0.0,0.0,0.0,0.0,0.0,0.0,0.0,0.0,0.0,0.0,0.0,-1.6701,-1.7715,-1.8561,-1.9317,-2.0031,-2.0097,-1.9465,-1.8858,-1.8246,0.0,0.0,0.0,0.0,0.0,0.0,0.0,0.0,0.0,0.0,0.0,0.0,0.0,0.0,0.0,0.0,0.0,0.0,0.0,0.0,0.0,0.0,0.0,0.0,0.0,0.0,0.0,0.0,0.0,0.0,0.0,0.0,0.0,0.0,0.0,0.0,0.0,0.0,0.0,0.0,-1.4945,-1.5764,-1.6113,0.0,0.0,0.0,0.0,0.0,0.0,-1.5849,-1.5494,0.0,0.0,0.0,0.0,0.0,0.0,0.0,0.0,0.0,0.0,0.0,0.0,0.0,0.0,0.0,0.0,0.0,0.0,0.0,0.0,0.0,0.0,0.0,0.0,0.0,0.0,0.0,0.0,0.0,0.0,0.0,0.0,0.0,0.0,0.0,0.0,0.0,0.0,0.0,0.0,0.0,0.0,0.0,0.0,0.0,0.0,0.0,0.0,0.0,0.0,0.0,0.0,0.0,0.0,0.0,-1.79,-1.8146,-1.8854,-2.0125,-2.0345,-2.007,-1.9342,-1.8873,-1.8243,0.0,0.0,0.0,0.0,0.0,0.0,0.0,0.0,0.0,0.0,0.0,0.0,0.0,0.0,0.0,0.0,0.0,0.0,0.0,0.0,0.0,0.0,0.0,0.0,0.0,0.0,0.0,0.0,0.0,0.0,0.0,0.0,0.0,0.0,0.0,0.0,0.0,0.0,0.0,0.0,0.0,-1.6976,-1.7128,-1.7777,0.0,0.0,0.0,0.0,-1.7365,-1.6745,0.0,0.0,0.0,0.0,0.0,0.0,0.0,0.0,0.0,0.0,0.0,0.0,0.0,0.0,0.0,0.0,0.0,0.0,0.0,0.0,0.0,0.0,0.0,0.0,0.0,0.0,0.0,0.0,0.0,0.0,0.0,0.0,0.0,0.0,0.0,0.0,0.0,0.0,0.0,0.0,0.0,0.0,0.0,0.0,0.0,0.0,0.0,0.0,0.0,0.0,0.0,0.0,0.0,0.0,0.0,0.0,-1.7326,-1.7915,-1.8623,-1.9492,-2.0148,-1.9919,-1.8747,-1.8696,-1.8078,0.0,0.0,0.0,0.0,0.0,0.0,0.0,0.0,0.0,0.0,0.0,0.0,0.0,0.0,0.0,0.0,0.0,0.0,0.0,0.0,0.0,0.0,0.0,0.0,0.0,0.0,0.0,0.0,0.0,0.0,0.0,0.0,0.0,0.0,0.0,0.0,0.0,0.0,0.0,0.0,0.0,-1.7929,-1.8567,-1.927,-1.9731,0.0,0.0,0.0,-1.9625,-1.9012,0.0,0.0,0.0,0.0,0.0,0.0,0.0,0.0,0.0,0.0,0.0,0.0,0.0,0.0,0.0,0.0,0.0,0.0,0.0,0.0,0.0,0.0,0.0,0.0,0.0,0.0,0.0,0.0,0.0,0.0,0.0,0.0,0.0,0.0,0.0,0.0,0.0,0.0,0.0,0.0,0.0,0.0,0.0,0.0,0.0,0.0,0.0,0.0,0.0,0.0,0.0,0.0,0.0,0.0,0.0,-1.5975,-1.7925,-1.861,-1.9324,-2.0107,-2.0453,-2.0206,-1.9341,-1.896,-1.8294,0.0,0.0,0.0,0.0,0.0,0.0,0.0,0.0,0.0,0.0,0.0,0.0,0.0,0.0,0.0,0.0,0.0,0.0,0.0,0.0,0.0,0.0,0.0,0.0,0.0,0.0,0.0,0.0,0.0,0.0,0.0,0.0,0.0,0.0,0.0,0.0,0.0,0.0,0.0,0.0,0.0,0.0,-1.9406,-1.9811,0.0,0.0,0.0,-1.9985,-1.9985,0.0,0.0,0.0,0.0,0.0,0.0,0.0,0.0,0.0,0.0,0.0,0.0,0.0,0.0,0.0,0.0,0.0,0.0,0.0,0.0,0.0,0.0,0.0,0.0,0.0,0.0,0.0,0.0,0.0,0.0,0.0,0.0,0.0,0.0,0.0,0.0,0.0,0.0,0.0,0.0,0.0,0.0,0.0,0.0,0.0,0.0,0.0,0.0,0.0,0.0,0.0,0.0,0.0,0.0,0.0,0.0,0.0,-1.8498,-1.9186,-1.989,-2.0662,-2.0726,-2.0478,-1.9924,-1.9209,0.0,0.0,0.0,0.0,0.0,0.0,0.0,0.0,0.0,0.0,0.0,0.0,0.0,0.0,0.0,0.0,0.0,0.0,0.0,0.0,0.0,0.0,0.0,0.0,0.0,0.0,0.0,-1.0047,0.0,0.0,0.0,0.0,0.0,0.0,0.0,0.0,0.0,0.0,0.0,0.0,0.0,0.0,-1.9452,-2.0183,-2.0454,-2.0576,0.0,0.0,-2.0576,-2.0559,-1.9959,-1.9413,0.0,0.0,0.0,0.0,0.0,0.0,0.0,0.0,0.0,0.0,0.0,0.0,0.0,0.0,0.0,0.0,0.0,0.0,0.0,0.0,0.0,0.0,0.0,0.0,0.0,0.0,0.0,0.0,0.0,0.0,0.0,0.0,0.0,0.0,0.0,0.0,0.0,0.0,0.0,0.0,0.0,0.0,0.0,0.0,0.0,0.0,0.0,0.0,0.0,0.0,0.0,0.0,0.0,0.0,0.0,-1.8512,-1.9186,-1.9906,-2.0662,-2.076,-2.0511,-1.9892,-1.9314,-1.8612,0.0,0.0,0.0,0.0,0.0,0.0,0.0,0.0,0.0,0.0,0.0,0.0,0.0,0.0,0.0,0.0,0.0,0.0,0.0,0.0,0.0,0.0,0.0,0.0,0.0,0.0,0.0,0.0,0.0,0.0,0.0,0.0,0.0,0.0,0.0,0.0,0.0,0.0,0.0,0.0,0.0,-2.0217,-2.1021,-2.1701,-2.2144,0.0,0.0,-2.2144,-2.2144,-2.1529,-2.0801,-2.0048,0.0,0.0,0.0,0.0,0.0,0.0,0.0,0.0,0.0,0.0,0.0,0.0,0.0,0.0,0.0,0.0,0.0,0.0,0.0,0.0,0.0,0.0,0.0,0.0,0.0,0.0,0.0,0.0,0.0,0.0,0.0,0.0,0.0,0.0,0.0,0.0,0.0,0.0,0.0,0.0,0.0,0.0,0.0,0.0,0.0,0.0,0.0,0.0,0.0,0.0,0.0,0.0,0.0,-1.7519,-1.8769,-1.9893,-2.0654,-2.0941,-2.0989,-2.0894,-2.0703,-1.9642,-1.8904,0.0,0.0,0.0,0.0,0.0,0.0,0.0,0.0,0.0,0.0,0.0,0.0,0.0,0.0,0.0,0.0,0.0,0.0,0.0,0.0,0.0,0.0,0.0,0.0,0.0,0.0,0.0,0.0,-1.1536,-1.1959,-1.2263,0.0,0.0,0.0,0.0,0.0,0.0,0.0,0.0,0.0,0.0,-2.1021,-2.1769,-2.2124,0.0,0.0,-2.2313,-2.2313,-2.2313,-2.1684,-2.1089,-2.0771,-2.0111,0.0,0.0,0.0,0.0,0.0,0.0,0.0,0.0,0.0,0.0,0.0,0.0,0.0,0.0,0.0,0.0,0.0,0.0,0.0,0.0,0.0,0.0,0.0,0.0,0.0,0.0,0.0,0.0,0.0,0.0,0.0,0.0,0.0,0.0,0.0,0.0,0.0,0.0,0.0,0.0,0.0,0.0,0.0,0.0,0.0,0.0,0.0,0.0,0.0,0.0,0.0,0.0,-1.8157,-1.8887,-2.0352,-2.1087,-2.1087,-2.1119,-2.1151,-2.1183,-2.0086,-1.9344,0.0,0.0,0.0,0.0,0.0,0.0,0.0,0.0,0.0,0.0,0.0,0.0,0.0,0.0,0.0,0.0,0.0,0.0,0.0,0.0,0.0,0.0,0.0,0.0,0.0,0.0,0.0,0.0,-1.2305,-1.2542,-1.2331,0.0,0.0,0.0,0.0,0.0,0.0,0.0,0.0,0.0,0.0,-2.1478,-2.2195,-2.2313,-2.2313,-2.2313,-2.2313,-2.2313,-2.2313,-2.1854,-2.1478,-2.1241,0.0,0.0,0.0,0.0,0.0,0.0,0.0,0.0,0.0,0.0,0.0,0.0,0.0,0.0,0.0,0.0,0.0,0.0,0.0,0.0,0.0,0.0,0.0,0.0,0.0,0.0,0.0,0.0,0.0,0.0,0.0,0.0,0.0,0.0,0.0,0.0,0.0,0.0,0.0,0.0,0.0,0.0,0.0,0.0,0.0,0.0,0.0,0.0,0.0,0.0,0.0,0.0,0.0,0.0,-1.8903,-2.0352,-2.1103,-2.1087,-2.1151,-2.1199,-2.1199,-2.0584,-1.9888,-1.9072,0.0,0.0,0.0,0.0,0.0,0.0,0.0,0.0,0.0,0.0,0.0,0.0,0.0,0.0,0.0,0.0,0.0,0.0,0.0,0.0,0.0,0.0,0.0,0.0,0.0,0.0,-1.3312,-1.3362,-1.31,0.0,0.0,0.0,0.0,0.0,0.0,0.0,0.0,0.0,0.0,-2.119,-2.1478,-2.2195,-2.2313,-2.2313,-2.233,-2.233,-2.2313,-2.233,-2.2327,-2.204,0.0,0.0,0.0,0.0,0.0,0.0,0.0,0.0,0.0,0.0,0.0,0.0,0.0,0.0,0.0,0.0,0.0,0.0,0.0,0.0,0.0,0.0,0.0,0.0,0.0,0.0,0.0,-1.4479,-1.4421,0.0,0.0,0.0,0.0,0.0,0.0,0.0,0.0,0.0,0.0,0.0,-1.7531,-1.7531,0.0,0.0,0.0,0.0,0.0,0.0,0.0,0.0,0.0,0.0,0.0,0.0,-1.8719,-1.9037,-2.046,-2.123,-2.1247,-2.1246,-2.1262,-2.1278,-2.0646,-1.9454,-1.7685,0.0,0.0,0.0,0.0,0.0,0.0,0.0,0.0,0.0,0.0,0.0,0.0,0.0,0.0,0.0,0.0,0.0,0.0,0.0,0.0,0.0,0.0,0.0,0.0,0.0,-1.3396,0.0,0.0,0.0,0.0,0.0,0.0,0.0,0.0,0.0,0.0,0.0,-2.0632,-2.1123,-2.163,-2.204,-2.2262,-2.2313,-2.2465,0.0,0.0,0.0,0.0,0.0,0.0,0.0,0.0,0.0,0.0,0.0,0.0,0.0,0.0,-2.1156,-2.0448,-2.0169,-2.0113,-2.036,0.0,0.0,0.0,0.0,0.0,0.0,0.0,0.0,0.0,0.0,0.0,0.0,0.0,0.0,0.0,0.0,-1.6472,0.0,0.0,0.0,0.0,0.0,0.0,0.0,0.0,-1.8376,-1.8822,-1.9253,-1.9038,-1.9038,0.0,-1.8807,-1.7945,0.0,0.0,0.0,0.0,0.0,0.0,0.0,0.0,-1.937,-1.9463,-2.0649,-2.1309,-2.1309,-2.1309,-2.1309,-2.1293,-2.0661,-1.9583,-1.8067,-1.7062,-1.6163,0.0,0.0,0.0,0.0,0.0,0.0,0.0,0.0,0.0,0.0,0.0,0.0,0.0,0.0,0.0,0.0,0.0,0.0,0.0,0.0,0.0,0.0,0.0,-1.3794,0.0,0.0,0.0,0.0,0.0,0.0,0.0,0.0,0.0,-1.9253,-2.0399,-2.1292,-2.1563,-2.1989,-2.2313,-2.2313,0.0,0.0,0.0,0.0,0.0,0.0,0.0,-2.4246,-2.3759,-2.411,-2.4478,-2.4508,-2.4508,-2.4354,-2.3909,0.0,0.0,-2.1349,-2.0931,-2.0963,-2.1497,-2.1583,-2.1682,-2.1991,-2.2073,-2.2224,0.0,0.0,0.0,0.0,0.0,0.0,0.0,0.0,-1.9752,-1.9661,0.0,-1.9022,0.0,0.0,0.0,0.0,0.0,0.0,0.0,0.0,-1.9425,-2.0088,-2.1211,-2.0641,-2.0687,-2.1227,-1.9994,-1.9426,-1.9399,-1.8175,0.0,0.0,0.0,0.0,0.0,0.0,-2.0076,-2.0184,-2.0906,-2.1294,-2.1294,-2.1309,-2.1294,-2.1277,-2.0646,-2.0211,-2.004,-1.8649,-1.7585,-1.6846,-1.6054,0.0,0.0,0.0,0.0,0.0,0.0,0.0,0.0,0.0,0.0,0.0,0.0,0.0,0.0,0.0,0.0,0.0,0.0,0.0,0.0,-1.4124,0.0,0.0,0.0,0.0,0.0,0.0,0.0,0.0,0.0,0.0,-2.0158,-2.0758,-2.1498,-2.2229,0.0,0.0,0.0,0.0,-2.3356,-2.3375,-2.3854,-2.4227,-2.4227,-2.426,-2.4277,-2.4243,0.0,0.0,-2.456,-2.4575,-2.4592,-2.4541,-2.463,-2.4306,-2.2908,-2.2198,-2.2212,-2.3491,-2.3733,-2.4077,-2.4732,-2.4678,-2.4781,-2.246,0.0,0.0,0.0,0.0,-2.1056,-2.1132,-2.1147,-2.1345,-2.1314,-2.1117,-2.0652,0.0,0.0,0.0,0.0,0.0,0.0,-2.0778,-2.1442,-2.1442,-2.1587,-2.1865,-2.1666,-2.1678,-2.177,-2.1445,-2.1317,-2.1289,-2.0603,-1.9513,-1.8026,0.0,0.0,0.0,0.0,-1.9938,-2.0033,-2.0751,-2.1167,-2.1151,-2.1167,-2.1167,-2.1135,-2.0445,-2.0045,-1.9953,-1.9047,-1.8208,-1.7472,-1.6718,0.0,0.0,0.0,0.0,0.0,0.0,0.0,0.0,0.0,0.0,0.0,0.0,0.0,0.0,0.0,0.0,0.0,0.0,0.0,-1.4919,-1.5124,-1.5415,0.0,0.0,0.0,0.0,0.0,0.0,0.0,0.0,0.0,-2.1404,-2.1698,-2.2192,0.0,0.0,-2.3186,-2.3742,-2.3964,-2.4236,-2.4642,0.0,0.0,0.0,-2.5245,-2.5462,-2.498,-2.5497,-2.5983,-2.5983,-2.6033,-2.5895,-2.5389,-2.5349,-2.512,-2.4323,-2.4079,-2.4181,-2.456,-2.4663,-2.4715,-2.4936,-2.5005,-2.5023,-2.468,-2.3542,-2.3097,-2.2908,-2.2939,-2.3178,-2.3305,-2.3336,-2.3611,-2.3427,-2.2893,-2.2485,-2.2015,-2.1479,-2.0735,0.0,0.0,0.0,-2.192,-2.2305,-2.2248,-2.2329,-2.2465,-2.2143,-2.2115,-2.2299,-2.2081,-2.2017,-2.206,-2.1799,-2.1162,-2.0122,0.0,0.0,-1.9167,-1.9908,-2.0321,-2.0384,-2.0863,-2.1087,-2.1087,-2.1087,-2.1087,-2.1087,-2.0671,-2.0384,-2.0289,-1.9606,-1.8879,-1.8125,-1.7431,-1.6294,0.0,0.0,0.0,0.0,0.0,0.0,0.0,0.0,0.0,0.0,0.0,-1.3652,0.0,0.0,0.0,0.0,-1.46,-1.5163,-1.5886,-1.6191,0.0,0.0,0.0,0.0,0.0,0.0,0.0,-2.021,-2.1133,-2.195,-2.2328,-2.2692,-2.3088,-2.3554,-2.3604,-2.3772,-2.4224,0.0,-2.4796,-2.5096,-2.5275,-2.5351,-2.5279,-2.566,-2.5898,-2.5659,-2.6064,-2.6503,-2.6589,-2.6657,-2.6539,-2.6167,-2.6114,-2.6043,-2.5647,-2.5716,-2.5736,-2.5491,-2.5439,-2.554,-2.5816,-2.5919,-2.5902,-2.6137,-2.6077,-2.5035,-2.4537,-2.4491,-2.5106,-2.5351,-2.5413,-2.6081,-2.5628,-2.4445,-2.4353,-2.362,-2.2359,-2.2424,0.0,0.0,-2.2405,-2.2451,-2.2421,-2.229,-2.2552,-2.3097,-2.2284,-2.2229,-2.278,-2.2199,-2.1973,-2.2141,-2.2147,-2.2271,-2.2415,-2.1354,-2.0553,-2.0099,-2.0701,-2.1117,-2.1246,-2.1198,-2.1134,-2.107,-2.107,-2.1086,-2.107,-2.107,-2.1006,-2.0893,-2.0321,-1.9607,-1.8819,-1.8141,-1.6862,-1.4916,0.0,0.0,0.0,0.0,0.0,0.0,0.0,0.0,0.0,0.0,0.0,0.0,0.0,0.0,0.0,-1.5562,0.0,-1.6686,-1.7349,0.0,0.0,0.0,-1.9777,-1.9844,-2.0442,-2.0844,-2.0929,0.0,0.0,0.0,0.0,-2.4083,-2.4199,-2.4198,-2.4198,-2.4248,-2.4813,-2.5125,-2.5072,-2.5386,-2.5645,-2.5556,-2.5645,-2.5811,-2.6048,-2.624,-2.6365,-2.6555,-2.664,-2.6691,-2.6776,-2.6877,-2.7012,-2.7079,-2.7161,-2.7068,-2.6495,-2.6283,-2.6421,-2.7126,-2.7316,-2.7333,-2.7348,-2.7494,-2.7233,-2.6541,-2.5628,-2.5765,-2.5841,-2.5857,-2.6009,-2.5902,-2.5567,-2.5072,-2.4082,-2.2848,-2.3351,-2.3305,-2.2863,-2.3366,-2.3594,-2.3579,-2.3455,-2.342,-2.3385,-2.3071,-2.292,-2.29,-2.292,-2.3012,-2.3103,-2.2797,-2.2702,-2.2812,-2.2129,-2.1861,-2.2014,-2.2191,-2.2323,-2.2479,-2.197,-2.1431,-2.0907,-2.086,-2.0876,-2.0876,-2.086,-2.086,-2.0811,-2.0669,-2.0273,-1.9546,-1.8866,-1.7746,-1.6199,-1.5627,0.0,0.0,0.0,0.0,0.0,0.0,0.0,0.0,0.0,-1.4819,-1.4875,0.0,-1.5407,0.0,-1.7098,-1.8071,-1.8779,-1.8959,0.0,0.0,-2.0158,-2.0397,-2.0937,-2.1595,-2.2036,-2.2098,-2.2949,-2.3736,-2.4312,-2.4422,-2.4661,-2.5165,-2.4917,-2.4926,-2.5574,-2.5719,-2.5781,-2.5709,-2.564,-2.56,-2.547,-2.5527,-2.5712,-2.5934,-2.6115,-2.6276,-2.6485,-2.6572,-2.6809,-2.7384,-2.7571,-2.7825,-2.8422,-2.8593,-2.8578,-2.8408,-2.7702,-2.723,-2.7954,-2.8144,-2.8299,-2.8174,-2.8038,-2.8049,-2.7465,-2.6546,-2.6792,-2.6864,-2.6801,-2.6801,-2.6611,-2.6208,-2.5553,-2.4822,-2.4167,-2.4505,-2.446,-2.4158,-2.4505,-2.4671,-2.4656,-2.4178,-2.3926,-2.3777,-2.3296,-2.2957,-2.2807,-2.2971,-2.3105,-2.3224,-2.3101,-2.3071,-2.3161,-2.2898,-2.294,-2.3246,-2.2807,-2.2645,-2.281,-2.2499,-2.2013,-2.1316,-2.1301,-2.1109,-2.0776,-2.076,-2.0744,-2.0663,-2.0662,-2.0348,-1.9688,-1.9264,-1.8447,-1.7137,-1.668,-1.6186,0.0,0.0,0.0,0.0,0.0,0.0,0.0,0.0,0.0,0.0,0.0,-1.7031,0.0,-1.8264,0.0,-1.975,-1.9843,-2.0166,-2.0886,-2.0861,-2.1077,-2.1777,-2.2118,-2.2457,-2.2831,-2.3545,-2.4147,-2.4538,-2.4792,-2.5075,-2.5419,-2.5243,-2.5259,-2.5726,-2.5789,-2.5717,-2.5677,-2.5508,-2.5375,-2.5355,-2.5667,-2.6031,-2.6332,-2.6782,-2.7164,-2.742,-2.7528,-2.7735,-2.8229,-2.8332,-2.8485,-2.8946,-2.9083,-2.9102,-2.9072,-2.8648,-2.8389,-2.875,-2.8853,-2.899,-2.8706,-2.815,-2.815,-2.7853,-2.7432,-2.782,-2.7881,-2.7715,-2.7715,-2.729,-2.6508,-2.5887,-2.5542,-2.5435,-2.5429,-2.5437,-2.5414,-2.5414,-2.5414,-2.536,-2.4602,-2.4235,-2.4174,-2.3195,-2.2755,-2.2709,-2.2646,-2.2694,-2.2881,-2.312,-2.326,-2.3355,-2.3465,-2.3653,-2.3873,-2.2994,-2.2619,-2.281,-2.2933,-2.2672,-2.2008,-2.1992,-2.161,-2.0866,-2.0834,-2.0721,-2.051,-2.051,-2.023,-1.9685,-1.956,-1.8999,-1.79,-1.7758,-1.7443,0.0,-1.6284,0.0,0.0,0.0,0.0,0.0,0.0,0.0,0.0,-1.8715,-1.9085,-1.9116,-1.9254,-1.9605,-2.03,-2.0454,-2.0836,-2.1518,-2.1599,-2.1827,-2.2376,-2.2437,-2.2675,-2.3333,-2.4042,-2.4475,-2.4491,-2.4989,-2.532,-2.5275,-2.5224,-2.5291,-2.541,-2.5439,-2.5394,-2.5314,-2.5281,-2.5456,-2.5675,-2.6114,-2.6607,-2.7098,-2.7613,-2.8279,-2.8519,-2.8651,-2.8827,-2.9039,-2.9127,-2.9196,-2.9247,-2.9369,-2.9406,-2.9474,-2.9462,-2.9466,-2.9504,-2.9522,-2.9574,-2.8509,-2.8492,-2.852,-2.8419,-2.8302,-2.7929,-2.7589,-2.7295,-2.7295,-2.6914,-2.6283,-2.6125,-2.5698,-2.5106,-2.5101,-2.5014,-2.4932,-2.4903,-2.4941,-2.4917,-2.4655,-2.4416,-2.4141,-2.3395,-2.2953,-2.2856,-2.247,-2.2417,-2.2669,-2.2754,-2.2889,-2.3001,-2.3024,-2.3157,0.0,0.0,0.0,0.0,-2.3452,-2.3139,-2.2496,-2.2467,-2.2137,-2.145,-2.1434,0.0,-2.0542,-2.051,-2.0448,-2.0308,-1.981,0.0,0.0,0.0,0.0,0.0,0.0,0.0,0.0,0.0,0.0,0.0,-1.9045,-1.8872,-1.8614,-1.9166,-1.9624,-1.9732,-2.0241,-2.0879,-2.1647,-2.1744,-2.2033,-2.2672,-2.2733,-2.2746,-2.289,-2.3276,-2.3684,-2.392,-2.4544,-2.4994,-2.507,-2.5144,-2.5127,-2.5112,-2.4962,-2.5098,-2.5607,-2.5497,-2.5333,-2.5371,-2.5727,-2.6245,-2.6906,-2.7066,-2.7327,-2.7727,-2.7899,-2.8198,-2.8555,-2.8691,-2.9022,-2.957,-2.9831,-3.0091,-3.0615,-3.0804,-3.0722,-3.077,-3.0772,-3.0696,-3.0302,-3.022,-3.0391,-2.9086,0.0,-2.8843,-2.867,0.0,0.0,-2.7861,-2.7636,-2.7091,-2.6614,-2.626,-2.6245,-2.602,-2.564,-2.564,-2.5614,-2.5523,-2.5523,-2.5537,-2.5523,-2.5029,-2.4734,-2.4566,-2.373,-2.3173,-2.2817,-2.2648,-2.247,-2.2315,-2.2457,-2.2586,-2.2655,-2.2715,-2.2859,-2.3105,-2.3407,-2.3695,-2.3935,-2.4035,-2.3768,-2.3129,-2.3082,-2.258,-2.1548,0.0,0.0,0.0,0.0,0.0,0.0,0.0,0.0,0.0,0.0,0.0,-1.9481,-1.9186,-1.9139,-1.9435,-1.9186,-1.9279,-1.9916,-2.0224,-2.0149,-1.9624,-2.022,-2.0662,-2.0744,-2.1361,-2.1965,-2.2382,-2.2517,-2.2679,-2.3014,-2.3044,-2.3171,-2.3501,-2.3795,-2.4119,-2.4428,-2.4744,-2.4966,-2.4966,-2.491,-2.5008,-2.5262,-2.5315,-2.5467,-2.6002,-2.5796,-2.5618,-2.6052,-2.6324,-2.672,-2.7216,-2.7721,-2.8062,-2.8354,-2.8764,-2.9161,-2.9453,-2.9593,-2.9881,-3.0337,-3.0499,-3.0707,-3.1052,-3.119,-3.119,-3.119,-3.119,-3.1145,-3.0851,-3.0804,-3.0963,-2.9692,-2.9177,-2.9177,-2.8893,-2.8453,-2.8324,-2.8211,-2.8011,0.0,0.0,0.0,-2.6343,-2.626,-2.6233,-2.6206,-2.6179,-2.6152,-2.6152,-2.6152,-2.6138,-2.5441,-2.5069,-2.5015,-2.4152,-2.3456,-2.2986,-2.3014,-2.2742,-2.2178,-2.2423,-2.2446,-2.2385,-2.2477,-2.2646,-2.2889,-2.3334,-2.3782,-2.4162,-2.439,-2.4264,-2.376,-2.3729,-2.3021,-2.1598,-2.1551,-2.1159,-2.0335,-2.0287,-2.0287,-2.0287,-2.0287,-2.0321,-2.0373,-2.0388,-2.0407,-2.0444,-1.9948,-1.9948,-2.0569,-2.0134,-2.0101,-2.0682,-2.1201,-2.1234,-2.0676,-2.1317,-2.1739,-2.1744,-2.2316,-2.2747,-2.2941,-2.3072,-2.3229,-2.334,-2.3408,-2.3679,-2.4144,-2.4205,-2.4381,-2.4712,-2.4892,-2.4914,-2.4884,-2.4988,-2.5165,-2.5695,-2.5851,-2.6094,-2.657,-2.6287,-2.6191,-2.6857,-2.703,-2.718,-2.7565,-2.8086,-2.8688,-2.8979,-2.9593,-3.0194,-3.0422,-3.0589,-3.0733,-3.0828,-3.0955,-3.1015,-3.1131,-3.1151,-3.1171,-3.119,-3.119,-3.119,-3.119,-3.1235,-3.1295,-2.9608,-2.9538,-2.9524,-2.9482,-2.9355,-2.8848,-2.8254,-2.7589,-2.7314,-2.7153,-2.7111,-2.6433,-2.6056,-2.5948,-2.5839,-2.5702,-2.5605,-2.5605,-2.5605,0.0,-2.5481,-2.5356,-2.5135,-2.4491,-2.4162,-2.4039,-2.3689,-2.325,-2.2836,-2.2923,-2.2752,-2.2287,-2.224,-2.2426,-2.2754,-2.3238,-2.3581,-2.3702,-2.4082,-2.4245,-2.4184,-2.4205,-2.3557,-2.2243,-2.2185,-2.1565,-2.0366,-2.0302,-2.0287,-2.0287,-2.0287,-2.0304,-2.0304,-2.0335,-2.0306,-2.0321,-2.0246,-2.0493,-2.1139,-2.1108,-2.134,-2.1951,-2.212,-2.1874,-2.1278,-2.1818,-2.2223,-2.2301,-2.2552,-2.2911,-2.3535,-2.3724,-2.3986,-2.4562,-2.4708,-2.4732,-2.4721,-2.4721,-2.4708,-2.4744,-2.5191,-2.5566,-2.5576,-2.5975,-2.6252,-2.6379,-2.6444,-2.6622,-2.7056,-2.6876,-2.6885,-2.7391,-2.7585,-2.7926,-2.8507,-2.8869,-2.9143,-2.9598,-2.9718,-2.9984,-3.03,-3.0447,-3.0589,-3.0712,-3.0851,-3.0932,-3.1015,-3.1035,-3.1092,-3.1151,-3.1171,-3.1171,-3.1171,-3.1207,-3.1263,-2.9602,-2.9602,-2.9602,-2.9602,-2.9588,-2.9201,-2.8812,-2.8352,-2.7951,-2.7577,-2.7199,-2.6567,-2.6204,-2.6134,-2.5758,-2.5564,-2.5508,-2.5508,-2.5508,-2.5508,-2.5397,-2.5286,-2.5175,-2.4831,-2.4504,-2.4205,-2.4053,-2.3732,-2.3319,-2.3083,-2.2874,-2.2662,-2.2447,-2.2449,-2.2694,-2.3001,-2.3282,-2.356,-2.3882,-2.4145,-2.4234,-2.425,-2.38,-2.2871,-2.284,-2.2394,-2.1427,-2.1381,-2.1381,-2.1381,-2.1381,-2.1381,-2.1381,-2.1396,-2.1396,-2.1381,-2.1381,-2.1519,-2.1827,-2.1843,-2.1981,-2.2289,-2.264,-2.2701,-2.2409,-2.2655,-2.2879,-2.301,-2.3359,-2.3795,-2.4186,-2.4276,-2.4422,-2.4739,-2.4771,-2.4923,-2.5222,-2.53,-2.5378,-2.56,-2.5905,-2.6122,-2.6094,-2.6351,-2.6662,-2.6842,-2.7087,-2.7415,-2.7673,-2.7531,-2.7573,-2.8078,-2.8202,-2.8389,-2.8896,-2.9052,-2.9213,-2.9493,-2.9677,-2.9837,-3.0087,-3.0236,-3.0464,-3.0568,-3.0692,-3.0814,-3.0915,-3.0952,-3.0972,-3.1012,-3.1032,-3.1032,-3.1049,-3.1358,-3.1705,-2.9477,-2.9477,-2.9477,-2.9477,-2.9477,-2.9397,-2.9226,-2.8994,-2.8526,-2.8026,-2.747,-2.6829,-2.6459,-2.6279,-2.581,-2.5507,-2.5425,-2.5383,-2.5369,-2.5383,-2.5244,-2.5174,-2.5146,-2.5061,-2.4733,-2.4367,-2.4423,-2.4257,-2.3823,-2.3495,-2.323,-2.3069,-2.2635,-2.2472,-2.264,-2.2799,-2.3061,-2.3363,-2.3704,-2.3976,-2.4103,-2.4166,-2.3907,-2.3323,-2.3302,-2.2978,-2.2366,-2.2305,-2.2305,-2.2305,-2.2305,-2.2305,-2.2305,-2.2305,-2.2305,-2.2305,-2.2305,-2.2382,-2.2517,-2.2671,-2.2748,-2.2748,-2.3225,-2.3517,-2.3533,-2.3533,-2.3573,-2.373,-2.4137,-2.4472,-2.4549,-2.4745,-2.4859,-2.4859,-2.5015,-2.5358,-2.5783,-2.5876,-2.6004,-2.6406,-2.66,-2.6663,-2.6626,-2.6726,-2.698,-2.7367,-2.775,-2.7965,-2.798,-2.798,-2.8152,-2.8332,-2.8477,-2.8566,-2.8779,-2.8936,-2.9091,-2.9213,-2.9493,-2.9677,-2.9832,-3.0087,-3.0295,-3.0401,-3.0547,-3.0651,-3.079,-3.0851,-3.0871,-3.0912,-3.0932,-3.0979,-3.1213,-3.1808,-3.2349,-2.9176,-2.9131,-2.9162,-2.9162,-2.9162,-2.9131,-2.9004,-2.8844,-2.8776,-2.8639,-2.8343,-2.7387,-2.6654,-2.6132,-2.5949,-2.5564,-2.5116,-2.5047,-2.5061,-2.5047,-2.5033,-2.5033,-2.502,-2.5005,-2.4978,-2.491,-2.5009,-2.4819,-2.4433,-2.4508,-2.4094,-2.3154,-2.2635,-2.2408,-2.2477,-2.2746,-2.2912,-2.2971,-2.3341,-2.3646,-2.3839,-2.4082,-2.385,-2.3142,-2.3262,-2.2978,-2.2428,-2.2305,-2.232,-2.2305,-2.2351,-2.2336,-2.2336,-2.2336,-2.2336,-2.2351,-2.2336,-2.2548,-2.3163,-2.3779,-2.4071,-2.4117,-2.4097,-2.4194,-2.421,-2.421,-2.4225,-2.4313,-2.4421,-2.4539,-2.4549,-2.5139,-2.557,-2.5586,-2.6037,-2.6498,-2.6419,-2.6413,-2.6437,-2.6387,-2.7003,-2.7265,-2.7233,-2.7553,-2.7878,-2.7801,-2.7874,-2.793,-2.7955,-2.7955,-2.798,-2.8079,-2.8137,-2.8341,-2.8573,-2.8732,-2.8897,-2.9075,-2.9259,-2.947,-2.9694,-2.9832,-2.9924,-3.0172,-3.0338,-3.0464,-3.0531,-3.063,-3.0749,-3.0953,-3.1048,-3.1139,-3.1759,-3.2462,-3.2962,-2.9113,-2.9113,-2.9113,-2.9035,-2.894,-2.8908,-2.8844,-2.8697,-2.8683,-2.8651,-2.8592,-2.8121,-2.7608,-2.7009,-2.6256,-2.5751,-2.5507,-2.5168,-2.5005,-2.5005,-2.5005,-2.5005,-2.5005,-2.5005,-2.5005,-2.5005,-2.5061,-2.5009,-2.4929,-2.4829,-2.4335,-2.3562,-2.3041,-2.2837,-2.2904,-2.2703,-2.2669,-2.2849,-2.3053,-2.326,-2.3501,-2.3797,-2.3903,-2.3784,-2.38,-2.3749,-2.3517,-2.3486,-2.3471,-2.3486,-2.3486,-2.3486,-2.3471,-2.3486,-2.3486,-2.3486,-2.3471,-2.3594,-2.3871,-2.4164,-2.4281,-2.4281,-2.4281,-2.4451,-2.485,-2.4896,-2.5056,-2.541,-2.5222,-2.4981,-2.5043,-2.5657,-2.6096,-2.6096,-2.6306,-2.6593,-2.7003,-2.7049,-2.7149,-2.7519,-2.774,-2.7846,-2.7804,-2.7896,-2.794,-2.7865,-2.7831,-2.7765,-2.7765,-2.775,-2.779,-2.788,-2.794,-2.8113,-2.8396,-2.8589,-2.874,-2.8936,-2.9098,-2.9266,-2.9448,-2.97,-2.9837,-2.9957,-3.0157,-3.0302,-3.0316,-3.0408,-3.0504,-3.0952,-3.1674,-3.2082,-3.2896,-3.3328,-3.3773,-2.8972,-2.8972,-2.8972,-2.8876,-2.8748,-2.8748,-2.8683,-2.8619,-2.8587,-2.8587,-2.8587,-2.8587,-2.8356,-2.7841,-2.685,-2.6321,-2.6077,-2.552,-2.5249,-2.5222,-2.5086,-2.5005,-2.5005,-2.5005,-2.5005,-2.5005,-2.5005,-2.5048,-2.5161,-2.4872,-2.4479,-2.4032,-2.3548,-2.335,-2.3469,-2.3093,-2.2927,-2.2985,-2.3088,-2.3228,-2.3349,-2.3566,-2.3855,-2.4124,-2.4166,-2.4229,-2.4297,-2.4281,-2.4281,-2.4281,-2.4281,-2.4281,-2.4281,-2.4281,-2.4281,-2.4281,-2.4281,-2.4281,-2.4281,-2.4281,-2.4394,-2.4543,-2.4558,-2.4872,-2.5456,-2.561,-2.5826,-2.6226,-2.6087,-2.5857,-2.5687,-2.6257,-2.6626,-2.6603,-2.6726,-2.7111,-2.7596,-2.7688,-2.7842,-2.8255,-2.8183,-2.8162,-2.8073,-2.7915,-2.775,-2.7725,-2.7675,-2.7585,-2.7585,-2.76,-2.7665,-2.7725,-2.7765,-2.7955,-2.8275,-2.8444,-2.8605,-2.8756,-2.8936,-2.9068,-2.9206,-2.947,-2.9655,-2.971,-3.0043,-3.0386,-3.0587,-3.0593,-3.0855,-3.1483,-3.219,-3.2856,-3.336,-3.3832,-3.4316,-2.8619,-2.8619,-2.8619,-2.8619,-2.8587,-2.8633,-2.8619,-2.8587,-2.8587,-2.8587,-2.8587,-2.8587,-2.8573,-2.8478,-2.7827,-2.7281,-2.6725,-2.6145,-2.5833,-2.5751,-2.5276,-2.5018,-2.5005,-2.5005,-2.5005,-2.5005,-2.5005,-2.5061,-2.5161,-2.4764,-2.4609,-2.4699,-2.4114,-2.3872,-2.4036,-2.401,-2.3865,-2.3574,-2.3706,-2.3687,-2.3422,-2.3503,-2.3758,-2.4043,-2.4124,-2.4229,-2.4297,-2.4281,-2.4281,-2.4281,-2.4281,-2.4281,-2.4281,-2.4281,-2.4281,-2.4281,-2.4281,-2.4297,-2.4327,-2.4343,-2.461,-2.5142,-2.5266,-2.5558,-2.6241,-2.6356,-2.6433,-2.6441,-2.698,-2.6995,-2.6565,-2.6995,-2.7349,-2.738,-2.7888,-2.8211,-2.8304,-2.8258,-2.8286,-2.8235,-2.8186,-2.8048,-2.7865,-2.77,-2.7625,-2.7625,-2.7585,-2.7585,-2.7585,-2.7585,-2.7585,-2.764,-2.7755,-2.7905,-2.8152,-2.8323,-2.8468,-2.8597,-2.874,-2.8936,-2.9037,-2.9167,-2.9353,-2.9665,-3.0296,-3.0755,-3.0969,-3.1336,-3.1801,-3.2343,-3.2807,-3.3408,-3.3645,-3.4095,-3.4463,-2.8463,-2.8587,-2.8587,-2.8587,-2.8587,-2.8587,-2.8587,-2.8587,-2.8587,-2.8587,-2.8587,-2.8587,-2.8587,-2.8587,-2.837,-2.7949,-2.7366,-2.6755,-2.6267,-2.5914,-2.5656,-2.5371,-2.5018,-2.5005,-2.5005,-2.5005,-2.5005,-2.5033,-2.5076,-2.4969,-2.4984,-2.497,-2.4661,-2.4487,-2.4495,-2.4275,-2.4127,-2.414,-2.4248,-2.436,-2.4475,-2.4583,-2.4588,-2.4497,-2.421,-2.4151,-2.4281,-2.4281,-2.4281,-2.4281,-2.4281,-2.4281,-2.4281,-2.4281,-2.4281,-2.4281,-2.4281,-2.4502,-2.4866,-2.4912,-2.5219,-2.585,-2.5995,-2.6287,-2.6872,-2.7057,-2.7211,-2.7596,-2.7857,-2.7888,-2.7811,-2.7919,-2.8042,-2.8073,-2.8242,-2.8411,-2.8411,-2.8411,-2.8348,-2.821,-2.8063,-2.7865,-2.7725,-2.7625,-2.7585,-2.7585,-2.76,-2.7615,-2.76,-2.76,-2.7675,-2.769,-2.8,-2.8362,-2.8536,-2.8366,-2.8323,-2.8468,-2.8635,-2.9066,-2.9288,-2.9659,-2.9895,-3.0339,-3.0903,-3.1246,-3.1494,-3.1935,-3.2442,-3.2644,-3.3161,-3.3583,-3.3835,-3.4088,-3.4325,-2.8333,-2.8476,-2.8509,-2.8541,-2.8587,-2.8587,-2.8587,-2.8587,-2.8587,-2.8587,-2.8587,-2.8587,-2.8587,-2.8587,-2.8587,-2.8397,-2.7949,-2.7379,-2.6782,-2.6199,-2.5982,-2.5575,-2.5086,-2.5005,-2.5005,-2.5005,-2.5005,-2.5005,-2.5005,-2.509,-2.5174,-2.5189,-2.4998,-2.4967,-2.5004,-2.4775,-2.469,-2.4725,-2.4758,-2.4893,-2.5097,-2.5158,-2.5156,-2.504,-2.4774,-2.4499,-2.4286,-2.4297,-2.4281,-2.4281,-2.4281,-2.441,-2.4594,-2.4625,-2.4733,-2.4933,-2.4995,-2.5164,-2.558,-2.5619,-2.5927,-2.6573,-2.6718,-2.6995,-2.7626,-2.7734,-2.7965,-2.8288,-2.8411,-2.8411,-2.8411,-2.8396,-2.8411,-2.8411,-2.8411,-2.8411,-2.8411,-2.8411,-2.8314,-2.8152,-2.789,-2.77,-2.7625,-2.7585,-2.7585,-2.76,-2.775,-2.7914,-2.7929,-2.8139,-2.8244,-2.8274,-2.8663,-2.8929,-2.9091,-2.899,-2.9068,-2.9189,-2.911,-2.9444,-2.9772,-3.0141,-3.0523,-3.0989,-3.1403,-3.175,-3.211,-3.2536,-3.2736,-3.2873,-3.3233,-3.3698,-3.3862,-3.3977,-3.4101,-2.8197,-2.8287,-2.8287,-2.8411,-2.8554,-2.8587,-2.8587,-2.8587,-2.8587,-2.8587,-2.8587,-2.8587,-2.8587,-2.8587,-2.8587,-2.8573,-2.8424,-2.7949,-2.7393,-2.6823,-2.628,-2.5697,-2.5113,-2.51,-2.5059,-2.5005,-2.5005,-2.5005,-2.5005,-2.5005,-2.509,-2.5174,-2.5189,-2.5287,-2.5646,-2.5562,-2.5473,-2.5317,-2.5334,-2.5268,-2.4926,-2.5223,-2.5473,-2.5606,-2.581,-2.5415,-2.4371,-2.4378,-2.4481,-2.4456,-2.4435,-2.4671,-2.5219,-2.5312,-2.561,-2.6103,-2.6303,-2.6334,-2.638,-2.6342,-2.6634,-2.7257,-2.7411,-2.7642,-2.8134,-2.8288,-2.8334,-2.8381,-2.8411,-2.8411,-2.8411,-2.8411,-2.8411,-2.8411,-2.8411,-2.8411,-2.8411,-2.8387,-2.8275,-2.8029,-2.779,-2.764,-2.7615,-2.772,-2.7779,-2.7944,-2.8274,-2.8592,-2.8637,-2.8992,-2.9457,-2.9502,-2.9517,-2.9577,-2.9675,-2.9729,-2.997,-3.0125,-2.999,-3.0048,-3.0351,-3.0695,-3.0927,-3.1353,-3.1826,-3.2149,-3.2494,-3.2872,-3.3013,-3.3202,-3.3565,-3.3633,-3.3658,-3.371,-3.3761,-2.8112,-2.8164,-2.8164,-2.8249,-2.8398,-2.8398,-2.8476,-2.8587,-2.8587,-2.8587,-2.8587,-2.8587,-2.8587,-2.8587,-2.8587,-2.8587,-2.8573,-2.837,-2.799,-2.7443,-2.7216,-2.6565,-2.5765,-2.5602,-2.5398,-2.5059,-2.5005,-2.5005,-2.5005,-2.5005,-2.502,-2.5061,-2.5146,-2.5328,-2.5564,-2.5647,-2.5713,-2.5843,-2.5934,-2.6045,-2.6184,-2.6436,-2.6431,-2.6217,-2.6408,-2.6174,-2.5507,-2.5593,-2.5696,-2.5703,-2.5749,-2.5841,-2.5995,-2.6004,-2.6111,-2.6334,-2.6402,-2.6664,-2.7011,-2.7088,-2.7365,-2.7919,-2.8088,-2.8165,-2.8365,-2.8411,-2.8411,-2.8411,-2.8411,-2.8411,-2.8411,-2.8411,-2.8427,-2.8411,-2.8411,-2.8411,-2.8387,-2.8256,-2.8118,-2.8005,-2.7765,-2.7794,-2.8158,-2.8293,-2.8453,-2.8813,-2.9142,-2.9265,-2.9352,-2.9547,-2.9592,-2.9621,-2.9849,-3.0238,-3.028,-3.0443,-3.0732,-3.0731,-3.0612,-3.0628,-3.0922,-3.112,-3.1369,-3.1677,-3.2124,-3.248,-3.2841,-3.3032,-3.3096,-3.3123,-3.315,-3.3229,-3.3266,-3.3346,-3.3424,-2.7782,-2.7881,-2.7881,-2.8,-2.8216,-2.8203,-2.8295,-2.8392,-2.8476,-2.8476,-2.8509,-2.8554,-2.8587,-2.8587,-2.8522,-2.8476,-2.8476,-2.8425,-2.8204,-2.7872,-2.7741,-2.7162,-2.628,-2.5968,-2.5588,-2.51,-2.5005,-2.5005,-2.5005,-2.5005,-2.5005,-2.5005,-2.509,-2.5216,-2.5397,-2.555,-2.5743,-2.5962,-2.6138,-2.634,-2.6621,-2.691,-2.6953,-2.6762,-2.6951,-2.6947,-2.676,-2.6917,-2.6811,-2.6488,-2.638,-2.6488,-2.6718,-2.6749,-2.6842,-2.7088,-2.7188,-2.7365,-2.7719,-2.778,-2.7934,-2.8319,-2.8411,-2.8396,-2.8411,-2.8411,-2.8411,-2.8411,-2.8411,-2.8411,-2.8411,-2.8411,-2.8504,-2.8765,-2.855,-2.8403,-2.8314,-2.8356,-2.8359,-2.8359,-2.8357,-2.8543,-2.8831,-2.8981,-2.9116,-2.9547,-2.9801,-2.9924,-3.0011,-3.0178,-3.0208,-3.0328,-3.0642,-3.0881,-3.0898,-3.1135,-3.1463,-3.1323,-3.1147,-3.124,-3.1451,-3.1537,-3.1726,-3.1912,-3.2283,-3.235,-3.2648,-3.273,-3.2812,-3.28,-3.28,-3.2978,-3.3112,-3.3112,-3.315,-2.7167,-2.7469,-2.7469,-2.7716,-2.8046,-2.8046,-2.8079,-2.8145,-2.8235,-2.83,-2.8333,-2.8457,-2.8522,-2.8522,-2.8379,-2.83,-2.8268,-2.8197,-2.8131,-2.8023,-2.7835,-2.7381,-2.6786,-2.6123,-2.5542,-2.5151,-2.5003,-2.5005,-2.5005,-2.5005,-2.5005,-2.5005,-2.5005,-2.5061,-2.5244,-2.5397,-2.5564,-2.5729,-2.5975,-2.6152,-2.634,-2.6647,-2.6922,-2.7122,-2.7363,-2.757,-2.7733,-2.7884,-2.7554,-2.6627,-2.6657,-2.6949,-2.7334,-2.7457,-2.7734,-2.8181,-2.8365,-2.8288,-2.8365,-2.8288,-2.8334,-2.8381,-2.8411,-2.8411,-2.8411,-2.8411,-2.8411,-2.8411,-2.8504,-2.8535,-2.8535,-2.8658,-2.8919,-2.9248,-2.9048,-2.8701,-2.8425,-2.8819,-2.8955,-2.8962,-2.9267,-2.9621,-2.9579,-2.9651,-2.9711,-2.9909,-3.0283,-3.0507,-3.0642,-3.0911,-3.1331,-3.1391,-3.1256,-3.1241,-3.1212,-3.1256,-3.1524,-3.1478,-3.1368,-3.1496,-3.171,-3.1797,-3.1883,-3.2102,-3.2247,-3.2302,-3.233,-3.2456,-3.2511,-3.2484,-3.2609,-3.2788,-3.287,-3.2827,-3.2908,-2.6897,-2.7113,-2.7146,-2.7348,-2.7636,-2.7669,-2.7835,-2.8079,-2.8131,-2.8131,-2.8164,-2.821,-2.8243,-2.821,-2.8164,-2.8131,-2.8131,-2.8099,-2.8112,-2.8099,-2.8011,-2.7662,-2.6979,-2.6056,-2.551,-2.537,-2.5077,-2.4892,-2.4977,-2.4977,-2.4977,-2.5005,-2.5005,-2.5061,-2.5202,-2.5272,-2.5425,-2.5674,-2.5866,-2.6002,-2.6192,-2.6553,-2.6806,-2.6896,-2.7258,-2.7514,-2.774,-2.8039,-2.8167,-2.791,-2.7873,-2.7934,-2.8073,-2.8104,-2.8181,-2.8334,-2.8411,-2.8411,-2.8411,-2.8411,-2.8411,-2.8411,-2.8411,-2.8411,-2.8411,-2.8411,-2.8411,-2.8504,-2.8812,-2.9125,-2.9227,-2.9556,-2.9925,-3.0063,-2.9956,-2.9766,-2.9633,-2.9677,-2.9682,-2.961,-2.9627,-2.9876,-3.0148,-3.0283,-3.0432,-3.0793,-3.1017,-3.1167,-3.1182,-3.1227,-3.1496,-3.1496,-3.1421,-3.1451,-3.1466,-3.1466,-3.1496,-3.1496,-3.1478,-3.1521,-3.1707,-3.1836,-3.1936,-3.2066,-3.2066,-3.2122,-3.2094,-3.2137,-3.2165,-3.2234,-3.2318,-3.2471,-3.2484,-3.2496,-3.2621,-2.6487,-2.6658,-2.6714,-2.6884,-2.7154,-2.7248,-2.7469,-2.7736,-2.7848,-2.7901,-2.7967,-2.8079,-2.8112,-2.8112,-2.8,-2.7967,-2.7967,-2.7868,-2.7848,-2.7848,-2.7822,-2.7603,-2.7083,-2.637,-2.5965,-2.5504,-2.5213,-2.4991,-2.4946,-2.492,-2.4948,-2.4977,-2.5005,-2.5033,-2.5118,-2.5174,-2.5286,-2.5481,-2.5688,-2.5893,-2.6029,-2.6394,-2.6647,-2.6806,-2.7144,-2.7412,-2.769,-2.7965,-2.8201,-2.8332,-2.8396,-2.8411,-2.8411,-2.8411,-2.8411,-2.8411,-2.8411,-2.8411,-2.8411,-2.8411,-2.8411,-2.8411,-2.8411,-2.8411,-2.8488,-2.8627,-2.8827,-2.8895,-2.9458,-2.9756,-2.995,-3.0443,-3.0755,-3.0779,-3.0968,-3.0838,-3.0258,-3.0179,-3.0211,-3.0165,-3.0293,-3.0507,-3.0911,-3.0926,-3.1092,-3.1346,-3.1376,-3.1436,-3.1451,-3.1496,-3.1496,-3.1496,-3.1496,-3.1496,-3.1496,-3.1496,-3.1496,-3.1496,-3.1496,-3.1553,-3.1655,-3.1769,-3.1826,-3.1883,-3.1883,-3.1912,-3.194,-3.1983,-3.2053,-3.2109,-3.2094,-3.2122,-3.2163,-3.2247,-3.2358,-2.5968,-2.6211,-2.6289,-2.6461,-2.6692,-2.6841,-2.7066,-2.7235,-2.7403,-2.757,-2.7723,-2.7947,-2.7947,-2.8013,-2.7835,-2.7776,-2.7756,-2.7623,-2.757,-2.757,-2.753,-2.7407,-2.7266,-2.7006,-2.6467,-2.5781,-2.5502,-2.5194,-2.4976,-2.4844,-2.4835,-2.4892,-2.492,-2.4977,-2.5005,-2.509,-2.516,-2.5286,-2.5481,-2.5702,-2.5866,-2.6152,-2.6394,-2.6686,-2.7052,-2.7386,-2.769,-2.793,-2.8079,-2.8339,-2.8372,-2.8372,-2.8411,-2.8411,-2.8411,-2.8411,-2.8411,-2.8411,-2.8411,-2.8411,-2.8411,-2.8411,-2.8411,-2.8473,-2.8642,-2.9018,-2.9325,-2.9479,-3.0109,-3.0509,-3.0718,-3.1144,-3.1309,-3.135,-3.1796,-3.1424,-3.0676,-3.0558,-3.0766,-3.0642,-3.1137,-3.1421,-3.1496,-3.1496,-3.1496,-3.1421,-3.1496,-3.1496,-3.1496,-3.1496,-3.1496,-3.1496,-3.1496,-3.1496,-3.1496,-3.1496,-3.1496,-3.1496,-3.1496,-3.1524,-3.1524,-3.1626,-3.1641,-3.1698,-3.1712,-3.1769,-3.1826,-3.1883,-3.1912,-3.194,-3.1896,-3.1925,-3.1981,-3.2066,-3.2193,-2.5641,-2.5968,-2.6002,-2.6141,-2.6302,-2.6474,-2.6633,-2.685,-2.7032,-2.7201,-2.7403,-2.7469,-2.7536,-2.7636,-2.7603,-2.7556,-2.759,-2.7536,-2.7503,-2.7503,-2.7503,-2.7484,-2.7334,-2.7065,-2.6749,-2.6311,-2.5603,-2.5269,-2.5162,-2.486,-2.4649,-2.4706,-2.482,-2.4835,-2.4863,-2.4977,-2.5104,-2.5202,-2.5286,-2.5481,-2.5702,-2.5893,-2.6138,-2.6459,-2.6948,-2.7321,-2.76,-2.7765,-2.793,-2.8054,-2.8177,-2.8275,-2.8372,-2.8411,-2.8411,-2.8411,-2.8411,-2.8411,-2.8411,-2.8411,-2.8427,-2.8458,-2.8519,-2.8627,-2.9141,-2.9341,-2.9694,-3.0109,-3.0771,-3.1298,-3.1619,-3.1784,-3.1789,-3.1794,-3.1832,-3.1792,-3.1494,-3.1453,-3.1369,-3.1329,-3.1361,-3.1496,-3.1496,-3.1496,-3.1496,-3.1496,-3.1496,-3.1496,-3.1496,-3.1496,-3.1496,-3.1496,-3.1496,-3.1496,-3.1496,-3.1496,-3.1496,-3.1496,-3.1496,-3.1496,-3.1496,-3.1496,-3.1568,-3.1568,-3.1539,-3.1626,-3.1712,-3.1683,-3.1683,-3.1683,-3.1741,-3.1769,-3.1826,-3.1927,-3.194,-2.5265,-2.5512,-2.5583,-2.5746,-2.5908,-2.6082,-2.6302,-2.6543,-2.6658,-2.6897,-2.7113,-2.718,-2.7214,-2.7281,-2.7369,-2.7403,-2.7436,-2.7469,-2.7503,-2.7503,-2.7503,-2.7503,-2.7477,-2.7223,-2.7026,-2.6763,-2.6269,-2.5766,-2.5332,-2.5034,-2.4797,-2.4605,-2.4677,-2.4706,-2.4734,-2.4835,-2.4948,-2.5005,-2.5146,-2.5314,-2.5481,-2.5757,-2.6138,-2.6474,-2.6858,-2.713,-2.7397,-2.7554,-2.769,-2.7815,-2.794,-2.8128,-2.8299,-2.8372,-2.8411,-2.8411,-2.8411,-2.8411,-2.8411,-2.8427,-2.8565,-2.8842,-2.8849,-2.9273,-2.9797,-3.0135,-3.0422,-3.0841,-3.1351,-3.1879,-3.2076,-3.2066,-3.1981,-3.1883,-3.1841,-3.1771,-3.1698,-3.167,-3.1641,-3.1539,-3.1481,-3.1496,-3.1496,-3.1496,-3.1496,-3.1496,-3.1496,-3.1496,-3.1496,-3.1496,-3.1496,-3.1496,-3.1496,-3.1496,-3.1496,-3.1496,-3.1496,-3.1496,-3.1496,-3.1496,-3.1496,-3.1496,-3.1496,-3.1511,-3.1511,-3.1511,-3.1553,-3.1496,-3.1496,-3.1553,-3.1626,-3.1641,-3.167,-3.1712,-3.1712,-2.4897,-2.5087,-2.5182,-2.5359,-2.5548,-2.5711,-2.5955,-2.6255,-2.6311,-2.6543,-2.6863,-2.6909,-2.6943,-2.7045,-2.718,-2.7268,-2.7335,-2.739,-2.7456,-2.7503,-2.7503,-2.7503,-2.7477,-2.7398,-2.7275,-2.6863,-2.6627,-2.6154,-2.5656,-2.5225,-2.4955,-2.4704,-2.4563,-2.4549,-2.4578,-2.4706,-2.4791,-2.4835,-2.5005,-2.5174,-2.5258,-2.5591,-2.6002,-2.6447,-2.6753,-2.691,-2.713,-2.7284,-2.7437,-2.7575,-2.77,-2.7875,-2.8088,-2.825,-2.8323,-2.8339,-2.8348,-2.8348,-2.8409,-2.8541,-2.8833,-2.9371,-2.9485,-2.9823,-3.0437,-3.0872,-3.1114,-3.1411,-3.1769,-3.2018,-3.2012,-3.1912,-3.1855,-3.1784,-3.1771,-3.167,-3.1568,-3.1496,-3.1511,-3.1511,-3.1496,-3.1496,-3.1496,-3.1496,-3.1496,-3.1496,-3.1496,-3.1496,-3.1496,-3.1496,-3.1496,-3.1496,-3.1496,-3.1496,-3.1496,-3.1496,-3.1496,-3.1496,-3.1496,-3.1496,-3.1496,-3.1496,-3.1496,-3.1496,-3.1496,-3.1496,-3.1496,-3.1496,-3.1496,-3.1496,-3.1496,-3.1568,-3.1539,-3.1496,-3.1524,-2.467,-2.4861,-2.4849,-2.4992,-2.5182,-2.5324,-2.5523,-2.5746,-2.5921,-2.6164,-2.6461,-2.6508,-2.6679,-2.6909,-2.7011,-2.7113,-2.7248,-2.7335,-2.7403,-2.7456,-2.749,-2.7503,-2.7503,-2.749,-2.7411,-2.7255,-2.6987,-2.6588,-2.6175,-2.5559,-2.5214,-2.4915,-2.4582,-2.4429,-2.4471,-2.4507,-2.4677,-2.4721,-2.4863,-2.4977,-2.5174,-2.5342,-2.5647,-2.6125,-2.6515,-2.6753,-2.691,-2.7104,-2.7284,-2.7437,-2.7575,-2.7715,-2.7941,-2.8065,-2.8115,-2.8118,-2.8278,-2.8348,-2.8403,-2.8907,-2.9218,-2.9469,-2.9833,-3.0379,-3.0888,-3.1128,-3.1409,-3.1675,-3.1804,-3.187,-3.1841,-3.1712,-3.1611,-3.1553,-3.1568,-3.1553,-3.1496,-3.1496,-3.1496,-3.1496,-3.1496,-3.1496,-3.1496,-3.1496,-3.1496,-3.1496,-3.1496,-3.1496,-3.1496,-3.1496,-3.1496,-3.1496,-3.1496,-3.1496,-3.1496,-3.1496,-3.1496,-3.1496,-3.1496,-3.1496,-3.1496,-3.1496,-3.1496,-3.1496,-3.1496,-3.1496,-3.1496,-3.1496,-3.1496,-3.1496,-3.1496,-3.1496,-3.1496,-3.1496,-3.1496,-2.4454,-2.4646,-2.4646,-2.4754,-2.4921,-2.5028,-2.5182,-2.5453,-2.5571,-2.5781,-2.606,-2.6164,-2.6314,-2.6533,-2.6658,-2.685,-2.71,-2.7268,-2.7335,-2.7403,-2.7469,-2.7503,-2.7503,-2.7503,-2.7503,-2.7425,-2.7223,-2.6922,-2.6693,-2.6209,-2.5712,-2.5345,-2.4908,-2.4649,-2.4616,-2.4509,-2.4545,-2.4591,-2.4748,-2.4862,-2.5032,-2.5145,-2.5481,-2.588,-2.6207,-2.642,-2.6671,-2.687,-2.7026,-2.7196,-2.7386,-2.7708,-2.8034,-2.8211,-2.8233,-2.8137,-2.8388,-2.8621,-2.8728,-2.9297,-2.9842,-3.0223,-3.0491,-3.0921,-3.1409,-3.1627,-3.1635,-3.1749,-3.1741,-3.1626,-3.1626,-3.1539,-3.1496,-3.1496,-3.1496,-3.1496,-3.1496,-3.1496,-3.1496,-3.1496,-3.1496,-3.1496,-3.1496,-3.1496,-3.1496,-3.1496,-3.1496,-3.1496,-3.1496,-3.1496,-3.1496,-3.1496,-3.1496,-3.1496,-3.1496,-3.1496,-3.1496,-3.1496,-3.1496,-3.1496,-3.1496,-3.1496,-3.1496,-3.1496,-3.1496,-3.1496,-3.1496,-3.1496,-3.1496,-3.1496,-3.1496,-3.1496,-3.1496,-3.1496,-3.1496,-2.4309,-2.4465,-2.4454,-2.4574,-2.4718,-2.4754,-2.4921,-2.5182,-2.5253,-2.5465,-2.5758,-2.584,-2.5945,-2.6119,-2.6314,-2.6543,-2.6943,-2.7113,-2.7201,-2.7335,-2.7403,-2.7469,-2.7503,-2.7503,-2.7503,-2.749,-2.7451,-2.7288,-2.6961,-2.6667,-2.6373,-2.5968,-2.5463,-2.5175,-2.5101,-2.4928,-2.4629,-2.4707,-2.4866,-2.5041,-2.5199,-2.5415,-2.5727,-2.612,-2.6203,-2.6522,-2.684,-2.714,-2.7329,-2.7489,-2.77,-2.8006,-2.8444,-2.8654,-2.8599,-2.8419,-2.8843,-2.9107,-2.9319,-2.9826,-3.0414,-3.0791,-3.1043,-3.1453,-3.1697,-3.1777,-3.1796,-3.1727,-3.1626,-3.1496,-3.1524,-3.1496,-3.1496,-3.1496,-3.1496,-3.1496,-3.1496,-3.1496,-3.1496,-3.1496,-3.1496,-3.1496,-3.1496,-3.1496,-3.1496,-3.1496,-3.1496,-3.1496,-3.1496,-3.1496,-3.1496,-3.1496,-3.1496,-3.1496,-3.1496,-3.1496,-3.1496,-3.1496,-3.1496,-3.1496,-3.1496,-3.1496,-3.1496,-3.1496,-3.1496,-3.1496,-3.1496,-3.1496,-3.1496,-3.1496,-3.1496,-3.1496,-3.1496,-3.1496,-3.1496,-2.42,-2.4236,-2.4225,-2.4345,-2.4526,-2.4526,-2.4682,-2.4861,-2.5052,-2.5206,-2.5394,-2.5571,-2.5723,-2.5945,-2.6154,-2.643,-2.6671,-2.6829,-2.6998,-2.7235,-2.7302,-2.7403,-2.7503,-2.7503,-2.7503,-2.7503,-2.7503,-2.7477,-2.7242,-2.6909,-2.67,-2.6465,-2.6046,-2.572,-2.5707,-2.5489,-2.5677,-2.5761,-2.5796,-2.5936,-2.6213,-2.6473,-2.6681,-2.6872,-2.7122,-2.7355,-2.7413,-2.7726,-2.8036,-2.8246,-2.8528,-2.8796,-2.9022,-2.9131,-2.9213,-2.9262,-2.9484,-2.9704,-2.9822,-3.0401,-3.0849,-3.1124,-3.1371,-3.1662,-3.1739,-3.1683,-3.1582,-3.1524,-3.1496,-3.1496,-3.1496,-3.1496,-3.1496,-3.1496,-3.1496,-3.1496,-3.1496,-3.1496,-3.1496,-3.1496,-3.1496,-3.1496,-3.1496,-3.1496,-3.1496,-3.1496,-3.1496,-3.1496,-3.1496,-3.1496,-3.1496,-3.1496,-3.1496,-3.1496,-3.1496,-3.1496,-3.1496,-3.1496,-3.1496,-3.1496,-3.1496,-3.1496,-3.1496,-3.1496,-3.1496,-3.1496,-3.1496,-3.1496,-3.1496,-3.1496,-3.1496,-3.1496,-3.1496,-3.1496,-3.1496,-2.408,-2.4189,-2.4189,-2.4225,-2.4309,-2.4309,-2.4454,-2.461,-2.4742,-2.4873,-2.5052,-2.5218,-2.5465,-2.5758,-2.6062,-2.627,-2.6443,-2.6602,-2.6829,-2.7113,-2.7235,-2.7369,-2.7469,-2.7503,-2.7503,-2.7503,-2.7503,-2.7503,-2.7385,-2.7294,-2.7157,-2.704,-2.6621,-2.6308,-2.6269,-2.5981,-2.5837,-2.5879,-2.5954,-2.6171,-2.6448,-2.6675,-2.6826,-2.7007,-2.726,-2.7482,-2.7761,-2.7836,-2.814,-2.8326,-2.8595,-2.8954,-2.9329,-2.9645,-2.9918,-3.0446,-3.0559,-3.0507,-3.0366,-3.0902,-3.1155,-3.1276,-3.1474,-3.1581,-3.1597,-3.1568,-3.1496,-3.1496,-3.1496,-3.1496,-3.1496,-3.1496,-3.1496,-3.1496,-3.1496,-3.1496,-3.1496,-3.1496,-3.1496,-3.1496,-3.1496,-3.1496,-3.1496,-3.1496,-3.1496,-3.1496,-3.1496,-3.1496,-3.1496,-3.1496,-3.1496,-3.1496,-3.1496,-3.1496,-3.1496,-3.1496,-3.1496,-3.1496,-3.1496,-3.1496,-3.1496,-3.1496,-3.1496,-3.1496,-3.1496,-3.1496,-3.1496,-3.1496,-3.1496,-3.1496,-3.1496,-3.1496,-3.1496,-3.1496,-3.1496,-2.4007,-2.42,-2.4189,-2.4189,-2.4189,-2.4189,-2.4273,-2.4418,-2.449,-2.461,-2.4742,-2.4981,-2.5253,-2.5535,-2.5875,-2.6084,-2.6236,-2.6465,-2.6705,-2.6909,-2.7146,-2.7315,-2.7403,-2.7469,-2.7503,-2.7503,-2.7503,-2.7503,-2.7503,-2.7464,-2.7438,-2.749,-2.7105,-2.6909,-2.6778,-2.6582,-2.6399,-2.6399,-2.6532,-2.6696,-2.6858,-2.6988,-2.7161,-2.7288,-2.7445,-2.7613,-2.7915,-2.821,-2.8402,-2.8607,-2.8943,-2.9377,-2.9769,-3.0061,-3.0411,-3.0851,-3.0997,-3.0966,-3.0858,-3.1138,-3.1451,-3.1496,-3.1496,-3.1524,-3.1496,-3.1496,-3.1496,-3.1496,-3.1496,-3.1496,-3.1496,-3.1496,-3.1496,-3.1496,-3.1496,-3.1496,-3.1496,-3.1496,-3.1496,-3.1496,-3.1496,-3.1496,-3.1496,-3.1496,-3.1496,-3.1496,-3.1496,-3.1496,-3.1496,-3.1496,-3.1496,-3.1496,-3.1496,-3.1496,-3.1496,-3.1496,-3.1496,-3.1496,-3.1496,-3.1496,-3.1496,-3.1496,-3.1496,-3.1496,-3.1496,-3.1496,-3.1496,-3.1496,-3.1496,-3.1496,-3.1496,-3.1496,-3.1496,-3.1496,-3.1496,-2.4018,-2.4189,-2.4189,-2.4189,-2.4189,-2.4189,-2.4189,-2.4273,-2.4418,-2.449,-2.4598,-2.4909,-2.5147,-2.5359,-2.5606,-2.5875,-2.6201,-2.6201,-2.6465,-2.6726,-2.693,-2.7134,-2.7302,-2.7436,-2.7503,-2.7503,-2.7503,-2.7503,-2.7503,-2.7503,-2.7503,-2.7464,-2.7346,-2.7398,-2.7346,-2.715,-2.7111,-2.7144,-2.7275,-2.7426,-2.7635,-2.7811,-2.8005,-2.8142,-2.8447,-2.8707,-2.8725,-2.8952,-2.9192,-2.9285,-2.9531,-2.9773,-3.0008,-3.0276,-3.0615,-3.0837,-3.1029,-3.0999,-3.1086,-3.1203,-3.1422,-3.1496,-3.1496,-3.1467,-3.1467,-3.1482,-3.1511,-3.1438,-3.1438,-3.1482,-3.1467,-3.1496,-3.1496,-3.1496,-3.1496,-3.1496,-3.1496,-3.1496,-3.1496,-3.1496,-3.1496,-3.1496,-3.1496,-3.1496,-3.1496,-3.1496,-3.1496,-3.1496,-3.1496,-3.1496,-3.1496,-3.1496,-3.1496,-3.1496,-3.1496,-3.1496,-3.1496,-3.1496,-3.1496,-3.1496,-3.1496,-3.1496,-3.1496,-3.1496,-3.1496,-3.1496,-3.1496,-3.1496,-3.1496,-3.1496,-3.1496,-3.1496,-3.1496,-3.1496,-3.1496,-2.3934,-2.4189,-2.4189,-2.4189,-2.4189,-2.4189,-2.4189,-2.42,-2.4273,-2.4393,-2.449,-2.4778,-2.5016,-2.5218,-2.55,-2.5758,-2.6027,-2.6166,-2.6396,-2.6658,-2.6897,-2.7113,-2.7281,-2.7403,-2.7503,-2.7503,-2.7503,-2.7503,-2.7503,-2.7503,-2.7503,-2.7503,-2.7503,-2.749,-2.749,-2.7503,-2.7503,-2.7503,-2.759,-2.7656,-2.7822,-2.7908,-2.8091,-2.832,-2.8352,-2.8605,-2.8785,-2.8958,-2.9226,-2.9446,-2.9665,-2.9837,-3.0038,-3.0266,-3.0477,-3.0642,-3.0806,-3.0925,-3.1043,-3.119,-3.1278,-3.1351,-3.138,-3.138,-3.1366,-3.1307,-3.1249,-3.1278,-3.1322,-3.138,-3.138,-3.1438,-3.1496,-3.1496,-3.1467,-3.1467,-3.1467,-3.1438,-3.1453,-3.1424,-3.1467,-3.1496,-3.1496,-3.1496,-3.1496,-3.1496,-3.1496,-3.1496,-3.1496,-3.1467,-3.1467,-3.1438,-3.1438,-3.1453,-3.1453,-3.1467,-3.1496,-3.1467,-3.1467,-3.1438,-3.1409,-3.1511,-3.1511,-3.1496,-3.1496,-3.1496,-3.1496,-3.1496,-3.1496,-3.1496,-3.1496,-3.1496,-3.1496,-3.1496,-3.1496,-2.3824,-2.4189,-2.4189,-2.4189,-2.4189,-2.4189,-2.4189,-2.4189,-2.42,-2.4273,-2.4418,-2.461,-2.4814,-2.5052,-2.53,-2.5653,-2.5875,-2.605,-2.6327,-2.6602,-2.6875,-2.7045,-2.7235,-2.7356,-2.7503,-2.7503,-2.7503,-2.7503,-2.7503,-2.7503,-2.7503,-2.7503,-2.7503,-2.7503,-2.7503,-2.7503,-2.7503,-2.7503,-2.7503,-2.7556,-2.7689,-2.7776,-2.7875,-2.8137,-2.8222,-2.8384,-2.8605,-2.8766,-2.8972,-2.9194,-2.9415,-2.9588,-2.9761,-2.9976,-3.0221,-3.0417,-3.0582,-3.0732,-3.0821,-3.1043,-3.1132,-3.122,-3.1234,-3.1234,-3.122,-3.1161,-3.1146,-3.1132,-3.1205,-3.1234,-3.1234,-3.1307,-3.1336,-3.1307,-3.1292,-3.1292,-3.1307,-3.1307,-3.1351,-3.1351,-3.1366,-3.1366,-3.1336,-3.1336,-3.1409,-3.1438,-3.1496,-3.1496,-3.1511,-3.1467,-3.1409,-3.138,-3.1351,-3.1366,-3.1366,-3.1336,-3.1307,-3.1307,-3.1307,-3.1307,-3.1336,-3.1395,-3.1424,-3.1409,-3.1409,-3.1438,-3.1467,-3.1467,-3.1496,-3.1496,-3.1496,-3.1496,-3.1496,-3.1496,-3.1496,-2.3824,-2.4189,-2.4189,-2.4189,-2.4189,-2.4189,-2.4189,-2.4189,-2.4189,-2.4236,-2.4273,-2.4454,-2.4634,-2.4849,-2.5087,-2.5442,-2.584,-2.5945,-2.6154,-2.6533,-2.6854,-2.6977,-2.7146,-2.7302,-2.7503,-2.7503,-2.7503,-2.7503,-2.7503,-2.7503,-2.7503,-2.7503,-2.7503,-2.7503,-2.7503,-2.7503,-2.7503,-2.7503,-2.7503,-2.7523,-2.7556,-2.7689,-2.7776,-2.7941,-2.8091,-2.8268,-2.843,-2.8605,-2.8766,-2.894,-2.9194,-2.9383,-2.9571,-2.973,-2.9929,-3.008,-3.0249,-3.0326,-3.0387,-3.0836,-3.0984,-3.1073,-3.1073,-3.1073,-3.1117,-3.1087,-3.1028,-3.0984,-3.1043,-3.1073,-3.1117,-3.1117,-3.1146,-3.1176,-3.1161,-3.119,-3.119,-3.1205,-3.1234,-3.1234,-3.1176,-3.1117,-3.1117,-3.1146,-3.1278,-3.1366,-3.1467,-3.1467,-3.1453,-3.1395,-3.1322,-3.1292,-3.1234,-3.1249,-3.1234,-3.1176,-3.1146,-3.1102,-3.1132,-3.119,-3.119,-3.119,-3.1249,-3.1278,-3.1278,-3.1322,-3.138,-3.1467,-3.1409,-3.1395,-3.1467,-3.1496,-3.1496,-3.1496,-3.1496,-2.3934,-2.4189,-2.4189,-2.4189,-2.4189,-2.4189,-2.4189,-2.4189,-2.4189,-2.4189,-2.4236,-2.4429,-2.461,-2.4814,-2.5016,-2.5371,-2.584,-2.591,-2.6119,-2.6499,-2.6841,-2.6956,-2.7113,-2.7315,-2.7503,-2.7503,-2.7503,-2.7503,-2.7503,-2.7503,-2.7503,-2.7503,-2.7503,-2.7503,-2.7503,-2.7503,-2.7503,-2.7503,-2.7503,-2.749,-2.749,-2.7577,-2.7643,-2.7789,-2.7908,-2.8072,-2.8254,-2.843,-2.856,-2.8748,-2.9004,-2.9131,-2.9289,-2.9495,-2.9665,-2.9834,-2.9974,-3.0158,-3.0189,-3.0385,-3.0611,-3.0746,-3.0866,-3.0866,-3.0895,-3.0821,-3.0791,-3.0806,-3.0836,-3.0866,-3.0925,-3.1028,-3.1087,-3.1117,-3.1117,-3.1117,-3.1146,-3.1117,-3.1146,-3.1146,-3.1087,-3.1028,-3.1014,-3.091,-3.0984,-3.1043,-3.1087,-3.122,-3.122,-3.1234,-3.1161,-3.1161,-3.1132,-3.1102,-3.1087,-3.094,-3.094,-3.0925,-3.1014,-3.1117,-3.1117,-3.0999,-3.1073,-3.1087,-3.1146,-3.1176,-3.1234,-3.1307,-3.1264,-3.1264,-3.1336,-3.1438,-3.1467,-3.1467,-3.1496,-2.4018,-2.4189,-2.4189,-2.4189,-2.4189,-2.4189,-2.4189,-2.4189,-2.4189,-2.4189,-2.4236,-2.4345,-2.4538,-2.4754,-2.4957,-2.5371,-2.584,-2.591,-2.6176,-2.6568,-2.6841,-2.7011,-2.718,-2.7335,-2.7469,-2.7503,-2.7503,-2.7503,-2.7503,-2.7503,-2.7503,-2.7503,-2.7503,-2.7503,-2.7503,-2.7503,-2.7503,-2.7503,-2.7503,-2.7503,-2.7503,-2.7523,-2.7556,-2.7656,-2.7789,-2.7908,-2.8105,-2.8268,-2.8384,-2.8592,-2.8734,-2.8844,-2.9035,-2.9226,-2.9415,-2.9509,-2.962,-2.9837,-2.996,-3.0005,-3.0219,-3.0357,-3.0492,-3.0567,-3.0567,-3.0462,-3.0431,-3.0462,-3.0536,-3.0567,-3.0627,-3.0746,-3.0776,-3.0776,-3.0776,-3.0776,-3.0746,-3.0746,-3.0746,-3.0776,-3.0776,-3.0776,-3.0776,-3.0717,-3.0627,-3.0687,-3.0717,-3.0836,-3.0955,-3.0955,-3.0955,-3.0955,-3.0881,-3.0762,-3.0717,-3.0657,-3.0657,-3.0746,-3.0806,-3.0836,-3.0746,-3.0612,-3.0776,-3.0925,-3.0955,-3.0969,-3.1073,-3.1117,-3.1087,-3.1117,-3.122,-3.1307,-3.1409,-3.1438,-3.1438,-2.4007,-2.42,-2.4189,-2.4189,-2.4189,-2.4189,-2.4189,-2.4189,-2.4189,-2.4189,-2.42,-2.4236,-2.4454,-2.4754,-2.4825,-2.5242,-2.5805,-2.5888,-2.6258,-2.6589,-2.6863,-2.7079,-2.7248,-2.7436,-2.7503,-2.7503,-2.7503,-2.7503,-2.7503,-2.7503,-2.7503,-2.7503,-2.7503,-2.7503,-2.7503,-2.7503,-2.7503,-2.7503,-2.7503,-2.7503,-2.7503,-2.7503,-2.7536,-2.759,-2.7689,-2.7789,-2.7941,-2.8072,-2.8235,-2.8398,-2.8573,-2.8702,-2.883,-2.9004,-2.9067,-2.9149,-2.9279,-2.9467,-2.9668,-2.9713,-2.973,-2.9853,-2.9943,-3.005,-3.0111,-3.0111,-3.0097,-3.0127,-3.0189,-3.0172,-3.0172,-3.0203,-3.0233,-3.0233,-3.0233,-3.0233,-3.0203,-3.0203,-3.0203,-3.0233,-3.0219,-3.0219,-3.0203,-3.0172,-3.0233,-3.0233,-3.0264,-3.0371,-3.0536,-3.0687,-3.0657,-3.0657,-3.0552,-3.0387,-3.0341,-3.0355,-3.0385,-3.0446,-3.0355,-3.0355,-3.0249,-3.028,-3.0431,-3.0597,-3.0672,-3.0732,-3.0746,-3.0836,-3.094,-3.0969,-3.0925,-3.1132,-3.1205,-3.1263,-3.1292,-2.4152,-2.4189,-2.4189,-2.4189,-2.4189,-2.42,-2.4189,-2.4189,-2.4189,-2.4189,-2.4189,-2.4189,-2.4454,-2.4801,-2.4837,-2.5277,-2.5665,-2.598,-2.628,-2.6589,-2.6909,-2.7113,-2.7281,-2.7436,-2.7503,-2.7503,-2.7503,-2.7503,-2.7503,-2.7503,-2.7503,-2.7503,-2.7503,-2.7503,-2.7503,-2.7503,-2.7503,-2.7503,-2.7503,-2.7503,-2.7503,-2.7503,-2.7503,-2.7536,-2.7556,-2.7656,-2.7822,-2.7908,-2.8006,-2.8183,-2.8346,-2.843,-2.8463,-2.8734,-2.894,-2.9099,-2.9149,-2.9212,-2.9289,-2.9306,-2.9306,-2.9306,-2.9383,-2.954,-2.9634,-2.9727,-2.9758,-2.982,-2.9837,-2.9851,-2.9896,-2.9927,-2.9927,-2.9927,-2.9927,-2.9927,-2.9927,-2.9927,-2.9927,-2.9896,-2.9882,-2.9789,-2.9758,-2.9772,-2.982,-2.9758,-2.9789,-2.9913,-3.0066,-3.0219,-3.031,-3.031,-3.0205,-3.0038,-3.0097,-3.0142,-3.0142,-3.0111,-2.9988,-2.9958,-3.0019,-3.0066,-3.0158,-3.0249,-3.031,-3.031,-3.031,-3.0416,-3.0536,-3.0476,-3.0431,-3.0762,-3.0999,-3.1058,-3.1176,-2.4381,-2.4429,-2.4418,-2.4418,-2.4418,-2.4345,-2.4309,-2.4309,-2.4236,-2.4189,-2.4189,-2.4273,-2.449,-2.479,-2.4885,-2.5277,-2.5888,-2.5945,-2.6211,-2.676,-2.6909,-2.7146,-2.7335,-2.7469,-2.7503,-2.7503,-2.7503,-2.7503,-2.7503,-2.7503,-2.7503,-2.7503,-2.7503,-2.7503,-2.7503,-2.7503,-2.7503,-2.7503,-2.7503,-2.7503,-2.7503,-2.7503,-2.7503,-2.7503,-2.7503,-2.759,-2.7689,-2.7723,-2.7855,-2.8,-2.8137,-2.8216,-2.8249,-2.8425,-2.8522,-2.8651,-2.8651,-2.8702,-2.8753,-2.8753,-2.8766,-2.8798,-2.8798,-2.883,-2.9035,-2.9194,-2.9338,-2.9495,-2.9526,-2.9543,-2.962,-2.9696,-2.9696,-2.9665,-2.9665,-2.9665,-2.9665,-2.9665,-2.9665,-2.9665,-2.9602,-2.9463,-2.9432,-2.9415,-2.9415,-2.9415,-2.9415,-2.9446,-2.9602,-2.9789,-2.9882,-2.9943,-2.9837,-2.973,-2.9775,-2.9789,-2.9696,-2.9634,-2.9571,-2.9571,-2.9696,-2.9758,-2.9775,-2.9851,-2.9927,-2.9943,-2.996,-2.9991,-3.0052,-3.0036,-3.0097,-3.0341,-3.0642,-3.0821,-3.0969,-2.4541,-2.4731,-2.4778,-2.4765,-2.4765,-2.461,-2.4526,-2.449,-2.4345,-2.4225,-2.4273,-2.4418,-2.461,-2.479,-2.4992,-2.5336,-2.577,-2.5923,-2.6292,-2.6943,-2.699,-2.718,-2.7403,-2.7503,-2.7503,-2.7503,-2.7503,-2.7503,-2.7503,-2.7503,-2.7503,-2.7503,-2.7503,-2.7503,-2.7503,-2.7503,-2.7503,-2.7503,-2.7503,-2.7503,-2.7503,-2.7503,-2.7503,-2.7503,-2.7503,-2.7536,-2.7556,-2.7656,-2.7789,-2.7855,-2.7954,-2.8066,-2.8145,-2.8145,-2.8177,-2.8177,-2.8243,-2.8295,-2.8379,-2.8379,-2.8365,-2.8333,-2.8287,-2.8346,-2.8522,-2.8716,-2.8908,-2.9022,-2.9008,-2.9135,-2.9212,-2.9275,-2.9275,-2.9352,-2.9397,-2.9397,-2.9397,-2.932,-2.9212,-2.918,-2.9053,-2.899,-2.8908,-2.8876,-2.8876,-2.8972,-2.8972,-2.8972,-2.9067,-2.9257,-2.9415,-2.9509,-2.9432,-2.9355,-2.9279,-2.9261,-2.9162,-2.9099,-2.9099,-2.9131,-2.9194,-2.9275,-2.9355,-2.9463,-2.9571,-2.962,-2.9637,-2.9651,-2.9682,-2.9789,-2.9865,-2.9988,-3.0233,-3.0462,-3.0732,-2.3791,-2.4237,-2.4625,-2.4801,-2.4801,-2.4754,-2.4718,-2.4718,-2.4682,-2.449,-2.4273,-2.4418,-2.461,-2.4849,-2.5052,-2.5407,-2.5805,-2.5957,-2.6361,-2.6786,-2.699,-2.718,-2.7436,-2.7503,-2.7503,-2.7503,-2.7503,-2.7503,-2.7503,-2.7503,-2.7503,-2.7503,-2.7503,-2.7503,-2.7503,-2.7503,-2.7503,-2.7503,-2.7503,-2.7503,-2.7503,-2.7503,-2.7503,-2.7503,-2.7503,-2.7503,-2.7536,-2.7536,-2.7556,-2.7603,-2.7789,-2.7934,-2.8079,-2.8079,-2.8112,-2.8112,-2.8046,-2.8079,-2.8112,-2.8099,-2.8099,-2.8131,-2.8131,-2.8112,-2.8177,-2.8276,-2.8392,-2.8476,-2.856,-2.8688,-2.8785,-2.8849,-2.8881,-2.8972,-2.9049,-2.9049,-2.9049,-2.8908,-2.8753,-2.8656,-2.8527,-2.8476,-2.8425,-2.8406,-2.8341,-2.8341,-2.8341,-2.8341,-2.8406,-2.8554,-2.8876,-2.8972,-2.9008,-2.8931,-2.8867,-2.8817,-2.8748,-2.8716,-2.8716,-2.8716,-2.8716,-2.8798,-2.8944,-2.9117,-2.9257,-2.9212,-2.9212,-2.9243,-2.9289,-2.9446,-2.954,-2.962,-2.982,-3.0036,-3.0341,-2.3661,-2.4062,-2.4563,-2.4932,-2.5099,-2.4992,-2.4921,-2.4933,-2.4825,-2.4682,-2.4526,-2.467,-2.4849,-2.4945,-2.5111,-2.5442,-2.584,-2.5923,-2.6292,-2.6705,-2.699,-2.718,-2.7335,-2.7469,-2.7503,-2.7503,-2.7503,-2.7503,-2.7503,-2.7503,-2.7503,-2.7503,-2.7503,-2.7503,-2.7503,-2.7503,-2.7503,-2.7503,-2.7503,-2.7503,-2.7503,-2.7503,-2.7503,-2.7503,-2.7503,-2.7503,-2.7503,-2.7503,-2.7503,-2.7503,-2.7623,-2.7689,-2.7769,-2.7802,-2.7815,-2.7802,-2.7802,-2.7848,-2.7848,-2.7848,-2.7848,-2.7848,-2.7848,-2.7769,-2.7769,-2.7901,-2.8046,-2.8164,-2.8262,-2.8392,-2.8392,-2.8457,-2.8457,-2.8536,-2.8536,-2.8536,-2.8536,-2.8457,-2.8379,-2.836,-2.8295,-2.8262,-2.8243,-2.8243,-2.821,-2.8177,-2.8112,-2.8046,-2.8046,-2.7947,-2.8276,-2.8425,-2.843,-2.8495,-2.8444,-2.8425,-2.8392,-2.8373,-2.8327,-2.8373,-2.8373,-2.8411,-2.8527,-2.8683,-2.8748,-2.867,-2.867,-2.8766,-2.8894,-2.904,-2.9135,-2.923,-2.9432,-2.9634,-2.9913,-2.3688,-2.3989,-2.4487,-2.501,-2.5437,-2.5192,-2.5122,-2.5111,-2.4957,-2.4897,-2.4885,-2.5052,-2.5123,-2.5147,-2.5241,-2.5571,-2.5805,-2.5888,-2.6245,-2.6658,-2.6875,-2.7113,-2.7268,-2.7403,-2.7469,-2.7503,-2.7503,-2.7503,-2.7503,-2.7503,-2.7503,-2.7503,-2.7503,-2.7503,-2.7503,-2.7503,-2.7503,-2.7503,-2.7503,-2.749,-2.749,-2.7503,-2.7503,-2.7503,-2.7503,-2.7503,-2.7503,-2.7503,-2.7503,-2.7503,-2.749,-2.7503,-2.7456,-2.7503,-2.7436,-2.7436,-2.7436,-2.7436,-2.7436,-2.7469,-2.7436,-2.7423,-2.7436,-2.7436,-2.7469,-2.7536,-2.7716,-2.7782,-2.7914,-2.8046,-2.8046,-2.8079,-2.8079,-2.8112,-2.8112,-2.8112,-2.8066,-2.8066,-2.8033,-2.8013,-2.798,-2.798,-2.7947,-2.7947,-2.7947,-2.798,-2.798,-2.7947,-2.7881,-2.7716,-2.7749,-2.7848,-2.7868,-2.7901,-2.8013,-2.8013,-2.7947,-2.7848,-2.7769,-2.7914,-2.8046,-2.8085,-2.8151,-2.8197,-2.8243,-2.8295,-2.8314,-2.8379,-2.8527,-2.8643,-2.8739,-2.8849,-2.9053,-2.9257,-2.9463,-2.318,-2.3654,-2.4104,-2.4664,-2.5108,-2.4973,-2.5101,-2.5429,-2.5276,-2.5218,-2.5218,-2.5218,-2.5218,-2.5123,-2.5241,-2.55,-2.584,-2.5923,-2.6211,-2.6658,-2.6773,-2.6998,-2.7201,-2.7268,-2.7403,-2.7436,-2.7423,-2.749,-2.7436,-2.7436,-2.749,-2.749,-2.7503,-2.7503,-2.7503,-2.7503,-2.7456,-2.7436,-2.7436,-2.7403,-2.7356,-2.7403,-2.7503,-2.7503,-2.7503,-2.7503,-2.7503,-2.7503,-2.7503,-2.7456,-2.739,-2.7335,-2.7302,-2.7201,-2.7167,-2.7167,-2.7167,-2.718,-2.718,-2.718,-2.7167,-2.718,-2.718,-2.718,-2.718,-2.718,-2.7281,-2.7315,-2.7449,-2.7669,-2.7736,-2.7769,-2.7802,-2.7934,-2.798,-2.7914,-2.7835,-2.7769,-2.7736,-2.7603,-2.7516,-2.7449,-2.7348,-2.7348,-2.7348,-2.7348,-2.7382,-2.7382,-2.7416,-2.7315,-2.7294,-2.7315,-2.7348,-2.7403,-2.7556,-2.7536,-2.7482,-2.7348,-2.7281,-2.7482,-2.7636,-2.7789,-2.7855,-2.7848,-2.7947,-2.8046,-2.8066,-2.7987,-2.8118,-2.8216,-2.8333,-2.8463,-2.8638,-2.8876,-2.9117]}]]